﻿<?xml version="1.0" encoding="utf-8"?><gpx creator="Garmin Desktop App" version="1.1" xsi:schemaLocation="http://www.topografix.com/GPX/1/1 http://www.topografix.com/GPX/1/1/gpx.xsd http://www.garmin.com/xmlschemas/WaypointExtension/v1 http://www8.garmin.com/xmlschemas/WaypointExtensionv1.xsd http://www.garmin.com/xmlschemas/TrackPointExtension/v1 http://www.garmin.com/xmlschemas/TrackPointExtensionv1.xsd http://www.garmin.com/xmlschemas/GpxExtensions/v3 http://www8.garmin.com/xmlschemas/GpxExtensionsv3.xsd http://www.garmin.com/xmlschemas/ActivityExtension/v1 http://www8.garmin.com/xmlschemas/ActivityExtensionv1.xsd http://www.garmin.com/xmlschemas/AdventuresExtensions/v1 http://www8.garmin.com/xmlschemas/AdventuresExtensionv1.xsd http://www.garmin.com/xmlschemas/PressureExtension/v1 http://www.garmin.com/xmlschemas/PressureExtensionv1.xsd http://www.garmin.com/xmlschemas/TripExtensions/v1 http://www.garmin.com/xmlschemas/TripExtensionsv1.xsd http://www.garmin.com/xmlschemas/TripMetaDataExtensions/v1 http://www.garmin.com/xmlschemas/TripMetaDataExtensionsv1.xsd http://www.garmin.com/xmlschemas/ViaPointTransportationModeExtensions/v1 http://www.garmin.com/xmlschemas/ViaPointTransportationModeExtensionsv1.xsd http://www.garmin.com/xmlschemas/CreationTimeExtension/v1 http://www.garmin.com/xmlschemas/CreationTimeExtensionsv1.xsd http://www.garmin.com/xmlschemas/AccelerationExtension/v1 http://www.garmin.com/xmlschemas/AccelerationExtensionv1.xsd http://www.garmin.com/xmlschemas/PowerExtension/v1 http://www.garmin.com/xmlschemas/PowerExtensionv1.xsd http://www.garmin.com/xmlschemas/VideoExtension/v1 http://www.garmin.com/xmlschemas/VideoExtensionv1.xsd" xmlns="http://www.topografix.com/GPX/1/1" xmlns:xsi="http://www.w3.org/2001/XMLSchema-instance" xmlns:wptx1="http://www.garmin.com/xmlschemas/WaypointExtension/v1" xmlns:gpxtrx="http://www.garmin.com/xmlschemas/GpxExtensions/v3" xmlns:gpxtpx="http://www.garmin.com/xmlschemas/TrackPointExtension/v1" xmlns:gpxx="http://www.garmin.com/xmlschemas/GpxExtensions/v3" xmlns:trp="http://www.garmin.com/xmlschemas/TripExtensions/v1" xmlns:adv="http://www.garmin.com/xmlschemas/AdventuresExtensions/v1" xmlns:prs="http://www.garmin.com/xmlschemas/PressureExtension/v1" xmlns:tmd="http://www.garmin.com/xmlschemas/TripMetaDataExtensions/v1" xmlns:vptm="http://www.garmin.com/xmlschemas/ViaPointTransportationModeExtensions/v1" xmlns:ctx="http://www.garmin.com/xmlschemas/CreationTimeExtension/v1" xmlns:gpxacc="http://www.garmin.com/xmlschemas/AccelerationExtension/v1" xmlns:gpxpx="http://www.garmin.com/xmlschemas/PowerExtension/v1" xmlns:vidx1="http://www.garmin.com/xmlschemas/VideoExtension/v1">

  <metadata>
    <link href="http://www.garmin.com">
      <text>Garmin International</text>
    </link>
    <time>2022-07-17T05:49:59Z</time>
    <bounds maxlat="47.135743293911219" maxlon="-0.149930035695434" minlat="47.11766998283565" minlon="-0.166849996894598" />
  </metadata>

  <trk>
    <name>Blog- Montreuil belley 2-du 13/07/2022</name>
    <extensions>
      <gpxx:TrackExtension>
        <gpxx:DisplayColor>Magenta</gpxx:DisplayColor>
      </gpxx:TrackExtension>
    </extensions>
    <trkseg>
      <trkpt lat="47.133645638823509" lon="-0.15577582642436">
        <ele>25</ele>
        <time>2022-07-13T04:37:35Z</time>
      </trkpt>
      <trkpt lat="47.134116366505623" lon="-0.154818277806044">
        <ele>37.80859375</ele>
      </trkpt>
      <trkpt lat="47.134136985987425" lon="-0.154116963967681">
        <ele>43.046875</ele>
      </trkpt>
      <trkpt lat="47.134326919913292" lon="-0.153780682012439">
        <ele>40.31640625</ele>
      </trkpt>
      <trkpt lat="47.134615005925298" lon="-0.153601057827473">
        <ele>37.39453125</ele>
      </trkpt>
      <trkpt lat="47.134767388924956" lon="-0.15369325876236">
        <ele>35.98046875</ele>
      </trkpt>
      <trkpt lat="47.13505388237536" lon="-0.153942285105586">
        <ele>33.88671875</ele>
      </trkpt>
      <trkpt lat="47.135197632014751" lon="-0.15394345857203">
        <ele>33.3203125</ele>
      </trkpt>
      <trkpt lat="47.135743293911219" lon="-0.15457134693861">
        <ele>31</ele>
      </trkpt>
      <trkpt lat="47.135224621742964" lon="-0.153943626210094">
        <ele>33.17578125</ele>
      </trkpt>
      <trkpt lat="47.135225208476186" lon="-0.153774814680219">
        <ele>33.6015625</ele>
      </trkpt>
      <trkpt lat="47.134903511032462" lon="-0.153343565762043">
        <ele>37.1484375</ele>
      </trkpt>
      <trkpt lat="47.134868642315269" lon="-0.153057491406798">
        <ele>38.9375</ele>
      </trkpt>
      <trkpt lat="47.134968806058168" lon="-0.152694554999471">
        <ele>39.8359375</ele>
      </trkpt>
      <trkpt lat="47.135132001712918" lon="-0.15230605378747">
        <ele>40.32421875</ele>
      </trkpt>
      <trkpt lat="47.135210037231445" lon="-0.152130033820868">
        <ele>26</ele>
        <time>2022-07-13T04:37:37Z</time>
      </trkpt>
      <trkpt lat="47.135210037231445" lon="-0.152089968323708">
        <ele>28</ele>
        <time>2022-07-13T04:37:39Z</time>
      </trkpt>
      <trkpt lat="47.135220011696219" lon="-0.152049986645579">
        <ele>28</ele>
        <time>2022-07-13T04:37:42Z</time>
      </trkpt>
      <trkpt lat="47.135239960625768" lon="-0.152000030502677">
        <ele>28</ele>
        <time>2022-07-13T04:37:45Z</time>
      </trkpt>
      <trkpt lat="47.135250018909574" lon="-0.151949990540743">
        <ele>29</ele>
        <time>2022-07-13T04:37:47Z</time>
      </trkpt>
      <trkpt lat="47.135259993374348" lon="-0.151900034397841">
        <ele>29</ele>
        <time>2022-07-13T04:37:50Z</time>
      </trkpt>
      <trkpt lat="47.135269967839122" lon="-0.151859968900681">
        <ele>29</ele>
        <time>2022-07-13T04:37:52Z</time>
      </trkpt>
      <trkpt lat="47.135280026122928" lon="-0.151810012757778">
        <ele>28</ele>
        <time>2022-07-13T04:37:55Z</time>
      </trkpt>
      <trkpt lat="47.135299975052476" lon="-0.151759972795844">
        <ele>27</ele>
        <time>2022-07-13T04:37:57Z</time>
      </trkpt>
      <trkpt lat="47.135310033336282" lon="-0.151719991117716">
        <ele>27</ele>
        <time>2022-07-13T04:37:59Z</time>
      </trkpt>
      <trkpt lat="47.135320007801056" lon="-0.151680009439588">
        <ele>27</ele>
        <time>2022-07-13T04:38:01Z</time>
      </trkpt>
      <trkpt lat="47.135340040549636" lon="-0.151650002226233">
        <ele>27</ele>
        <time>2022-07-13T04:38:03Z</time>
      </trkpt>
      <trkpt lat="47.135359989479184" lon="-0.151610020548105">
        <ele>26</ele>
        <time>2022-07-13T04:38:05Z</time>
      </trkpt>
      <trkpt lat="47.135369963943958" lon="-0.151580013334751">
        <ele>27</ele>
        <time>2022-07-13T04:38:07Z</time>
      </trkpt>
      <trkpt lat="47.135389996692538" lon="-0.151529973372817">
        <ele>27</ele>
        <time>2022-07-13T04:38:09Z</time>
      </trkpt>
      <trkpt lat="47.135399971157312" lon="-0.151469958946109">
        <ele>27</ele>
        <time>2022-07-13T04:38:11Z</time>
      </trkpt>
      <trkpt lat="47.135399971157312" lon="-0.151399970054626">
        <ele>28</ele>
        <time>2022-07-13T04:38:13Z</time>
      </trkpt>
      <trkpt lat="47.135399971157312" lon="-0.15134003944695">
        <ele>28</ele>
        <time>2022-07-13T04:38:15Z</time>
      </trkpt>
      <trkpt lat="47.135410029441118" lon="-0.151269966736436">
        <ele>28</ele>
        <time>2022-07-13T04:38:17Z</time>
      </trkpt>
      <trkpt lat="47.135410029441118" lon="-0.151210036128759">
        <ele>28</ele>
        <time>2022-07-13T04:38:19Z</time>
      </trkpt>
      <trkpt lat="47.135410029441118" lon="-0.151150021702051">
        <ele>28</ele>
        <time>2022-07-13T04:38:21Z</time>
      </trkpt>
      <trkpt lat="47.135410029441118" lon="-0.151080032810569">
        <ele>29</ele>
        <time>2022-07-13T04:38:23Z</time>
      </trkpt>
      <trkpt lat="47.135410029441118" lon="-0.151020018383861">
        <ele>29</ele>
        <time>2022-07-13T04:38:25Z</time>
      </trkpt>
      <trkpt lat="47.135410029441118" lon="-0.150950029492378">
        <ele>29</ele>
        <time>2022-07-13T04:38:27Z</time>
      </trkpt>
      <trkpt lat="47.135399971157312" lon="-0.15089001506567">
        <ele>30</ele>
        <time>2022-07-13T04:38:29Z</time>
      </trkpt>
      <trkpt lat="47.135380022227764" lon="-0.150830000638962">
        <ele>30</ele>
        <time>2022-07-13T04:38:31Z</time>
      </trkpt>
      <trkpt lat="47.135369963943958" lon="-0.150769986212254">
        <ele>31</ele>
        <time>2022-07-13T04:38:33Z</time>
      </trkpt>
      <trkpt lat="47.13535001501441" lon="-0.150709971785545">
        <ele>31</ele>
        <time>2022-07-13T04:38:35Z</time>
      </trkpt>
      <trkpt lat="47.135340040549636" lon="-0.150660015642643">
        <ele>32</ele>
        <time>2022-07-13T04:38:37Z</time>
      </trkpt>
      <trkpt lat="47.135310033336282" lon="-0.150620033964515">
        <ele>32</ele>
        <time>2022-07-13T04:38:39Z</time>
      </trkpt>
      <trkpt lat="47.135280026122928" lon="-0.150579968467355">
        <ele>32</ele>
        <time>2022-07-13T04:38:41Z</time>
      </trkpt>
      <trkpt lat="47.135250018909574" lon="-0.150539986789227">
        <ele>33</ele>
        <time>2022-07-13T04:38:43Z</time>
      </trkpt>
      <trkpt lat="47.135220011696219" lon="-0.150500005111098">
        <ele>33</ele>
        <time>2022-07-13T04:38:45Z</time>
      </trkpt>
      <trkpt lat="47.135180030018091" lon="-0.150469997897744">
        <ele>33</ele>
        <time>2022-07-13T04:38:47Z</time>
      </trkpt>
      <trkpt lat="47.135139964520931" lon="-0.150449965149164">
        <ele>33</ele>
        <time>2022-07-13T04:38:49Z</time>
      </trkpt>
      <trkpt lat="47.135110041126609" lon="-0.15043999068439">
        <ele>34</ele>
        <time>2022-07-13T04:38:51Z</time>
      </trkpt>
      <trkpt lat="47.135080033913255" lon="-0.150420041754842">
        <ele>34</ele>
        <time>2022-07-13T04:38:53Z</time>
      </trkpt>
      <trkpt lat="47.135050026699901" lon="-0.150400009006262">
        <ele>35</ele>
        <time>2022-07-13T04:38:56Z</time>
      </trkpt>
      <trkpt lat="47.135009961202741" lon="-0.150379976257682">
        <ele>35</ele>
        <time>2022-07-13T04:38:59Z</time>
      </trkpt>
      <trkpt lat="47.134980037808418" lon="-0.150360027328134">
        <ele>34</ele>
        <time>2022-07-13T04:39:02Z</time>
      </trkpt>
      <trkpt lat="47.134939972311258" lon="-0.150339994579554">
        <ele>34</ele>
        <time>2022-07-13T04:39:05Z</time>
      </trkpt>
      <trkpt lat="47.134909965097904" lon="-0.150319961830974">
        <ele>33</ele>
        <time>2022-07-13T04:39:07Z</time>
      </trkpt>
      <trkpt lat="47.134880041703582" lon="-0.150300012901425">
        <ele>33</ele>
        <time>2022-07-13T04:39:10Z</time>
      </trkpt>
      <trkpt lat="47.134860008955002" lon="-0.150279980152845">
        <ele>32</ele>
        <time>2022-07-13T04:39:13Z</time>
      </trkpt>
      <trkpt lat="47.134839976206422" lon="-0.150249972939491">
        <ele>32</ele>
        <time>2022-07-13T04:39:16Z</time>
      </trkpt>
      <trkpt lat="47.134799994528294" lon="-0.150219965726137">
        <ele>32</ele>
        <time>2022-07-13T04:39:18Z</time>
      </trkpt>
      <trkpt lat="47.134769987314939" lon="-0.150200016796589">
        <ele>32</ele>
        <time>2022-07-13T04:39:20Z</time>
      </trkpt>
      <trkpt lat="47.134739980101585" lon="-0.150189958512783">
        <ele>33</ele>
        <time>2022-07-13T04:39:22Z</time>
      </trkpt>
      <trkpt lat="47.134699998423457" lon="-0.150170009583235">
        <ele>33</ele>
        <time>2022-07-13T04:39:24Z</time>
      </trkpt>
      <trkpt lat="47.134660016745329" lon="-0.150149976834655">
        <ele>35</ele>
        <time>2022-07-13T04:39:26Z</time>
      </trkpt>
      <trkpt lat="47.134630009531975" lon="-0.150140002369881">
        <ele>37</ele>
        <time>2022-07-13T04:39:28Z</time>
      </trkpt>
      <trkpt lat="47.134600002318621" lon="-0.150109995156527">
        <ele>38</ele>
        <time>2022-07-13T04:39:31Z</time>
      </trkpt>
      <trkpt lat="47.134569995105267" lon="-0.150089962407947">
        <ele>39</ele>
        <time>2022-07-13T04:39:33Z</time>
      </trkpt>
      <trkpt lat="47.134539987891912" lon="-0.150060039013624">
        <ele>40</ele>
        <time>2022-07-13T04:39:36Z</time>
      </trkpt>
      <trkpt lat="47.134509980678558" lon="-0.15003003180027">
        <ele>41</ele>
        <time>2022-07-13T04:39:39Z</time>
      </trkpt>
      <trkpt lat="47.134479973465204" lon="-0.14998996630311">
        <ele>41</ele>
        <time>2022-07-13T04:39:42Z</time>
      </trkpt>
      <trkpt lat="47.13444996625185" lon="-0.149949984624982">
        <ele>41</ele>
        <time>2022-07-13T04:39:44Z</time>
      </trkpt>
      <trkpt lat="47.134419959038496" lon="-0.149940010160208">
        <ele>41</ele>
        <time>2022-07-13T04:39:46Z</time>
      </trkpt>
      <trkpt lat="47.134390035644174" lon="-0.149930035695434">
        <ele>41</ele>
        <time>2022-07-13T04:39:49Z</time>
      </trkpt>
      <trkpt lat="47.13436002843082" lon="-0.149959959089756">
        <ele>42</ele>
        <time>2022-07-13T04:39:52Z</time>
      </trkpt>
      <trkpt lat="47.13433999568224" lon="-0.149979991838336">
        <ele>42</ele>
        <time>2022-07-13T04:39:54Z</time>
      </trkpt>
      <trkpt lat="47.13431996293366" lon="-0.150019973516464">
        <ele>42</ele>
        <time>2022-07-13T04:39:57Z</time>
      </trkpt>
      <trkpt lat="47.134300014004111" lon="-0.150060039013624">
        <ele>42</ele>
        <time>2022-07-13T04:40:00Z</time>
      </trkpt>
      <trkpt lat="47.134270006790757" lon="-0.150089962407947">
        <ele>43</ele>
        <time>2022-07-13T04:40:03Z</time>
      </trkpt>
      <trkpt lat="47.134239999577403" lon="-0.150119969621301">
        <ele>44</ele>
        <time>2022-07-13T04:40:05Z</time>
      </trkpt>
      <trkpt lat="47.134219966828823" lon="-0.150149976834655">
        <ele>44</ele>
        <time>2022-07-13T04:40:08Z</time>
      </trkpt>
      <trkpt lat="47.134189959615469" lon="-0.150179984048009">
        <ele>44</ele>
        <time>2022-07-13T04:40:10Z</time>
      </trkpt>
      <trkpt lat="47.134160036221147" lon="-0.150200016796589">
        <ele>44</ele>
        <time>2022-07-13T04:40:12Z</time>
      </trkpt>
      <trkpt lat="47.134140003472567" lon="-0.150219965726137">
        <ele>43</ele>
        <time>2022-07-13T04:40:15Z</time>
      </trkpt>
      <trkpt lat="47.134119970723987" lon="-0.150249972939491">
        <ele>43</ele>
        <time>2022-07-13T04:40:18Z</time>
      </trkpt>
      <trkpt lat="47.134089963510633" lon="-0.150279980152845">
        <ele>43</ele>
        <time>2022-07-13T04:40:20Z</time>
      </trkpt>
      <trkpt lat="47.134070014581084" lon="-0.150319961830974">
        <ele>43</ele>
        <time>2022-07-13T04:40:22Z</time>
      </trkpt>
      <trkpt lat="47.134049981832504" lon="-0.150349969044328">
        <ele>44</ele>
        <time>2022-07-13T04:40:25Z</time>
      </trkpt>
      <trkpt lat="47.134030032902956" lon="-0.150390034541488">
        <ele>45</ele>
        <time>2022-07-13T04:40:45Z</time>
      </trkpt>
      <trkpt lat="47.134010000154376" lon="-0.150400009006262">
        <ele>45</ele>
        <time>2022-07-13T04:40:47Z</time>
      </trkpt>
      <trkpt lat="47.133979992941022" lon="-0.150420041754842">
        <ele>45</ele>
        <time>2022-07-13T04:40:49Z</time>
      </trkpt>
      <trkpt lat="47.133959960192442" lon="-0.15043999068439">
        <ele>44</ele>
        <time>2022-07-13T04:40:52Z</time>
      </trkpt>
      <trkpt lat="47.133940011262894" lon="-0.15046002343297">
        <ele>44</ele>
        <time>2022-07-13T04:41:03Z</time>
      </trkpt>
      <trkpt lat="47.13391000404954" lon="-0.150490030646324">
        <ele>44</ele>
        <time>2022-07-13T04:41:14Z</time>
      </trkpt>
      <trkpt lat="47.13388997130096" lon="-0.150520037859678">
        <ele>44</ele>
        <time>2022-07-13T04:41:16Z</time>
      </trkpt>
      <trkpt lat="47.133870022371411" lon="-0.150560019537807">
        <ele>44</ele>
        <time>2022-07-13T04:41:18Z</time>
      </trkpt>
      <trkpt lat="47.133859964087605" lon="-0.150600001215935">
        <ele>44</ele>
        <time>2022-07-13T04:41:21Z</time>
      </trkpt>
      <trkpt lat="47.133859964087605" lon="-0.150650041177869">
        <ele>45</ele>
        <time>2022-07-13T04:41:24Z</time>
      </trkpt>
      <trkpt lat="47.133840015158057" lon="-0.150690022855997">
        <ele>46</ele>
        <time>2022-07-13T04:41:49Z</time>
      </trkpt>
      <trkpt lat="47.133819982409477" lon="-0.150720030069351">
        <ele>48</ele>
        <time>2022-07-13T04:41:53Z</time>
      </trkpt>
      <trkpt lat="47.133800033479929" lon="-0.150760011747479">
        <ele>48</ele>
        <time>2022-07-13T04:41:57Z</time>
      </trkpt>
      <trkpt lat="47.133780000731349" lon="-0.150799993425608">
        <ele>47</ele>
        <time>2022-07-13T04:42:00Z</time>
      </trkpt>
      <trkpt lat="47.133759967982769" lon="-0.150830000638962">
        <ele>46</ele>
        <time>2022-07-13T04:42:02Z</time>
      </trkpt>
      <trkpt lat="47.133740019053221" lon="-0.150860007852316">
        <ele>46</ele>
        <time>2022-07-13T04:42:04Z</time>
      </trkpt>
      <trkpt lat="47.133729960769415" lon="-0.150899989530444">
        <ele>46</ele>
        <time>2022-07-13T04:42:07Z</time>
      </trkpt>
      <trkpt lat="47.133710011839867" lon="-0.150939971208572">
        <ele>45</ele>
        <time>2022-07-13T04:42:10Z</time>
      </trkpt>
      <trkpt lat="47.133700037375093" lon="-0.150990011170506">
        <ele>46</ele>
        <time>2022-07-13T04:42:12Z</time>
      </trkpt>
      <trkpt lat="47.133670030161738" lon="-0.151029992848635">
        <ele>46</ele>
        <time>2022-07-13T04:42:14Z</time>
      </trkpt>
      <trkpt lat="47.133659971877933" lon="-0.151060000061989">
        <ele>47</ele>
        <time>2022-07-13T04:42:16Z</time>
      </trkpt>
      <trkpt lat="47.133640022948384" lon="-0.151099981740117">
        <ele>48</ele>
        <time>2022-07-13T04:42:19Z</time>
      </trkpt>
      <trkpt lat="47.13361001573503" lon="-0.151139963418245">
        <ele>49</ele>
        <time>2022-07-13T04:42:22Z</time>
      </trkpt>
      <trkpt lat="47.133580008521676" lon="-0.151180028915405">
        <ele>49</ele>
        <time>2022-07-13T04:42:24Z</time>
      </trkpt>
      <trkpt lat="47.133550001308322" lon="-0.151210036128759">
        <ele>50</ele>
        <time>2022-07-13T04:42:26Z</time>
      </trkpt>
      <trkpt lat="47.133519994094968" lon="-0.151239959523082">
        <ele>50</ele>
        <time>2022-07-13T04:42:28Z</time>
      </trkpt>
      <trkpt lat="47.133499961346388" lon="-0.151259992271662">
        <ele>49</ele>
        <time>2022-07-13T04:42:30Z</time>
      </trkpt>
      <trkpt lat="47.133470037952065" lon="-0.151289999485016">
        <ele>49</ele>
        <time>2022-07-13T04:42:32Z</time>
      </trkpt>
      <trkpt lat="47.133440030738711" lon="-0.15132000669837">
        <ele>48</ele>
        <time>2022-07-13T04:42:35Z</time>
      </trkpt>
      <trkpt lat="47.133419997990131" lon="-0.151359988376498">
        <ele>47</ele>
        <time>2022-07-13T04:42:38Z</time>
      </trkpt>
      <trkpt lat="47.133399965241551" lon="-0.151399970054626">
        <ele>46</ele>
        <time>2022-07-13T04:42:40Z</time>
      </trkpt>
      <trkpt lat="47.133389990776777" lon="-0.151450010016561">
        <ele>45</ele>
        <time>2022-07-13T04:42:42Z</time>
      </trkpt>
      <trkpt lat="47.133380016312003" lon="-0.151489991694689">
        <ele>46</ele>
        <time>2022-07-13T04:42:44Z</time>
      </trkpt>
      <trkpt lat="47.133359983563423" lon="-0.151529973372817">
        <ele>46</ele>
        <time>2022-07-13T04:42:47Z</time>
      </trkpt>
      <trkpt lat="47.133340034633875" lon="-0.151559980586171">
        <ele>45</ele>
        <time>2022-07-13T04:42:51Z</time>
      </trkpt>
      <trkpt lat="47.133320001885295" lon="-0.151589987799525">
        <ele>45</ele>
        <time>2022-07-13T04:42:56Z</time>
      </trkpt>
      <trkpt lat="47.133289994671941" lon="-0.151619995012879">
        <ele>44</ele>
        <time>2022-07-13T04:42:59Z</time>
      </trkpt>
      <trkpt lat="47.133269961923361" lon="-0.151650002226233">
        <ele>44</ele>
        <time>2022-07-13T04:43:01Z</time>
      </trkpt>
      <trkpt lat="47.133250012993813" lon="-0.151680009439588">
        <ele>45</ele>
        <time>2022-07-13T04:43:03Z</time>
      </trkpt>
      <trkpt lat="47.133220005780458" lon="-0.151710016652942">
        <ele>45</ele>
        <time>2022-07-13T04:43:05Z</time>
      </trkpt>
      <trkpt lat="47.133199973031878" lon="-0.151740023866296">
        <ele>45</ele>
        <time>2022-07-13T04:43:07Z</time>
      </trkpt>
      <trkpt lat="47.133169965818524" lon="-0.151759972795844">
        <ele>45</ele>
        <time>2022-07-13T04:43:09Z</time>
      </trkpt>
      <trkpt lat="47.13313995860517" lon="-0.151789980009198">
        <ele>45</ele>
        <time>2022-07-13T04:43:11Z</time>
      </trkpt>
      <trkpt lat="47.133120009675622" lon="-0.151810012757778">
        <ele>46</ele>
        <time>2022-07-13T04:43:13Z</time>
      </trkpt>
      <trkpt lat="47.133090002462268" lon="-0.151840019971132">
        <ele>46</ele>
        <time>2022-07-13T04:43:15Z</time>
      </trkpt>
      <trkpt lat="47.133069969713688" lon="-0.151870027184486">
        <ele>46</ele>
        <time>2022-07-13T04:43:17Z</time>
      </trkpt>
      <trkpt lat="47.133039962500334" lon="-0.151910008862615">
        <ele>47</ele>
        <time>2022-07-13T04:43:19Z</time>
      </trkpt>
      <trkpt lat="47.133020013570786" lon="-0.151930041611195">
        <ele>47</ele>
        <time>2022-07-13T04:43:21Z</time>
      </trkpt>
      <trkpt lat="47.132990006357431" lon="-0.151949990540743">
        <ele>47</ele>
        <time>2022-07-13T04:43:23Z</time>
      </trkpt>
      <trkpt lat="47.132959999144077" lon="-0.151970023289323">
        <ele>47</ele>
        <time>2022-07-13T04:43:26Z</time>
      </trkpt>
      <trkpt lat="47.132929991930723" lon="-0.151989972218871">
        <ele>47</ele>
        <time>2022-07-13T04:43:29Z</time>
      </trkpt>
      <trkpt lat="47.132890010252595" lon="-0.152000030502677">
        <ele>47</ele>
        <time>2022-07-13T04:43:32Z</time>
      </trkpt>
      <trkpt lat="47.132850028574467" lon="-0.152019979432225">
        <ele>46</ele>
        <time>2022-07-13T04:43:34Z</time>
      </trkpt>
      <trkpt lat="47.132820021361113" lon="-0.152040012180805">
        <ele>45</ele>
        <time>2022-07-13T04:43:36Z</time>
      </trkpt>
      <trkpt lat="47.132790014147758" lon="-0.152059961110353">
        <ele>46</ele>
        <time>2022-07-13T04:43:38Z</time>
      </trkpt>
      <trkpt lat="47.132760006934404" lon="-0.152070019394159">
        <ele>47</ele>
        <time>2022-07-13T04:43:40Z</time>
      </trkpt>
      <trkpt lat="47.13272999972105" lon="-0.152089968323708">
        <ele>47</ele>
        <time>2022-07-13T04:43:42Z</time>
      </trkpt>
      <trkpt lat="47.132699992507696" lon="-0.152100026607513">
        <ele>47</ele>
        <time>2022-07-13T04:43:44Z</time>
      </trkpt>
      <trkpt lat="47.132669985294342" lon="-0.152119975537062">
        <ele>47</ele>
        <time>2022-07-13T04:43:46Z</time>
      </trkpt>
      <trkpt lat="47.132639978080988" lon="-0.152140008285642">
        <ele>47</ele>
        <time>2022-07-13T04:43:48Z</time>
      </trkpt>
      <trkpt lat="47.132609970867634" lon="-0.152160041034222">
        <ele>48</ele>
        <time>2022-07-13T04:43:50Z</time>
      </trkpt>
      <trkpt lat="47.13257996365428" lon="-0.152170015498996">
        <ele>49</ele>
        <time>2022-07-13T04:43:52Z</time>
      </trkpt>
      <trkpt lat="47.132550040259957" lon="-0.15217998996377">
        <ele>49</ele>
        <time>2022-07-13T04:43:54Z</time>
      </trkpt>
      <trkpt lat="47.132509974762797" lon="-0.152189964428544">
        <ele>49</ele>
        <time>2022-07-13T04:43:57Z</time>
      </trkpt>
      <trkpt lat="47.132479967549443" lon="-0.15220002271235">
        <ele>49</ele>
        <time>2022-07-13T04:43:59Z</time>
      </trkpt>
      <trkpt lat="47.132439985871315" lon="-0.152219971641898">
        <ele>49</ele>
        <time>2022-07-13T04:44:01Z</time>
      </trkpt>
      <trkpt lat="47.132409978657961" lon="-0.152240004390478">
        <ele>50</ele>
        <time>2022-07-13T04:44:03Z</time>
      </trkpt>
      <trkpt lat="47.132379971444607" lon="-0.152260037139058">
        <ele>50</ele>
        <time>2022-07-13T04:44:05Z</time>
      </trkpt>
      <trkpt lat="47.132360022515059" lon="-0.152279986068606">
        <ele>50</ele>
        <time>2022-07-13T04:44:07Z</time>
      </trkpt>
      <trkpt lat="47.132330015301704" lon="-0.152300018817186">
        <ele>50</ele>
        <time>2022-07-13T04:44:09Z</time>
      </trkpt>
      <trkpt lat="47.13230000808835" lon="-0.152319967746735">
        <ele>50</ele>
        <time>2022-07-13T04:44:11Z</time>
      </trkpt>
      <trkpt lat="47.13227997533977" lon="-0.152340000495315">
        <ele>50</ele>
        <time>2022-07-13T04:44:13Z</time>
      </trkpt>
      <trkpt lat="47.132249968126416" lon="-0.152360033243895">
        <ele>50</ele>
        <time>2022-07-13T04:44:15Z</time>
      </trkpt>
      <trkpt lat="47.132209986448288" lon="-0.152370007708669">
        <ele>49</ele>
        <time>2022-07-13T04:44:17Z</time>
      </trkpt>
      <trkpt lat="47.132179979234934" lon="-0.152390040457249">
        <ele>49</ele>
        <time>2022-07-13T04:44:19Z</time>
      </trkpt>
      <trkpt lat="47.13214997202158" lon="-0.152409989386797">
        <ele>49</ele>
        <time>2022-07-13T04:44:21Z</time>
      </trkpt>
      <trkpt lat="47.132119964808226" lon="-0.152419963851571">
        <ele>50</ele>
        <time>2022-07-13T04:44:23Z</time>
      </trkpt>
      <trkpt lat="47.132090041413903" lon="-0.152430022135377">
        <ele>50</ele>
        <time>2022-07-13T04:44:25Z</time>
      </trkpt>
      <trkpt lat="47.132060034200549" lon="-0.152439996600151">
        <ele>50</ele>
        <time>2022-07-13T04:44:29Z</time>
      </trkpt>
      <trkpt lat="47.132019968703389" lon="-0.152460029348731">
        <ele>50</ele>
        <time>2022-07-13T04:44:32Z</time>
      </trkpt>
      <trkpt lat="47.131989961490035" lon="-0.152460029348731">
        <ele>50</ele>
        <time>2022-07-13T04:44:35Z</time>
      </trkpt>
      <trkpt lat="47.131960038095713" lon="-0.152479978278279">
        <ele>50</ele>
        <time>2022-07-13T04:44:38Z</time>
      </trkpt>
      <trkpt lat="47.131930030882359" lon="-0.152500011026859">
        <ele>51</ele>
        <time>2022-07-13T04:44:40Z</time>
      </trkpt>
      <trkpt lat="47.131900023669004" lon="-0.152519959956408">
        <ele>51</ele>
        <time>2022-07-13T04:44:42Z</time>
      </trkpt>
      <trkpt lat="47.13187001645565" lon="-0.152539992704988">
        <ele>50</ele>
        <time>2022-07-13T04:44:44Z</time>
      </trkpt>
      <trkpt lat="47.131840009242296" lon="-0.152569999918342">
        <ele>50</ele>
        <time>2022-07-13T04:44:46Z</time>
      </trkpt>
      <trkpt lat="47.131810002028942" lon="-0.152600007131696">
        <ele>50</ele>
        <time>2022-07-13T04:44:48Z</time>
      </trkpt>
      <trkpt lat="47.131779994815588" lon="-0.15260998159647">
        <ele>51</ele>
        <time>2022-07-13T04:44:50Z</time>
      </trkpt>
      <trkpt lat="47.131749987602234" lon="-0.15260998159647">
        <ele>51</ele>
        <time>2022-07-13T04:44:52Z</time>
      </trkpt>
      <trkpt lat="47.131730038672686" lon="-0.152579974383116">
        <ele>52</ele>
        <time>2022-07-13T04:44:55Z</time>
      </trkpt>
      <trkpt lat="47.131710005924106" lon="-0.152549967169762">
        <ele>53</ele>
        <time>2022-07-13T04:44:57Z</time>
      </trkpt>
      <trkpt lat="47.131689973175526" lon="-0.152509985491633">
        <ele>54</ele>
        <time>2022-07-13T04:45:00Z</time>
      </trkpt>
      <trkpt lat="47.131679998710752" lon="-0.152470003813505">
        <ele>54</ele>
        <time>2022-07-13T04:45:02Z</time>
      </trkpt>
      <trkpt lat="47.131670024245977" lon="-0.152419963851571">
        <ele>53</ele>
        <time>2022-07-13T04:45:04Z</time>
      </trkpt>
      <trkpt lat="47.131670024245977" lon="-0.152370007708669">
        <ele>53</ele>
        <time>2022-07-13T04:45:06Z</time>
      </trkpt>
      <trkpt lat="47.131659965962172" lon="-0.152319967746735">
        <ele>53</ele>
        <time>2022-07-13T04:45:08Z</time>
      </trkpt>
      <trkpt lat="47.131659965962172" lon="-0.152270011603832">
        <ele>53</ele>
        <time>2022-07-13T04:45:10Z</time>
      </trkpt>
      <trkpt lat="47.131649991497397" lon="-0.152219971641898">
        <ele>54</ele>
        <time>2022-07-13T04:45:13Z</time>
      </trkpt>
      <trkpt lat="47.131629958748817" lon="-0.15217998996377">
        <ele>55</ele>
        <time>2022-07-13T04:45:15Z</time>
      </trkpt>
      <trkpt lat="47.131629958748817" lon="-0.152140008285642">
        <ele>56</ele>
        <time>2022-07-13T04:45:17Z</time>
      </trkpt>
      <trkpt lat="47.131619984284043" lon="-0.152089968323708">
        <ele>56</ele>
        <time>2022-07-13T04:45:20Z</time>
      </trkpt>
      <trkpt lat="47.131610009819269" lon="-0.152040012180805">
        <ele>56</ele>
        <time>2022-07-13T04:45:22Z</time>
      </trkpt>
      <trkpt lat="47.131610009819269" lon="-0.151989972218871">
        <ele>55</ele>
        <time>2022-07-13T04:45:24Z</time>
      </trkpt>
      <trkpt lat="47.131610009819269" lon="-0.151940016075969">
        <ele>55</ele>
        <time>2022-07-13T04:45:26Z</time>
      </trkpt>
      <trkpt lat="47.131610009819269" lon="-0.151900034397841">
        <ele>55</ele>
        <time>2022-07-13T04:45:28Z</time>
      </trkpt>
      <trkpt lat="47.131610009819269" lon="-0.151849994435906">
        <ele>55</ele>
        <time>2022-07-13T04:45:30Z</time>
      </trkpt>
      <trkpt lat="47.131610009819269" lon="-0.151810012757778">
        <ele>56</ele>
        <time>2022-07-13T04:45:32Z</time>
      </trkpt>
      <trkpt lat="47.131600035354495" lon="-0.15177003107965">
        <ele>56</ele>
        <time>2022-07-13T04:45:34Z</time>
      </trkpt>
      <trkpt lat="47.131589977070689" lon="-0.151719991117716">
        <ele>57</ele>
        <time>2022-07-13T04:45:36Z</time>
      </trkpt>
      <trkpt lat="47.131589977070689" lon="-0.151680009439588">
        <ele>57</ele>
        <time>2022-07-13T04:45:38Z</time>
      </trkpt>
      <trkpt lat="47.131580002605915" lon="-0.151629969477654">
        <ele>58</ele>
        <time>2022-07-13T04:45:40Z</time>
      </trkpt>
      <trkpt lat="47.131580002605915" lon="-0.151589987799525">
        <ele>58</ele>
        <time>2022-07-13T04:45:42Z</time>
      </trkpt>
      <trkpt lat="47.131580002605915" lon="-0.151540031656623">
        <ele>58</ele>
        <time>2022-07-13T04:45:44Z</time>
      </trkpt>
      <trkpt lat="47.131580002605915" lon="-0.151499966159463">
        <ele>57</ele>
        <time>2022-07-13T04:45:46Z</time>
      </trkpt>
      <trkpt lat="47.131580002605915" lon="-0.151459984481335">
        <ele>55</ele>
        <time>2022-07-13T04:45:48Z</time>
      </trkpt>
      <trkpt lat="47.131570028141141" lon="-0.151410028338432">
        <ele>54</ele>
        <time>2022-07-13T04:45:50Z</time>
      </trkpt>
      <trkpt lat="47.131559969857335" lon="-0.151369962841272">
        <ele>52</ele>
        <time>2022-07-13T04:45:52Z</time>
      </trkpt>
      <trkpt lat="47.131570028141141" lon="-0.15132000669837">
        <ele>51</ele>
        <time>2022-07-13T04:45:54Z</time>
      </trkpt>
      <trkpt lat="47.131570028141141" lon="-0.151280025020242">
        <ele>51</ele>
        <time>2022-07-13T04:45:56Z</time>
      </trkpt>
      <trkpt lat="47.131559969857335" lon="-0.151239959523082">
        <ele>51</ele>
        <time>2022-07-13T04:45:58Z</time>
      </trkpt>
      <trkpt lat="47.131559969857335" lon="-0.151199977844954">
        <ele>51</ele>
        <time>2022-07-13T04:46:00Z</time>
      </trkpt>
      <trkpt lat="47.131559969857335" lon="-0.151150021702051">
        <ele>51</ele>
        <time>2022-07-13T04:46:02Z</time>
      </trkpt>
      <trkpt lat="47.131549995392561" lon="-0.151110040023923">
        <ele>51</ele>
        <time>2022-07-13T04:46:04Z</time>
      </trkpt>
      <trkpt lat="47.131540020927787" lon="-0.151069974526763">
        <ele>51</ele>
        <time>2022-07-13T04:46:06Z</time>
      </trkpt>
      <trkpt lat="47.131540020927787" lon="-0.151020018383861">
        <ele>51</ele>
        <time>2022-07-13T04:46:09Z</time>
      </trkpt>
      <trkpt lat="47.131540020927787" lon="-0.150960003957152">
        <ele>51</ele>
        <time>2022-07-13T04:46:12Z</time>
      </trkpt>
      <trkpt lat="47.131529962643981" lon="-0.150909963995218">
        <ele>51</ele>
        <time>2022-07-13T04:46:14Z</time>
      </trkpt>
      <trkpt lat="47.131510013714433" lon="-0.150860007852316">
        <ele>51</ele>
        <time>2022-07-13T04:46:16Z</time>
      </trkpt>
      <trkpt lat="47.131489980965853" lon="-0.150820026174188">
        <ele>51</ele>
        <time>2022-07-13T04:46:18Z</time>
      </trkpt>
      <trkpt lat="47.131470032036304" lon="-0.150779960677028">
        <ele>51</ele>
        <time>2022-07-13T04:46:20Z</time>
      </trkpt>
      <trkpt lat="47.13144002482295" lon="-0.150750037282705">
        <ele>51</ele>
        <time>2022-07-13T04:46:23Z</time>
      </trkpt>
      <trkpt lat="47.131429966539145" lon="-0.150760011747479">
        <ele>51</ele>
        <time>2022-07-13T04:46:27Z</time>
      </trkpt>
      <trkpt lat="47.13139995932579" lon="-0.150779960677028">
        <ele>49</ele>
        <time>2022-07-13T04:46:35Z</time>
      </trkpt>
      <trkpt lat="47.131370035931468" lon="-0.150799993425608">
        <ele>48</ele>
        <time>2022-07-13T04:46:37Z</time>
      </trkpt>
      <trkpt lat="47.131350003182888" lon="-0.150820026174188">
        <ele>48</ele>
        <time>2022-07-13T04:46:39Z</time>
      </trkpt>
      <trkpt lat="47.131319995969534" lon="-0.150839975103736">
        <ele>48</ele>
        <time>2022-07-13T04:46:42Z</time>
      </trkpt>
      <trkpt lat="47.13128998875618" lon="-0.150860007852316">
        <ele>48</ele>
        <time>2022-07-13T04:46:45Z</time>
      </trkpt>
      <trkpt lat="47.131270039826632" lon="-0.150880040600896">
        <ele>48</ele>
        <time>2022-07-13T04:46:48Z</time>
      </trkpt>
      <trkpt lat="47.131240032613277" lon="-0.150920022279024">
        <ele>47</ele>
        <time>2022-07-13T04:46:51Z</time>
      </trkpt>
      <trkpt lat="47.131219999864697" lon="-0.150950029492378">
        <ele>47</ele>
        <time>2022-07-13T04:46:53Z</time>
      </trkpt>
      <trkpt lat="47.131199967116117" lon="-0.150980036705732">
        <ele>47</ele>
        <time>2022-07-13T04:46:55Z</time>
      </trkpt>
      <trkpt lat="47.131169959902763" lon="-0.151009960100055">
        <ele>47</ele>
        <time>2022-07-13T04:46:58Z</time>
      </trkpt>
      <trkpt lat="47.131140036508441" lon="-0.151039967313409">
        <ele>48</ele>
        <time>2022-07-13T04:47:01Z</time>
      </trkpt>
      <trkpt lat="47.131110029295087" lon="-0.151050025597215">
        <ele>48</ele>
        <time>2022-07-13T04:47:03Z</time>
      </trkpt>
      <trkpt lat="47.131069963797927" lon="-0.151069974526763">
        <ele>49</ele>
        <time>2022-07-13T04:47:06Z</time>
      </trkpt>
      <trkpt lat="47.131040040403605" lon="-0.151090007275343">
        <ele>49</ele>
        <time>2022-07-13T04:47:08Z</time>
      </trkpt>
      <trkpt lat="47.13101003319025" lon="-0.151110040023923">
        <ele>49</ele>
        <time>2022-07-13T04:47:10Z</time>
      </trkpt>
      <trkpt lat="47.130980025976896" lon="-0.151129988953471">
        <ele>49</ele>
        <time>2022-07-13T04:47:12Z</time>
      </trkpt>
      <trkpt lat="47.130950018763542" lon="-0.151150021702051">
        <ele>49</ele>
        <time>2022-07-13T04:47:14Z</time>
      </trkpt>
      <trkpt lat="47.130910037085414" lon="-0.151169970631599">
        <ele>50</ele>
        <time>2022-07-13T04:47:16Z</time>
      </trkpt>
      <trkpt lat="47.13088002987206" lon="-0.151190003380179">
        <ele>51</ele>
        <time>2022-07-13T04:47:18Z</time>
      </trkpt>
      <trkpt lat="47.130850022658706" lon="-0.151220010593534">
        <ele>51</ele>
        <time>2022-07-13T04:47:20Z</time>
      </trkpt>
      <trkpt lat="47.130820015445352" lon="-0.151250017806888">
        <ele>52</ele>
        <time>2022-07-13T04:47:22Z</time>
      </trkpt>
      <trkpt lat="47.130799982696772" lon="-0.151280025020242">
        <ele>52</ele>
        <time>2022-07-13T04:47:24Z</time>
      </trkpt>
      <trkpt lat="47.130769975483418" lon="-0.15132000669837">
        <ele>52</ele>
        <time>2022-07-13T04:47:26Z</time>
      </trkpt>
      <trkpt lat="47.130760001018643" lon="-0.151359988376498">
        <ele>51</ele>
        <time>2022-07-13T04:47:28Z</time>
      </trkpt>
      <trkpt lat="47.130739968270063" lon="-0.151410028338432">
        <ele>52</ele>
        <time>2022-07-13T04:47:30Z</time>
      </trkpt>
      <trkpt lat="47.130720019340515" lon="-0.151440035551786">
        <ele>51</ele>
        <time>2022-07-13T04:47:32Z</time>
      </trkpt>
      <trkpt lat="47.130690012127161" lon="-0.151480017229915">
        <ele>51</ele>
        <time>2022-07-13T04:47:35Z</time>
      </trkpt>
      <trkpt lat="47.130669979378581" lon="-0.151510024443269">
        <ele>51</ele>
        <time>2022-07-13T04:47:37Z</time>
      </trkpt>
      <trkpt lat="47.130650030449033" lon="-0.151540031656623">
        <ele>50</ele>
        <time>2022-07-13T04:47:39Z</time>
      </trkpt>
      <trkpt lat="47.130620023235679" lon="-0.151570038869977">
        <ele>50</ele>
        <time>2022-07-13T04:47:41Z</time>
      </trkpt>
      <trkpt lat="47.130599990487099" lon="-0.151610020548105">
        <ele>49</ele>
        <time>2022-07-13T04:47:43Z</time>
      </trkpt>
      <trkpt lat="47.13058004155755" lon="-0.151640027761459">
        <ele>49</ele>
        <time>2022-07-13T04:47:45Z</time>
      </trkpt>
      <trkpt lat="47.13056000880897" lon="-0.151670034974813">
        <ele>48</ele>
        <time>2022-07-13T04:47:51Z</time>
      </trkpt>
      <trkpt lat="47.13053997606039" lon="-0.151710016652942">
        <ele>47</ele>
        <time>2022-07-13T04:47:53Z</time>
      </trkpt>
      <trkpt lat="47.130520027130842" lon="-0.15174999833107">
        <ele>47</ele>
        <time>2022-07-13T04:47:56Z</time>
      </trkpt>
      <trkpt lat="47.130490019917488" lon="-0.151780005544424">
        <ele>48</ele>
        <time>2022-07-13T04:47:59Z</time>
      </trkpt>
      <trkpt lat="47.130469987168908" lon="-0.151819987222552">
        <ele>48</ele>
        <time>2022-07-13T04:48:01Z</time>
      </trkpt>
      <trkpt lat="47.13045003823936" lon="-0.151849994435906">
        <ele>48</ele>
        <time>2022-07-13T04:48:03Z</time>
      </trkpt>
      <trkpt lat="47.13043000549078" lon="-0.151889976114035">
        <ele>49</ele>
        <time>2022-07-13T04:48:06Z</time>
      </trkpt>
      <trkpt lat="47.130399998277426" lon="-0.151930041611195">
        <ele>49</ele>
        <time>2022-07-13T04:48:09Z</time>
      </trkpt>
      <trkpt lat="47.130369991064072" lon="-0.151959965005517">
        <ele>49</ele>
        <time>2022-07-13T04:48:11Z</time>
      </trkpt>
      <trkpt lat="47.130339983850718" lon="-0.151989972218871">
        <ele>49</ele>
        <time>2022-07-13T04:48:14Z</time>
      </trkpt>
      <trkpt lat="47.130320034921169" lon="-0.152019979432225">
        <ele>49</ele>
        <time>2022-07-13T04:48:16Z</time>
      </trkpt>
      <trkpt lat="47.130300002172589" lon="-0.152059961110353">
        <ele>49</ele>
        <time>2022-07-13T04:48:18Z</time>
      </trkpt>
      <trkpt lat="47.130279969424009" lon="-0.152089968323708">
        <ele>49</ele>
        <time>2022-07-13T04:48:20Z</time>
      </trkpt>
      <trkpt lat="47.130260020494461" lon="-0.152130033820868">
        <ele>50</ele>
        <time>2022-07-13T04:48:22Z</time>
      </trkpt>
      <trkpt lat="47.130230013281107" lon="-0.152160041034222">
        <ele>50</ele>
        <time>2022-07-13T04:48:25Z</time>
      </trkpt>
      <trkpt lat="47.130209980532527" lon="-0.15220002271235">
        <ele>50</ele>
        <time>2022-07-13T04:48:27Z</time>
      </trkpt>
      <trkpt lat="47.130200006067753" lon="-0.152240004390478">
        <ele>50</ele>
        <time>2022-07-13T04:48:29Z</time>
      </trkpt>
      <trkpt lat="47.130179973319173" lon="-0.152279986068606">
        <ele>50</ele>
        <time>2022-07-13T04:48:31Z</time>
      </trkpt>
      <trkpt lat="47.130149966105819" lon="-0.15230999328196">
        <ele>50</ele>
        <time>2022-07-13T04:48:33Z</time>
      </trkpt>
      <trkpt lat="47.13013001717627" lon="-0.152349974960089">
        <ele>50</ele>
        <time>2022-07-13T04:48:35Z</time>
      </trkpt>
      <trkpt lat="47.130119958892465" lon="-0.152390040457249">
        <ele>49</ele>
        <time>2022-07-13T04:48:37Z</time>
      </trkpt>
      <trkpt lat="47.130100009962916" lon="-0.152419963851571">
        <ele>49</ele>
        <time>2022-07-13T04:48:39Z</time>
      </trkpt>
      <trkpt lat="47.130079977214336" lon="-0.152460029348731">
        <ele>49</ele>
        <time>2022-07-13T04:48:41Z</time>
      </trkpt>
      <trkpt lat="47.130060028284788" lon="-0.152500011026859">
        <ele>49</ele>
        <time>2022-07-13T04:48:44Z</time>
      </trkpt>
      <trkpt lat="47.130039995536208" lon="-0.152530018240213">
        <ele>50</ele>
        <time>2022-07-13T04:48:46Z</time>
      </trkpt>
      <trkpt lat="47.130009988322854" lon="-0.152560025453568">
        <ele>50</ele>
        <time>2022-07-13T04:48:48Z</time>
      </trkpt>
      <trkpt lat="47.129990039393306" lon="-0.152590032666922">
        <ele>50</ele>
        <time>2022-07-13T04:48:50Z</time>
      </trkpt>
      <trkpt lat="47.1299799811095" lon="-0.152639988809824">
        <ele>51</ele>
        <time>2022-07-13T04:48:53Z</time>
      </trkpt>
      <trkpt lat="47.1299799811095" lon="-0.152690028771758">
        <ele>50</ele>
        <time>2022-07-13T04:48:56Z</time>
      </trkpt>
      <trkpt lat="47.13000001385808" lon="-0.152720035985112">
        <ele>51</ele>
        <time>2022-07-13T04:48:58Z</time>
      </trkpt>
      <trkpt lat="47.130019962787628" lon="-0.152749959379435">
        <ele>52</ele>
        <time>2022-07-13T04:49:00Z</time>
      </trkpt>
      <trkpt lat="47.130049970000982" lon="-0.152769992128015">
        <ele>52</ele>
        <time>2022-07-13T04:49:02Z</time>
      </trkpt>
      <trkpt lat="47.130079977214336" lon="-0.152799999341369">
        <ele>52</ele>
        <time>2022-07-13T04:49:04Z</time>
      </trkpt>
      <trkpt lat="47.130100009962916" lon="-0.152820032089949">
        <ele>53</ele>
        <time>2022-07-13T04:49:06Z</time>
      </trkpt>
      <trkpt lat="47.130100009962916" lon="-0.152850039303303">
        <ele>53</ele>
        <time>2022-07-13T04:49:10Z</time>
      </trkpt>
      <trkpt lat="47.130079977214336" lon="-0.152879962697625">
        <ele>52</ele>
        <time>2022-07-13T04:49:13Z</time>
      </trkpt>
      <trkpt lat="47.130049970000982" lon="-0.152890020981431">
        <ele>53</ele>
        <time>2022-07-13T04:49:15Z</time>
      </trkpt>
      <trkpt lat="47.130030021071434" lon="-0.152890020981431">
        <ele>53</ele>
        <time>2022-07-13T04:49:17Z</time>
      </trkpt>
      <trkpt lat="47.13000001385808" lon="-0.152890020981431">
        <ele>52</ele>
        <time>2022-07-13T04:49:19Z</time>
      </trkpt>
      <trkpt lat="47.129970006644726" lon="-0.152909969910979">
        <ele>52</ele>
        <time>2022-07-13T04:49:22Z</time>
      </trkpt>
      <trkpt lat="47.129949973896146" lon="-0.152939977124333">
        <ele>52</ele>
        <time>2022-07-13T04:49:24Z</time>
      </trkpt>
      <trkpt lat="47.129930024966598" lon="-0.152969984337687">
        <ele>52</ele>
        <time>2022-07-13T04:49:26Z</time>
      </trkpt>
      <trkpt lat="47.129909992218018" lon="-0.153009966015816">
        <ele>52</ele>
        <time>2022-07-13T04:49:28Z</time>
      </trkpt>
      <trkpt lat="47.129900017753243" lon="-0.15306000597775">
        <ele>53</ele>
        <time>2022-07-13T04:49:31Z</time>
      </trkpt>
      <trkpt lat="47.129900017753243" lon="-0.153109962120652">
        <ele>53</ele>
        <time>2022-07-13T04:49:33Z</time>
      </trkpt>
      <trkpt lat="47.129889959469438" lon="-0.153150027617812">
        <ele>53</ele>
        <time>2022-07-13T04:49:35Z</time>
      </trkpt>
      <trkpt lat="47.129879985004663" lon="-0.15319000929594">
        <ele>53</ele>
        <time>2022-07-13T04:49:37Z</time>
      </trkpt>
      <trkpt lat="47.129860036075115" lon="-0.153229990974069">
        <ele>53</ele>
        <time>2022-07-13T04:49:39Z</time>
      </trkpt>
      <trkpt lat="47.129849977791309" lon="-0.153269972652197">
        <ele>52</ele>
        <time>2022-07-13T04:49:41Z</time>
      </trkpt>
      <trkpt lat="47.129849977791309" lon="-0.153320012614131">
        <ele>53</ele>
        <time>2022-07-13T04:49:44Z</time>
      </trkpt>
      <trkpt lat="47.129840003326535" lon="-0.153369968757033">
        <ele>53</ele>
        <time>2022-07-13T04:49:47Z</time>
      </trkpt>
      <trkpt lat="47.129840003326535" lon="-0.153410034254193">
        <ele>53</ele>
        <time>2022-07-13T04:49:50Z</time>
      </trkpt>
      <trkpt lat="47.129840003326535" lon="-0.153450015932322">
        <ele>54</ele>
        <time>2022-07-13T04:49:52Z</time>
      </trkpt>
      <trkpt lat="47.129819970577955" lon="-0.15348999761045">
        <ele>55</ele>
        <time>2022-07-13T04:49:54Z</time>
      </trkpt>
      <trkpt lat="47.129800021648407" lon="-0.153529979288578">
        <ele>55</ele>
        <time>2022-07-13T04:49:56Z</time>
      </trkpt>
      <trkpt lat="47.129779988899827" lon="-0.153580019250512">
        <ele>55</ele>
        <time>2022-07-13T04:49:59Z</time>
      </trkpt>
      <trkpt lat="47.129749981686473" lon="-0.153610026463866">
        <ele>55</ele>
        <time>2022-07-13T04:50:02Z</time>
      </trkpt>
      <trkpt lat="47.129730032756925" lon="-0.15364003367722">
        <ele>54</ele>
        <time>2022-07-13T04:50:05Z</time>
      </trkpt>
      <trkpt lat="47.129700025543571" lon="-0.153680015355349">
        <ele>54</ele>
        <time>2022-07-13T04:50:08Z</time>
      </trkpt>
      <trkpt lat="47.129670018330216" lon="-0.153710022568703">
        <ele>53</ele>
        <time>2022-07-13T04:50:10Z</time>
      </trkpt>
      <trkpt lat="47.129649985581636" lon="-0.153740029782057">
        <ele>53</ele>
        <time>2022-07-13T04:50:12Z</time>
      </trkpt>
      <trkpt lat="47.129619978368282" lon="-0.153759978711605">
        <ele>53</ele>
        <time>2022-07-13T04:50:15Z</time>
      </trkpt>
      <trkpt lat="47.129579996690154" lon="-0.153770036995411">
        <ele>53</ele>
        <time>2022-07-13T04:50:18Z</time>
      </trkpt>
      <trkpt lat="47.1295499894768" lon="-0.153789985924959">
        <ele>53</ele>
        <time>2022-07-13T04:50:27Z</time>
      </trkpt>
      <trkpt lat="47.129519982263446" lon="-0.153819993138313">
        <ele>53</ele>
        <time>2022-07-13T04:50:30Z</time>
      </trkpt>
      <trkpt lat="47.129489975050092" lon="-0.153859974816442">
        <ele>54</ele>
        <time>2022-07-13T04:50:33Z</time>
      </trkpt>
      <trkpt lat="47.129480000585318" lon="-0.153910014778376">
        <ele>53</ele>
        <time>2022-07-13T04:50:36Z</time>
      </trkpt>
      <trkpt lat="47.129470026120543" lon="-0.153959970921278">
        <ele>52</ele>
        <time>2022-07-13T04:50:39Z</time>
      </trkpt>
      <trkpt lat="47.129449993371964" lon="-0.154010010883212">
        <ele>52</ele>
        <time>2022-07-13T04:50:42Z</time>
      </trkpt>
      <trkpt lat="47.129429960623384" lon="-0.15404999256134">
        <ele>52</ele>
        <time>2022-07-13T04:50:44Z</time>
      </trkpt>
      <trkpt lat="47.129419986158609" lon="-0.154089974239469">
        <ele>52</ele>
        <time>2022-07-13T04:50:47Z</time>
      </trkpt>
      <trkpt lat="47.129400037229061" lon="-0.154130039736629">
        <ele>52</ele>
        <time>2022-07-13T04:50:52Z</time>
      </trkpt>
      <trkpt lat="47.129380004480481" lon="-0.154140014201403">
        <ele>52</ele>
        <time>2022-07-13T04:50:54Z</time>
      </trkpt>
      <trkpt lat="47.129349997267127" lon="-0.154140014201403">
        <ele>52</ele>
        <time>2022-07-13T04:50:56Z</time>
      </trkpt>
      <trkpt lat="47.129319990053773" lon="-0.154159963130951">
        <ele>53</ele>
        <time>2022-07-13T04:50:58Z</time>
      </trkpt>
      <trkpt lat="47.129300041124225" lon="-0.154189970344305">
        <ele>53</ele>
        <time>2022-07-13T04:51:00Z</time>
      </trkpt>
      <trkpt lat="47.129270033910871" lon="-0.154219977557659">
        <ele>53</ele>
        <time>2022-07-13T04:51:02Z</time>
      </trkpt>
      <trkpt lat="47.129250001162291" lon="-0.154249984771013">
        <ele>53</ele>
        <time>2022-07-13T04:51:04Z</time>
      </trkpt>
      <trkpt lat="47.129219993948936" lon="-0.154279991984367">
        <ele>53</ele>
        <time>2022-07-13T04:51:06Z</time>
      </trkpt>
      <trkpt lat="47.129199961200356" lon="-0.154309999197721">
        <ele>53</ele>
        <time>2022-07-13T04:51:08Z</time>
      </trkpt>
      <trkpt lat="47.129180012270808" lon="-0.154340006411076">
        <ele>52</ele>
        <time>2022-07-13T04:51:10Z</time>
      </trkpt>
      <trkpt lat="47.129150005057454" lon="-0.15437001362443">
        <ele>52</ele>
        <time>2022-07-13T04:51:13Z</time>
      </trkpt>
      <trkpt lat="47.1291199978441" lon="-0.154409995302558">
        <ele>52</ele>
        <time>2022-07-13T04:51:15Z</time>
      </trkpt>
      <trkpt lat="47.12909996509552" lon="-0.154440002515912">
        <ele>52</ele>
        <time>2022-07-13T04:51:17Z</time>
      </trkpt>
      <trkpt lat="47.129080016165972" lon="-0.154470009729266">
        <ele>52</ele>
        <time>2022-07-13T04:51:19Z</time>
      </trkpt>
      <trkpt lat="47.129059983417392" lon="-0.15450001694262">
        <ele>52</ele>
        <time>2022-07-13T04:51:22Z</time>
      </trkpt>
      <trkpt lat="47.129040034487844" lon="-0.154530024155974">
        <ele>52</ele>
        <time>2022-07-13T04:51:24Z</time>
      </trkpt>
      <trkpt lat="47.129010027274489" lon="-0.154560031369329">
        <ele>52</ele>
        <time>2022-07-13T04:51:26Z</time>
      </trkpt>
      <trkpt lat="47.128989994525909" lon="-0.154590038582683">
        <ele>52</ele>
        <time>2022-07-13T04:51:28Z</time>
      </trkpt>
      <trkpt lat="47.128969961777329" lon="-0.154609987512231">
        <ele>52</ele>
        <time>2022-07-13T04:51:30Z</time>
      </trkpt>
      <trkpt lat="47.128950012847781" lon="-0.154639994725585">
        <ele>53</ele>
        <time>2022-07-13T04:51:32Z</time>
      </trkpt>
      <trkpt lat="47.128920005634427" lon="-0.154670001938939">
        <ele>52</ele>
        <time>2022-07-13T04:51:34Z</time>
      </trkpt>
      <trkpt lat="47.128899972885847" lon="-0.154700009152293">
        <ele>52</ele>
        <time>2022-07-13T04:51:36Z</time>
      </trkpt>
      <trkpt lat="47.128869965672493" lon="-0.154730016365647">
        <ele>51</ele>
        <time>2022-07-13T04:51:39Z</time>
      </trkpt>
      <trkpt lat="47.128839958459139" lon="-0.154749965295196">
        <ele>50</ele>
        <time>2022-07-13T04:51:41Z</time>
      </trkpt>
      <trkpt lat="47.128820009529591" lon="-0.15477997250855">
        <ele>50</ele>
        <time>2022-07-13T04:51:43Z</time>
      </trkpt>
      <trkpt lat="47.128799976781011" lon="-0.15480000525713">
        <ele>50</ele>
        <time>2022-07-13T04:51:46Z</time>
      </trkpt>
      <trkpt lat="47.128780027851462" lon="-0.154790030792356">
        <ele>52</ele>
        <time>2022-07-13T04:51:57Z</time>
      </trkpt>
      <trkpt lat="47.128769969567657" lon="-0.154760023579001">
        <ele>53</ele>
        <time>2022-07-13T04:52:00Z</time>
      </trkpt>
      <trkpt lat="47.128769969567657" lon="-0.154709983617067">
        <ele>55</ele>
        <time>2022-07-13T04:52:06Z</time>
      </trkpt>
      <trkpt lat="47.128759995102882" lon="-0.154670001938939">
        <ele>56</ele>
        <time>2022-07-13T04:52:08Z</time>
      </trkpt>
      <trkpt lat="47.128750020638108" lon="-0.154619961977005">
        <ele>56</ele>
        <time>2022-07-13T04:52:11Z</time>
      </trkpt>
      <trkpt lat="47.128739962354302" lon="-0.154590038582683">
        <ele>55</ele>
        <time>2022-07-13T04:52:21Z</time>
      </trkpt>
      <trkpt lat="47.128720013424754" lon="-0.154590038582683">
        <ele>55</ele>
        <time>2022-07-13T04:52:46Z</time>
      </trkpt>
      <trkpt lat="47.128699980676174" lon="-0.154609987512231">
        <ele>56</ele>
        <time>2022-07-13T04:52:50Z</time>
      </trkpt>
      <trkpt lat="47.12866997346282" lon="-0.154619961977005">
        <ele>57</ele>
        <time>2022-07-13T04:53:09Z</time>
      </trkpt>
      <trkpt lat="47.128650024533272" lon="-0.154639994725585">
        <ele>56</ele>
        <time>2022-07-13T04:53:25Z</time>
      </trkpt>
      <trkpt lat="47.128629991784692" lon="-0.154679976403713">
        <ele>55</ele>
        <time>2022-07-13T04:53:28Z</time>
      </trkpt>
      <trkpt lat="47.128629991784692" lon="-0.154720041900873">
        <ele>56</ele>
        <time>2022-07-13T04:53:32Z</time>
      </trkpt>
      <trkpt lat="47.128599984571338" lon="-0.154739990830421">
        <ele>56</ele>
        <time>2022-07-13T04:53:45Z</time>
      </trkpt>
      <trkpt lat="47.128569977357984" lon="-0.154739990830421">
        <ele>56</ele>
        <time>2022-07-13T04:53:47Z</time>
      </trkpt>
      <trkpt lat="47.128539970144629" lon="-0.154749965295196">
        <ele>57</ele>
        <time>2022-07-13T04:53:49Z</time>
      </trkpt>
      <trkpt lat="47.128509962931275" lon="-0.154769998043776">
        <ele>57</ele>
        <time>2022-07-13T04:53:52Z</time>
      </trkpt>
      <trkpt lat="47.128480039536953" lon="-0.154790030792356">
        <ele>57</ele>
        <time>2022-07-13T04:53:54Z</time>
      </trkpt>
      <trkpt lat="47.128450032323599" lon="-0.154809979721904">
        <ele>57</ele>
        <time>2022-07-13T04:53:56Z</time>
      </trkpt>
      <trkpt lat="47.128429999575019" lon="-0.154830012470484">
        <ele>56</ele>
        <time>2022-07-13T04:53:58Z</time>
      </trkpt>
      <trkpt lat="47.128390017896891" lon="-0.154830012470484">
        <ele>56</ele>
        <time>2022-07-13T04:54:00Z</time>
      </trkpt>
      <trkpt lat="47.128360010683537" lon="-0.154849961400032">
        <ele>55</ele>
        <time>2022-07-13T04:54:02Z</time>
      </trkpt>
      <trkpt lat="47.128330003470182" lon="-0.154849961400032">
        <ele>55</ele>
        <time>2022-07-13T04:54:04Z</time>
      </trkpt>
      <trkpt lat="47.128309970721602" lon="-0.15482003800571">
        <ele>56</ele>
        <time>2022-07-13T04:54:07Z</time>
      </trkpt>
      <trkpt lat="47.128299996256828" lon="-0.15477997250855">
        <ele>56</ele>
        <time>2022-07-13T04:54:10Z</time>
      </trkpt>
      <trkpt lat="47.128290021792054" lon="-0.154739990830421">
        <ele>57</ele>
        <time>2022-07-13T04:54:13Z</time>
      </trkpt>
      <trkpt lat="47.128269989043474" lon="-0.154709983617067">
        <ele>57</ele>
        <time>2022-07-13T04:54:15Z</time>
      </trkpt>
      <trkpt lat="47.128250040113926" lon="-0.154690034687519">
        <ele>56</ele>
        <time>2022-07-13T04:54:17Z</time>
      </trkpt>
      <trkpt lat="47.128230007365346" lon="-0.154709983617067">
        <ele>56</ele>
        <time>2022-07-13T04:54:19Z</time>
      </trkpt>
      <trkpt lat="47.128220032900572" lon="-0.154749965295196">
        <ele>56</ele>
        <time>2022-07-13T04:54:22Z</time>
      </trkpt>
      <trkpt lat="47.12823998183012" lon="-0.154790030792356">
        <ele>57</ele>
        <time>2022-07-13T04:54:24Z</time>
      </trkpt>
      <trkpt lat="47.1282600145787" lon="-0.154839986935258">
        <ele>58</ele>
        <time>2022-07-13T04:54:27Z</time>
      </trkpt>
      <trkpt lat="47.128269989043474" lon="-0.154890026897192">
        <ele>59</ele>
        <time>2022-07-13T04:54:30Z</time>
      </trkpt>
      <trkpt lat="47.128279963508248" lon="-0.154939983040094">
        <ele>60</ele>
        <time>2022-07-13T04:54:33Z</time>
      </trkpt>
      <trkpt lat="47.128290021792054" lon="-0.154990023002028">
        <ele>61</ele>
        <time>2022-07-13T04:54:35Z</time>
      </trkpt>
      <trkpt lat="47.128299996256828" lon="-0.155030004680157">
        <ele>63</ele>
        <time>2022-07-13T04:54:49Z</time>
      </trkpt>
      <trkpt lat="47.128309970721602" lon="-0.155079960823059">
        <ele>62</ele>
        <time>2022-07-13T04:54:52Z</time>
      </trkpt>
      <trkpt lat="47.128320029005408" lon="-0.155130000784993">
        <ele>62</ele>
        <time>2022-07-13T04:54:55Z</time>
      </trkpt>
      <trkpt lat="47.128330003470182" lon="-0.155180040746927">
        <ele>62</ele>
        <time>2022-07-13T04:54:57Z</time>
      </trkpt>
      <trkpt lat="47.128339977934957" lon="-0.15522999688983">
        <ele>62</ele>
        <time>2022-07-13T04:55:00Z</time>
      </trkpt>
      <trkpt lat="47.128350036218762" lon="-0.155280036851764">
        <ele>61</ele>
        <time>2022-07-13T04:55:02Z</time>
      </trkpt>
      <trkpt lat="47.128369985148311" lon="-0.155320018529892">
        <ele>61</ele>
        <time>2022-07-13T04:55:05Z</time>
      </trkpt>
      <trkpt lat="47.128390017896891" lon="-0.155350025743246">
        <ele>61</ele>
        <time>2022-07-13T04:55:07Z</time>
      </trkpt>
      <trkpt lat="47.128409966826439" lon="-0.1553800329566">
        <ele>61</ele>
        <time>2022-07-13T04:55:09Z</time>
      </trkpt>
      <trkpt lat="47.128439974039793" lon="-0.155420014634728">
        <ele>61</ele>
        <time>2022-07-13T04:55:12Z</time>
      </trkpt>
      <trkpt lat="47.128460006788373" lon="-0.155450021848083">
        <ele>61</ele>
        <time>2022-07-13T04:55:14Z</time>
      </trkpt>
      <trkpt lat="47.128480039536953" lon="-0.155490003526211">
        <ele>62</ele>
        <time>2022-07-13T04:55:16Z</time>
      </trkpt>
      <trkpt lat="47.128490014001727" lon="-0.155529985204339">
        <ele>62</ele>
        <time>2022-07-13T04:55:19Z</time>
      </trkpt>
      <trkpt lat="47.128509962931275" lon="-0.155569966882467">
        <ele>62</ele>
        <time>2022-07-13T04:55:22Z</time>
      </trkpt>
      <trkpt lat="47.128529995679855" lon="-0.155610032379627">
        <ele>63</ele>
        <time>2022-07-13T04:55:24Z</time>
      </trkpt>
      <trkpt lat="47.128560002893209" lon="-0.155650014057755">
        <ele>63</ele>
        <time>2022-07-13T04:55:27Z</time>
      </trkpt>
      <trkpt lat="47.128569977357984" lon="-0.155689995735884">
        <ele>64</ele>
        <time>2022-07-13T04:55:29Z</time>
      </trkpt>
      <trkpt lat="47.128599984571338" lon="-0.155729977414012">
        <ele>64</ele>
        <time>2022-07-13T04:55:32Z</time>
      </trkpt>
      <trkpt lat="47.128620017319918" lon="-0.155759984627366">
        <ele>65</ele>
        <time>2022-07-13T04:55:34Z</time>
      </trkpt>
      <trkpt lat="47.128639966249466" lon="-0.155799966305494">
        <ele>66</ele>
        <time>2022-07-13T04:55:37Z</time>
      </trkpt>
      <trkpt lat="47.128659998998046" lon="-0.155840031802654">
        <ele>66</ele>
        <time>2022-07-13T04:55:39Z</time>
      </trkpt>
      <trkpt lat="47.128680031746626" lon="-0.155870039016008">
        <ele>67</ele>
        <time>2022-07-13T04:55:41Z</time>
      </trkpt>
      <trkpt lat="47.128699980676174" lon="-0.155910020694137">
        <ele>68</ele>
        <time>2022-07-13T04:55:43Z</time>
      </trkpt>
      <trkpt lat="47.128720013424754" lon="-0.155950002372265">
        <ele>68</ele>
        <time>2022-07-13T04:55:45Z</time>
      </trkpt>
      <trkpt lat="47.128739962354302" lon="-0.155989984050393">
        <ele>68</ele>
        <time>2022-07-13T04:55:47Z</time>
      </trkpt>
      <trkpt lat="47.128769969567657" lon="-0.156029965728521">
        <ele>66</ele>
        <time>2022-07-13T04:55:50Z</time>
      </trkpt>
      <trkpt lat="47.128790002316236" lon="-0.156059972941875">
        <ele>66</ele>
        <time>2022-07-13T04:55:52Z</time>
      </trkpt>
      <trkpt lat="47.128820009529591" lon="-0.15608998015523">
        <ele>66</ele>
        <time>2022-07-13T04:55:54Z</time>
      </trkpt>
      <trkpt lat="47.128850016742945" lon="-0.156129961833358">
        <ele>66</ele>
        <time>2022-07-13T04:55:56Z</time>
      </trkpt>
      <trkpt lat="47.128869965672493" lon="-0.156170027330518">
        <ele>66</ele>
        <time>2022-07-13T04:55:58Z</time>
      </trkpt>
      <trkpt lat="47.128889998421073" lon="-0.156210009008646">
        <ele>67</ele>
        <time>2022-07-13T04:56:00Z</time>
      </trkpt>
      <trkpt lat="47.128910031169653" lon="-0.156249990686774">
        <ele>67</ele>
        <time>2022-07-13T04:56:02Z</time>
      </trkpt>
      <trkpt lat="47.128920005634427" lon="-0.156289972364903">
        <ele>68</ele>
        <time>2022-07-13T04:56:04Z</time>
      </trkpt>
      <trkpt lat="47.128940038383007" lon="-0.156340012326837">
        <ele>69</ele>
        <time>2022-07-13T04:56:06Z</time>
      </trkpt>
      <trkpt lat="47.128950012847781" lon="-0.156389968469739">
        <ele>68</ele>
        <time>2022-07-13T04:56:08Z</time>
      </trkpt>
      <trkpt lat="47.128940038383007" lon="-0.156430033966899">
        <ele>67</ele>
        <time>2022-07-13T04:56:11Z</time>
      </trkpt>
      <trkpt lat="47.128920005634427" lon="-0.156449982896447">
        <ele>65</ele>
        <time>2022-07-13T04:56:20Z</time>
      </trkpt>
      <trkpt lat="47.128929980099201" lon="-0.156470015645027">
        <ele>63</ele>
        <time>2022-07-13T04:56:34Z</time>
      </trkpt>
      <trkpt lat="47.128950012847781" lon="-0.156479990109801">
        <ele>62</ele>
        <time>2022-07-13T04:56:38Z</time>
      </trkpt>
      <trkpt lat="47.128980020061135" lon="-0.156479990109801">
        <ele>61</ele>
        <time>2022-07-13T04:56:41Z</time>
      </trkpt>
      <trkpt lat="47.129010027274489" lon="-0.156489964574575">
        <ele>60</ele>
        <time>2022-07-13T04:56:44Z</time>
      </trkpt>
      <trkpt lat="47.129040034487844" lon="-0.156500022858381">
        <ele>61</ele>
        <time>2022-07-13T04:56:46Z</time>
      </trkpt>
      <trkpt lat="47.129070041701198" lon="-0.156500022858381">
        <ele>60</ele>
        <time>2022-07-13T04:56:49Z</time>
      </trkpt>
      <trkpt lat="47.12909996509552" lon="-0.156489964574575">
        <ele>58</ele>
        <time>2022-07-13T04:57:00Z</time>
      </trkpt>
      <trkpt lat="47.12909996509552" lon="-0.156470015645027">
        <ele>54</ele>
        <time>2022-07-13T04:57:30Z</time>
      </trkpt>
      <trkpt lat="47.12909996509552" lon="-0.156440008431673">
        <ele>52</ele>
        <time>2022-07-13T04:57:34Z</time>
      </trkpt>
      <trkpt lat="47.129110023379326" lon="-0.156400026753545">
        <ele>51</ele>
        <time>2022-07-13T04:57:37Z</time>
      </trkpt>
      <trkpt lat="47.1291199978441" lon="-0.156370019540191">
        <ele>50</ele>
        <time>2022-07-13T04:57:39Z</time>
      </trkpt>
      <trkpt lat="47.12914003059268" lon="-0.156340012326837">
        <ele>50</ele>
        <time>2022-07-13T04:57:42Z</time>
      </trkpt>
      <trkpt lat="47.129129972308874" lon="-0.156340012326837">
        <ele>51</ele>
        <time>2022-07-13T04:58:01Z</time>
      </trkpt>
      <trkpt lat="47.129110023379326" lon="-0.156349986791611">
        <ele>51</ele>
        <time>2022-07-13T04:58:03Z</time>
      </trkpt>
      <trkpt lat="47.129080016165972" lon="-0.156340012326837">
        <ele>51</ele>
        <time>2022-07-13T04:58:06Z</time>
      </trkpt>
      <trkpt lat="47.129070041701198" lon="-0.156300030648708">
        <ele>51</ele>
        <time>2022-07-13T04:58:09Z</time>
      </trkpt>
      <trkpt lat="47.129059983417392" lon="-0.156259965151548">
        <ele>51</ele>
        <time>2022-07-13T04:58:11Z</time>
      </trkpt>
      <trkpt lat="47.129050008952618" lon="-0.15621998347342">
        <ele>51</ele>
        <time>2022-07-13T04:58:15Z</time>
      </trkpt>
      <trkpt lat="47.129029976204038" lon="-0.156180001795292">
        <ele>51</ele>
        <time>2022-07-13T04:58:17Z</time>
      </trkpt>
      <trkpt lat="47.129020001739264" lon="-0.156140020117164">
        <ele>51</ele>
        <time>2022-07-13T04:58:19Z</time>
      </trkpt>
      <trkpt lat="47.128999968990684" lon="-0.156100038439035">
        <ele>51</ele>
        <time>2022-07-13T04:58:21Z</time>
      </trkpt>
      <trkpt lat="47.128980020061135" lon="-0.156059972941875">
        <ele>51</ele>
        <time>2022-07-13T04:58:24Z</time>
      </trkpt>
      <trkpt lat="47.128980020061135" lon="-0.156019991263747">
        <ele>51</ele>
        <time>2022-07-13T04:58:28Z</time>
      </trkpt>
      <trkpt lat="47.128980020061135" lon="-0.155980009585619">
        <ele>52</ele>
        <time>2022-07-13T04:58:31Z</time>
      </trkpt>
      <trkpt lat="47.128989994525909" lon="-0.155929969623685">
        <ele>52</ele>
        <time>2022-07-13T04:58:35Z</time>
      </trkpt>
      <trkpt lat="47.129020001739264" lon="-0.155899962410331">
        <ele>51</ele>
        <time>2022-07-13T04:58:38Z</time>
      </trkpt>
      <trkpt lat="47.129050008952618" lon="-0.155880013480783">
        <ele>51</ele>
        <time>2022-07-13T04:58:41Z</time>
      </trkpt>
      <trkpt lat="47.129089990630746" lon="-0.155859980732203">
        <ele>51</ele>
        <time>2022-07-13T04:58:44Z</time>
      </trkpt>
      <trkpt lat="47.1291199978441" lon="-0.155859980732203">
        <ele>51</ele>
        <time>2022-07-13T04:58:47Z</time>
      </trkpt>
      <trkpt lat="47.129150005057454" lon="-0.155889987945557">
        <ele>52</ele>
        <time>2022-07-13T04:58:50Z</time>
      </trkpt>
      <trkpt lat="47.129180012270808" lon="-0.155929969623685">
        <ele>53</ele>
        <time>2022-07-13T04:58:53Z</time>
      </trkpt>
      <trkpt lat="47.129189986735582" lon="-0.155970035120845">
        <ele>54</ele>
        <time>2022-07-13T04:58:55Z</time>
      </trkpt>
      <trkpt lat="47.129199961200356" lon="-0.156010016798973">
        <ele>54</ele>
        <time>2022-07-13T04:58:57Z</time>
      </trkpt>
      <trkpt lat="47.129210019484162" lon="-0.156059972941875">
        <ele>55</ele>
        <time>2022-07-13T04:59:00Z</time>
      </trkpt>
      <trkpt lat="47.129199961200356" lon="-0.156100038439035">
        <ele>54</ele>
        <time>2022-07-13T04:59:06Z</time>
      </trkpt>
      <trkpt lat="47.129210019484162" lon="-0.156149994581938">
        <ele>54</ele>
        <time>2022-07-13T04:59:09Z</time>
      </trkpt>
      <trkpt lat="47.129210019484162" lon="-0.156200034543872">
        <ele>54</ele>
        <time>2022-07-13T04:59:12Z</time>
      </trkpt>
      <trkpt lat="47.129199961200356" lon="-0.156240016222">
        <ele>54</ele>
        <time>2022-07-13T04:59:15Z</time>
      </trkpt>
      <trkpt lat="47.129199961200356" lon="-0.156289972364903">
        <ele>54</ele>
        <time>2022-07-13T04:59:18Z</time>
      </trkpt>
      <trkpt lat="47.129199961200356" lon="-0.156340012326837">
        <ele>54</ele>
        <time>2022-07-13T04:59:22Z</time>
      </trkpt>
      <trkpt lat="47.129180012270808" lon="-0.156370019540191">
        <ele>54</ele>
        <time>2022-07-13T04:59:24Z</time>
      </trkpt>
      <trkpt lat="47.12914003059268" lon="-0.156400026753545">
        <ele>53</ele>
        <time>2022-07-13T04:59:26Z</time>
      </trkpt>
      <trkpt lat="47.129110023379326" lon="-0.156440008431673">
        <ele>52</ele>
        <time>2022-07-13T04:59:28Z</time>
      </trkpt>
      <trkpt lat="47.129080016165972" lon="-0.156479990109801">
        <ele>52</ele>
        <time>2022-07-13T04:59:31Z</time>
      </trkpt>
      <trkpt lat="47.129050008952618" lon="-0.15651997178793">
        <ele>51</ele>
        <time>2022-07-13T04:59:35Z</time>
      </trkpt>
      <trkpt lat="47.129020001739264" lon="-0.156549979001284">
        <ele>52</ele>
        <time>2022-07-13T04:59:37Z</time>
      </trkpt>
      <trkpt lat="47.128999968990684" lon="-0.156579986214638">
        <ele>52</ele>
        <time>2022-07-13T04:59:39Z</time>
      </trkpt>
      <trkpt lat="47.128980020061135" lon="-0.156609993427992">
        <ele>52</ele>
        <time>2022-07-13T04:59:42Z</time>
      </trkpt>
      <trkpt lat="47.128950012847781" lon="-0.156640000641346">
        <ele>53</ele>
        <time>2022-07-13T04:59:44Z</time>
      </trkpt>
      <trkpt lat="47.128929980099201" lon="-0.1566700078547">
        <ele>54</ele>
        <time>2022-07-13T04:59:46Z</time>
      </trkpt>
      <trkpt lat="47.128910031169653" lon="-0.156709989532828">
        <ele>55</ele>
        <time>2022-07-13T04:59:48Z</time>
      </trkpt>
      <trkpt lat="47.128880023956299" lon="-0.156739996746182">
        <ele>56</ele>
        <time>2022-07-13T04:59:50Z</time>
      </trkpt>
      <trkpt lat="47.128859991207719" lon="-0.156779978424311">
        <ele>56</ele>
        <time>2022-07-13T04:59:52Z</time>
      </trkpt>
      <trkpt lat="47.128829983994365" lon="-0.156809985637665">
        <ele>57</ele>
        <time>2022-07-13T04:59:54Z</time>
      </trkpt>
      <trkpt lat="47.128799976781011" lon="-0.156839992851019">
        <ele>57</ele>
        <time>2022-07-13T04:59:56Z</time>
      </trkpt>
      <trkpt lat="47.128780027851462" lon="-0.156870000064373">
        <ele>57</ele>
        <time>2022-07-13T04:59:59Z</time>
      </trkpt>
      <trkpt lat="47.128750020638108" lon="-0.156900007277727">
        <ele>56</ele>
        <time>2022-07-13T05:00:01Z</time>
      </trkpt>
      <trkpt lat="47.128729987889528" lon="-0.156939988955855">
        <ele>56</ele>
        <time>2022-07-13T05:00:03Z</time>
      </trkpt>
      <trkpt lat="47.12871003895998" lon="-0.156960021704435">
        <ele>55</ele>
        <time>2022-07-13T05:00:05Z</time>
      </trkpt>
      <trkpt lat="47.128680031746626" lon="-0.156990028917789">
        <ele>55</ele>
        <time>2022-07-13T05:00:07Z</time>
      </trkpt>
      <trkpt lat="47.128650024533272" lon="-0.157030010595918">
        <ele>56</ele>
        <time>2022-07-13T05:00:09Z</time>
      </trkpt>
      <trkpt lat="47.128620017319918" lon="-0.157069992274046">
        <ele>56</ele>
        <time>2022-07-13T05:00:11Z</time>
      </trkpt>
      <trkpt lat="47.128590010106564" lon="-0.1570999994874">
        <ele>57</ele>
        <time>2022-07-13T05:00:13Z</time>
      </trkpt>
      <trkpt lat="47.128560002893209" lon="-0.15712003223598">
        <ele>57</ele>
        <time>2022-07-13T05:00:15Z</time>
      </trkpt>
      <trkpt lat="47.128539970144629" lon="-0.157139981165528">
        <ele>58</ele>
        <time>2022-07-13T05:00:17Z</time>
      </trkpt>
      <trkpt lat="47.128509962931275" lon="-0.157160013914108">
        <ele>58</ele>
        <time>2022-07-13T05:00:19Z</time>
      </trkpt>
      <trkpt lat="47.128480039536953" lon="-0.157169988378882">
        <ele>58</ele>
        <time>2022-07-13T05:00:21Z</time>
      </trkpt>
      <trkpt lat="47.128450032323599" lon="-0.157190021127462">
        <ele>59</ele>
        <time>2022-07-13T05:00:23Z</time>
      </trkpt>
      <trkpt lat="47.128420025110245" lon="-0.157199995592237">
        <ele>59</ele>
        <time>2022-07-13T05:00:26Z</time>
      </trkpt>
      <trkpt lat="47.128390017896891" lon="-0.157220028340817">
        <ele>59</ele>
        <time>2022-07-13T05:00:29Z</time>
      </trkpt>
      <trkpt lat="47.128360010683537" lon="-0.157220028340817">
        <ele>58</ele>
        <time>2022-07-13T05:00:31Z</time>
      </trkpt>
      <trkpt lat="47.128330003470182" lon="-0.157230002805591">
        <ele>58</ele>
        <time>2022-07-13T05:00:33Z</time>
      </trkpt>
      <trkpt lat="47.128309970721602" lon="-0.157250035554171">
        <ele>57</ele>
        <time>2022-07-13T05:00:36Z</time>
      </trkpt>
      <trkpt lat="47.128279963508248" lon="-0.157279958948493">
        <ele>57</ele>
        <time>2022-07-13T05:00:39Z</time>
      </trkpt>
      <trkpt lat="47.128250040113926" lon="-0.157299991697073">
        <ele>56</ele>
        <time>2022-07-13T05:00:41Z</time>
      </trkpt>
      <trkpt lat="47.128220032900572" lon="-0.157320024445653">
        <ele>56</ele>
        <time>2022-07-13T05:00:43Z</time>
      </trkpt>
      <trkpt lat="47.128190025687218" lon="-0.157339973375201">
        <ele>55</ele>
        <time>2022-07-13T05:00:47Z</time>
      </trkpt>
      <trkpt lat="47.128160018473864" lon="-0.157369980588555">
        <ele>55</ele>
        <time>2022-07-13T05:00:52Z</time>
      </trkpt>
      <trkpt lat="47.128130011260509" lon="-0.157390013337135">
        <ele>55</ele>
        <time>2022-07-13T05:00:54Z</time>
      </trkpt>
      <trkpt lat="47.128100004047155" lon="-0.157409962266684">
        <ele>55</ele>
        <time>2022-07-13T05:00:56Z</time>
      </trkpt>
      <trkpt lat="47.128069996833801" lon="-0.157429995015264">
        <ele>56</ele>
        <time>2022-07-13T05:00:58Z</time>
      </trkpt>
      <trkpt lat="47.128049964085221" lon="-0.157450027763844">
        <ele>56</ele>
        <time>2022-07-13T05:01:00Z</time>
      </trkpt>
      <trkpt lat="47.128020040690899" lon="-0.157460002228618">
        <ele>56</ele>
        <time>2022-07-13T05:01:02Z</time>
      </trkpt>
      <trkpt lat="47.127990033477545" lon="-0.157469976693392">
        <ele>56</ele>
        <time>2022-07-13T05:01:04Z</time>
      </trkpt>
      <trkpt lat="47.127960026264191" lon="-0.157490009441972">
        <ele>55</ele>
        <time>2022-07-13T05:01:07Z</time>
      </trkpt>
      <trkpt lat="47.127930019050837" lon="-0.157499983906746">
        <ele>55</ele>
        <time>2022-07-13T05:01:09Z</time>
      </trkpt>
      <trkpt lat="47.127900011837482" lon="-0.15750995837152">
        <ele>54</ele>
        <time>2022-07-13T05:01:11Z</time>
      </trkpt>
      <trkpt lat="47.127860030159354" lon="-0.157520016655326">
        <ele>53</ele>
        <time>2022-07-13T05:01:13Z</time>
      </trkpt>
      <trkpt lat="47.127819964662194" lon="-0.1575299911201">
        <ele>52</ele>
        <time>2022-07-13T05:01:15Z</time>
      </trkpt>
      <trkpt lat="47.127790041267872" lon="-0.157539965584874">
        <ele>52</ele>
        <time>2022-07-13T05:01:17Z</time>
      </trkpt>
      <trkpt lat="47.127749975770712" lon="-0.157539965584874">
        <ele>53</ele>
        <time>2022-07-13T05:01:19Z</time>
      </trkpt>
      <trkpt lat="47.127719968557358" lon="-0.15755002386868">
        <ele>52</ele>
        <time>2022-07-13T05:01:21Z</time>
      </trkpt>
      <trkpt lat="47.12767998687923" lon="-0.157559998333454">
        <ele>52</ele>
        <time>2022-07-13T05:01:23Z</time>
      </trkpt>
      <trkpt lat="47.127649979665875" lon="-0.157559998333454">
        <ele>52</ele>
        <time>2022-07-13T05:01:25Z</time>
      </trkpt>
      <trkpt lat="47.127619972452521" lon="-0.157569972798228">
        <ele>52</ele>
        <time>2022-07-13T05:01:27Z</time>
      </trkpt>
      <trkpt lat="47.127579990774393" lon="-0.157580031082034">
        <ele>52</ele>
        <time>2022-07-13T05:01:29Z</time>
      </trkpt>
      <trkpt lat="47.127530034631491" lon="-0.157580031082034">
        <ele>52</ele>
        <time>2022-07-13T05:01:31Z</time>
      </trkpt>
      <trkpt lat="47.127470020204782" lon="-0.157569972798228">
        <ele>53</ele>
        <time>2022-07-13T05:01:33Z</time>
      </trkpt>
      <trkpt lat="47.127419980242848" lon="-0.157569972798228">
        <ele>53</ele>
        <time>2022-07-13T05:01:35Z</time>
      </trkpt>
      <trkpt lat="47.12737999856472" lon="-0.157559998333454">
        <ele>54</ele>
        <time>2022-07-13T05:01:37Z</time>
      </trkpt>
      <trkpt lat="47.127340016886592" lon="-0.157539965584874">
        <ele>54</ele>
        <time>2022-07-13T05:01:39Z</time>
      </trkpt>
      <trkpt lat="47.127289976924658" lon="-0.15750995837152">
        <ele>54</ele>
        <time>2022-07-13T05:01:41Z</time>
      </trkpt>
      <trkpt lat="47.127259969711304" lon="-0.157469976693392">
        <ele>54</ele>
        <time>2022-07-13T05:01:43Z</time>
      </trkpt>
      <trkpt lat="47.127219988033175" lon="-0.157439969480038">
        <ele>54</ele>
        <time>2022-07-13T05:01:45Z</time>
      </trkpt>
      <trkpt lat="47.127170031890273" lon="-0.157399987801909">
        <ele>54</ele>
        <time>2022-07-13T05:01:47Z</time>
      </trkpt>
      <trkpt lat="47.127129966393113" lon="-0.157369980588555">
        <ele>53</ele>
        <time>2022-07-13T05:01:49Z</time>
      </trkpt>
      <trkpt lat="47.127089984714985" lon="-0.157329998910427">
        <ele>53</ele>
        <time>2022-07-13T05:01:51Z</time>
      </trkpt>
      <trkpt lat="47.127050003036857" lon="-0.157290017232299">
        <ele>52</ele>
        <time>2022-07-13T05:01:53Z</time>
      </trkpt>
      <trkpt lat="47.127010021358728" lon="-0.157250035554171">
        <ele>52</ele>
        <time>2022-07-13T05:01:55Z</time>
      </trkpt>
      <trkpt lat="47.126980014145374" lon="-0.157220028340817">
        <ele>51</ele>
        <time>2022-07-13T05:01:57Z</time>
      </trkpt>
      <trkpt lat="47.126940032467246" lon="-0.157179962843657">
        <ele>52</ele>
        <time>2022-07-13T05:01:59Z</time>
      </trkpt>
      <trkpt lat="47.126899966970086" lon="-0.157139981165528">
        <ele>51</ele>
        <time>2022-07-13T05:02:01Z</time>
      </trkpt>
      <trkpt lat="47.126859985291958" lon="-0.157109973952174">
        <ele>52</ele>
        <time>2022-07-13T05:02:03Z</time>
      </trkpt>
      <trkpt lat="47.12682000361383" lon="-0.157069992274046">
        <ele>51</ele>
        <time>2022-07-13T05:02:05Z</time>
      </trkpt>
      <trkpt lat="47.126780021935701" lon="-0.157030010595918">
        <ele>51</ele>
        <time>2022-07-13T05:02:07Z</time>
      </trkpt>
      <trkpt lat="47.126750014722347" lon="-0.157000003382564">
        <ele>51</ele>
        <time>2022-07-13T05:02:09Z</time>
      </trkpt>
      <trkpt lat="47.126720007508993" lon="-0.156969996169209">
        <ele>51</ele>
        <time>2022-07-13T05:02:11Z</time>
      </trkpt>
      <trkpt lat="47.126690000295639" lon="-0.15694996342063">
        <ele>50</ele>
        <time>2022-07-13T05:02:13Z</time>
      </trkpt>
      <trkpt lat="47.126659993082285" lon="-0.156939988955855">
        <ele>49</ele>
        <time>2022-07-13T05:02:15Z</time>
      </trkpt>
      <trkpt lat="47.126639960333705" lon="-0.156930014491081">
        <ele>49</ele>
        <time>2022-07-13T05:02:17Z</time>
      </trkpt>
      <trkpt lat="47.126610036939383" lon="-0.156909981742501">
        <ele>49</ele>
        <time>2022-07-13T05:02:19Z</time>
      </trkpt>
      <trkpt lat="47.126580029726028" lon="-0.156900007277727">
        <ele>49</ele>
        <time>2022-07-13T05:02:21Z</time>
      </trkpt>
      <trkpt lat="47.126550022512674" lon="-0.156879974529147">
        <ele>49</ele>
        <time>2022-07-13T05:02:23Z</time>
      </trkpt>
      <trkpt lat="47.12652001529932" lon="-0.156870000064373">
        <ele>49</ele>
        <time>2022-07-13T05:02:25Z</time>
      </trkpt>
      <trkpt lat="47.12649998255074" lon="-0.156860025599599">
        <ele>48</ele>
        <time>2022-07-13T05:02:27Z</time>
      </trkpt>
      <trkpt lat="47.126460000872612" lon="-0.156849967315793">
        <ele>46</ele>
        <time>2022-07-13T05:02:30Z</time>
      </trkpt>
      <trkpt lat="47.126420019194484" lon="-0.156830018386245">
        <ele>45</ele>
        <time>2022-07-13T05:02:32Z</time>
      </trkpt>
      <trkpt lat="47.126380037516356" lon="-0.156819960102439">
        <ele>43</ele>
        <time>2022-07-13T05:02:34Z</time>
      </trkpt>
      <trkpt lat="47.126339972019196" lon="-0.156809985637665">
        <ele>43</ele>
        <time>2022-07-13T05:02:36Z</time>
      </trkpt>
      <trkpt lat="47.126290015876293" lon="-0.156800011172891">
        <ele>43</ele>
        <time>2022-07-13T05:02:38Z</time>
      </trkpt>
      <trkpt lat="47.126250034198165" lon="-0.156800011172891">
        <ele>43</ele>
        <time>2022-07-13T05:02:40Z</time>
      </trkpt>
      <trkpt lat="47.126199994236231" lon="-0.156819960102439">
        <ele>42</ele>
        <time>2022-07-13T05:02:42Z</time>
      </trkpt>
      <trkpt lat="47.126160012558103" lon="-0.156839992851019">
        <ele>41</ele>
        <time>2022-07-13T05:02:44Z</time>
      </trkpt>
      <trkpt lat="47.126109972596169" lon="-0.156860025599599">
        <ele>40</ele>
        <time>2022-07-13T05:02:46Z</time>
      </trkpt>
      <trkpt lat="47.12606999091804" lon="-0.156890032812953">
        <ele>40</ele>
        <time>2022-07-13T05:02:48Z</time>
      </trkpt>
      <trkpt lat="47.126030009239912" lon="-0.156909981742501">
        <ele>39</ele>
        <time>2022-07-13T05:02:50Z</time>
      </trkpt>
      <trkpt lat="47.125979969277978" lon="-0.156939988955855">
        <ele>38</ele>
        <time>2022-07-13T05:02:52Z</time>
      </trkpt>
      <trkpt lat="47.12593998759985" lon="-0.156969996169209">
        <ele>38</ele>
        <time>2022-07-13T05:02:54Z</time>
      </trkpt>
      <trkpt lat="47.125900005921721" lon="-0.157009977847338">
        <ele>39</ele>
        <time>2022-07-13T05:02:56Z</time>
      </trkpt>
      <trkpt lat="47.125860024243593" lon="-0.157060017809272">
        <ele>39</ele>
        <time>2022-07-13T05:02:58Z</time>
      </trkpt>
      <trkpt lat="47.125819958746433" lon="-0.157090025022626">
        <ele>39</ele>
        <time>2022-07-13T05:03:00Z</time>
      </trkpt>
      <trkpt lat="47.125790035352111" lon="-0.15712003223598">
        <ele>39</ele>
        <time>2022-07-13T05:03:02Z</time>
      </trkpt>
      <trkpt lat="47.125749969854951" lon="-0.157160013914108">
        <ele>38</ele>
        <time>2022-07-13T05:03:04Z</time>
      </trkpt>
      <trkpt lat="47.125709988176823" lon="-0.157199995592237">
        <ele>37</ele>
        <time>2022-07-13T05:03:06Z</time>
      </trkpt>
      <trkpt lat="47.125679980963469" lon="-0.157250035554171">
        <ele>37</ele>
        <time>2022-07-13T05:03:08Z</time>
      </trkpt>
      <trkpt lat="47.125649973750114" lon="-0.157299991697073">
        <ele>37</ele>
        <time>2022-07-13T05:03:10Z</time>
      </trkpt>
      <trkpt lat="47.12561996653676" lon="-0.157360006123781">
        <ele>37</ele>
        <time>2022-07-13T05:03:12Z</time>
      </trkpt>
      <trkpt lat="47.125589959323406" lon="-0.157420020550489">
        <ele>36</ele>
        <time>2022-07-13T05:03:14Z</time>
      </trkpt>
      <trkpt lat="47.125570010393858" lon="-0.157469976693392">
        <ele>36</ele>
        <time>2022-07-13T05:03:16Z</time>
      </trkpt>
      <trkpt lat="47.125540003180504" lon="-0.1575299911201">
        <ele>35</ele>
        <time>2022-07-13T05:03:18Z</time>
      </trkpt>
      <trkpt lat="47.12550999596715" lon="-0.157590005546808">
        <ele>35</ele>
        <time>2022-07-13T05:03:20Z</time>
      </trkpt>
      <trkpt lat="47.12548996321857" lon="-0.157650019973516">
        <ele>34</ele>
        <time>2022-07-13T05:03:22Z</time>
      </trkpt>
      <trkpt lat="47.125460039824247" lon="-0.157699976116419">
        <ele>34</ele>
        <time>2022-07-13T05:03:24Z</time>
      </trkpt>
      <trkpt lat="47.125430032610893" lon="-0.157759990543127">
        <ele>35</ele>
        <time>2022-07-13T05:03:26Z</time>
      </trkpt>
      <trkpt lat="47.125400025397539" lon="-0.157820004969835">
        <ele>35</ele>
        <time>2022-07-13T05:03:28Z</time>
      </trkpt>
      <trkpt lat="47.125370018184185" lon="-0.157869961112738">
        <ele>35</ele>
        <time>2022-07-13T05:03:30Z</time>
      </trkpt>
      <trkpt lat="47.125340010970831" lon="-0.157929975539446">
        <ele>35</ele>
        <time>2022-07-13T05:03:32Z</time>
      </trkpt>
      <trkpt lat="47.125310003757477" lon="-0.157989989966154">
        <ele>35</ele>
        <time>2022-07-13T05:03:34Z</time>
      </trkpt>
      <trkpt lat="47.125279996544123" lon="-0.158040029928088">
        <ele>35</ele>
        <time>2022-07-13T05:03:36Z</time>
      </trkpt>
      <trkpt lat="47.125249989330769" lon="-0.158089986070991">
        <ele>35</ele>
        <time>2022-07-13T05:03:38Z</time>
      </trkpt>
      <trkpt lat="47.125219982117414" lon="-0.158140026032925">
        <ele>35</ele>
        <time>2022-07-13T05:03:40Z</time>
      </trkpt>
      <trkpt lat="47.12518997490406" lon="-0.158180007711053">
        <ele>35</ele>
        <time>2022-07-13T05:03:42Z</time>
      </trkpt>
      <trkpt lat="47.125159967690706" lon="-0.158229963853955">
        <ele>34</ele>
        <time>2022-07-13T05:03:44Z</time>
      </trkpt>
      <trkpt lat="47.125129960477352" lon="-0.158280003815889">
        <ele>34</ele>
        <time>2022-07-13T05:03:46Z</time>
      </trkpt>
      <trkpt lat="47.125089978799224" lon="-0.158329959958792">
        <ele>33</ele>
        <time>2022-07-13T05:03:48Z</time>
      </trkpt>
      <trkpt lat="47.12505997158587" lon="-0.158379999920726">
        <ele>32</ele>
        <time>2022-07-13T05:03:50Z</time>
      </trkpt>
      <trkpt lat="47.125019989907742" lon="-0.158419981598854">
        <ele>32</ele>
        <time>2022-07-13T05:03:52Z</time>
      </trkpt>
      <trkpt lat="47.124980008229613" lon="-0.158470021560788">
        <ele>32</ele>
        <time>2022-07-13T05:03:54Z</time>
      </trkpt>
      <trkpt lat="47.124940026551485" lon="-0.158510003238916">
        <ele>32</ele>
        <time>2022-07-13T05:03:56Z</time>
      </trkpt>
      <trkpt lat="47.124899961054325" lon="-0.158540010452271">
        <ele>31</ele>
        <time>2022-07-13T05:03:58Z</time>
      </trkpt>
      <trkpt lat="47.124870037660003" lon="-0.158579992130399">
        <ele>30</ele>
        <time>2022-07-13T05:04:00Z</time>
      </trkpt>
      <trkpt lat="47.124829972162843" lon="-0.158619973808527">
        <ele>30</ele>
        <time>2022-07-13T05:04:02Z</time>
      </trkpt>
      <trkpt lat="47.124789990484715" lon="-0.158649981021881">
        <ele>30</ele>
        <time>2022-07-13T05:04:04Z</time>
      </trkpt>
      <trkpt lat="47.124750008806586" lon="-0.158670013770461">
        <ele>29</ele>
        <time>2022-07-13T05:04:06Z</time>
      </trkpt>
      <trkpt lat="47.124710027128458" lon="-0.158689962700009">
        <ele>29</ele>
        <time>2022-07-13T05:04:08Z</time>
      </trkpt>
      <trkpt lat="47.124659987166524" lon="-0.158709995448589">
        <ele>28</ele>
        <time>2022-07-13T05:04:10Z</time>
      </trkpt>
      <trkpt lat="47.124620005488396" lon="-0.158730028197169">
        <ele>28</ele>
        <time>2022-07-13T05:04:12Z</time>
      </trkpt>
      <trkpt lat="47.124580023810267" lon="-0.158749977126718">
        <ele>28</ele>
        <time>2022-07-13T05:04:14Z</time>
      </trkpt>
      <trkpt lat="47.124529983848333" lon="-0.158760035410523">
        <ele>28</ele>
        <time>2022-07-13T05:04:16Z</time>
      </trkpt>
      <trkpt lat="47.124490002170205" lon="-0.158770009875298">
        <ele>28</ele>
        <time>2022-07-13T05:04:18Z</time>
      </trkpt>
      <trkpt lat="47.124450020492077" lon="-0.158789958804846">
        <ele>28</ele>
        <time>2022-07-13T05:04:20Z</time>
      </trkpt>
      <trkpt lat="47.124420013278723" lon="-0.158800017088652">
        <ele>28</ele>
        <time>2022-07-13T05:04:22Z</time>
      </trkpt>
      <trkpt lat="47.124380031600595" lon="-0.1588199660182">
        <ele>28</ele>
        <time>2022-07-13T05:04:24Z</time>
      </trkpt>
      <trkpt lat="47.124339966103435" lon="-0.15883999876678">
        <ele>27</ele>
        <time>2022-07-13T05:04:26Z</time>
      </trkpt>
      <trkpt lat="47.124299984425306" lon="-0.158849973231554">
        <ele>27</ele>
        <time>2022-07-13T05:04:28Z</time>
      </trkpt>
      <trkpt lat="47.124260002747178" lon="-0.158870005980134">
        <ele>27</ele>
        <time>2022-07-13T05:04:30Z</time>
      </trkpt>
      <trkpt lat="47.12422002106905" lon="-0.158879980444908">
        <ele>27</ele>
        <time>2022-07-13T05:04:32Z</time>
      </trkpt>
      <trkpt lat="47.124180039390922" lon="-0.158890038728714">
        <ele>27</ele>
        <time>2022-07-13T05:04:34Z</time>
      </trkpt>
      <trkpt lat="47.124129999428988" lon="-0.158909987658262">
        <ele>27</ele>
        <time>2022-07-13T05:04:36Z</time>
      </trkpt>
      <trkpt lat="47.124079959467053" lon="-0.158930020406842">
        <ele>27</ele>
        <time>2022-07-13T05:04:38Z</time>
      </trkpt>
      <trkpt lat="47.124039977788925" lon="-0.158949969336391">
        <ele>27</ele>
        <time>2022-07-13T05:04:40Z</time>
      </trkpt>
      <trkpt lat="47.123999996110797" lon="-0.15897000208497">
        <ele>27</ele>
        <time>2022-07-13T05:04:42Z</time>
      </trkpt>
      <trkpt lat="47.123950039967895" lon="-0.15899003483355">
        <ele>27</ele>
        <time>2022-07-13T05:04:44Z</time>
      </trkpt>
      <trkpt lat="47.123909974470735" lon="-0.159000009298325">
        <ele>28</ele>
        <time>2022-07-13T05:04:46Z</time>
      </trkpt>
      <trkpt lat="47.123869992792606" lon="-0.159019958227873">
        <ele>28</ele>
        <time>2022-07-13T05:04:48Z</time>
      </trkpt>
      <trkpt lat="47.123830011114478" lon="-0.159030016511679">
        <ele>29</ele>
        <time>2022-07-13T05:04:50Z</time>
      </trkpt>
      <trkpt lat="47.12379002943635" lon="-0.159039990976453">
        <ele>29</ele>
        <time>2022-07-13T05:04:52Z</time>
      </trkpt>
      <trkpt lat="47.12374996393919" lon="-0.159060023725033">
        <ele>29</ele>
        <time>2022-07-13T05:04:54Z</time>
      </trkpt>
      <trkpt lat="47.123709982261062" lon="-0.159079972654581">
        <ele>30</ele>
        <time>2022-07-13T05:04:56Z</time>
      </trkpt>
      <trkpt lat="47.123670000582933" lon="-0.159090030938387">
        <ele>30</ele>
        <time>2022-07-13T05:04:58Z</time>
      </trkpt>
      <trkpt lat="47.123639993369579" lon="-0.159109979867935">
        <ele>30</ele>
        <time>2022-07-13T05:05:00Z</time>
      </trkpt>
      <trkpt lat="47.123600011691451" lon="-0.159130012616515">
        <ele>30</ele>
        <time>2022-07-13T05:05:04Z</time>
      </trkpt>
      <trkpt lat="47.123549971729517" lon="-0.159149961546063">
        <ele>29</ele>
        <time>2022-07-13T05:05:06Z</time>
      </trkpt>
      <trkpt lat="47.123500015586615" lon="-0.159169994294643">
        <ele>30</ele>
        <time>2022-07-13T05:05:08Z</time>
      </trkpt>
      <trkpt lat="47.123460033908486" lon="-0.159179968759418">
        <ele>29</ele>
        <time>2022-07-13T05:05:10Z</time>
      </trkpt>
      <trkpt lat="47.123409993946552" lon="-0.159200001507998">
        <ele>29</ele>
        <time>2022-07-13T05:05:12Z</time>
      </trkpt>
      <trkpt lat="47.123370012268424" lon="-0.159209975972772">
        <ele>29</ele>
        <time>2022-07-13T05:05:13Z</time>
      </trkpt>
      <trkpt lat="47.123330030590296" lon="-0.159220034256577">
        <ele>29</ele>
        <time>2022-07-13T05:05:15Z</time>
      </trkpt>
      <trkpt lat="47.123289965093136" lon="-0.159250041469932">
        <ele>29</ele>
        <time>2022-07-13T05:05:17Z</time>
      </trkpt>
      <trkpt lat="47.123240008950233" lon="-0.15926999039948">
        <ele>29</ele>
        <time>2022-07-13T05:05:19Z</time>
      </trkpt>
      <trkpt lat="47.123200027272105" lon="-0.15929002314806">
        <ele>30</ele>
        <time>2022-07-13T05:05:21Z</time>
      </trkpt>
      <trkpt lat="47.123149987310171" lon="-0.159309972077608">
        <ele>30</ele>
        <time>2022-07-13T05:05:23Z</time>
      </trkpt>
      <trkpt lat="47.123110005632043" lon="-0.159330004826188">
        <ele>30</ele>
        <time>2022-07-13T05:05:25Z</time>
      </trkpt>
      <trkpt lat="47.123070023953915" lon="-0.159339979290962">
        <ele>30</ele>
        <time>2022-07-13T05:05:27Z</time>
      </trkpt>
      <trkpt lat="47.123019983991981" lon="-0.159360012039542">
        <ele>29</ele>
        <time>2022-07-13T05:05:29Z</time>
      </trkpt>
      <trkpt lat="47.122980002313852" lon="-0.15937996096909">
        <ele>29</ele>
        <time>2022-07-13T05:05:31Z</time>
      </trkpt>
      <trkpt lat="47.122929962351918" lon="-0.159390019252896">
        <ele>29</ele>
        <time>2022-07-13T05:05:33Z</time>
      </trkpt>
      <trkpt lat="47.12288998067379" lon="-0.159409968182445">
        <ele>30</ele>
        <time>2022-07-13T05:05:35Z</time>
      </trkpt>
      <trkpt lat="47.122840024530888" lon="-0.159409968182445">
        <ele>30</ele>
        <time>2022-07-13T05:05:37Z</time>
      </trkpt>
      <trkpt lat="47.122799959033728" lon="-0.15942002646625">
        <ele>30</ele>
        <time>2022-07-13T05:05:39Z</time>
      </trkpt>
      <trkpt lat="47.122750002890825" lon="-0.159439975395799">
        <ele>30</ele>
        <time>2022-07-13T05:05:41Z</time>
      </trkpt>
      <trkpt lat="47.122710021212697" lon="-0.159460008144379">
        <ele>29</ele>
        <time>2022-07-13T05:05:43Z</time>
      </trkpt>
      <trkpt lat="47.122670039534569" lon="-0.159480040892959">
        <ele>29</ele>
        <time>2022-07-13T05:05:45Z</time>
      </trkpt>
      <trkpt lat="47.122629974037409" lon="-0.159509964287281">
        <ele>29</ele>
        <time>2022-07-13T05:05:47Z</time>
      </trkpt>
      <trkpt lat="47.122580017894506" lon="-0.159529997035861">
        <ele>28</ele>
        <time>2022-07-13T05:05:49Z</time>
      </trkpt>
      <trkpt lat="47.122540036216378" lon="-0.159539971500635">
        <ele>28</ele>
        <time>2022-07-13T05:05:51Z</time>
      </trkpt>
      <trkpt lat="47.122489996254444" lon="-0.159550029784441">
        <ele>28</ele>
        <time>2022-07-13T05:05:53Z</time>
      </trkpt>
      <trkpt lat="47.122440040111542" lon="-0.159569978713989">
        <ele>28</ele>
        <time>2022-07-13T05:05:55Z</time>
      </trkpt>
      <trkpt lat="47.122399974614382" lon="-0.159590011462569">
        <ele>28</ele>
        <time>2022-07-13T05:05:57Z</time>
      </trkpt>
      <trkpt lat="47.122350018471479" lon="-0.159590011462569">
        <ele>28</ele>
        <time>2022-07-13T05:05:59Z</time>
      </trkpt>
      <trkpt lat="47.122310036793351" lon="-0.159599985927343">
        <ele>28</ele>
        <time>2022-07-13T05:06:01Z</time>
      </trkpt>
      <trkpt lat="47.122269971296191" lon="-0.159620018675923">
        <ele>28</ele>
        <time>2022-07-13T05:06:03Z</time>
      </trkpt>
      <trkpt lat="47.122220015153289" lon="-0.159639967605472">
        <ele>29</ele>
        <time>2022-07-13T05:06:05Z</time>
      </trkpt>
      <trkpt lat="47.122180033475161" lon="-0.159650025889277">
        <ele>29</ele>
        <time>2022-07-13T05:06:07Z</time>
      </trkpt>
      <trkpt lat="47.122139967978001" lon="-0.159660000354052">
        <ele>30</ele>
        <time>2022-07-13T05:06:09Z</time>
      </trkpt>
      <trkpt lat="47.122099986299872" lon="-0.159669974818826">
        <ele>30</ele>
        <time>2022-07-13T05:06:11Z</time>
      </trkpt>
      <trkpt lat="47.12205003015697" lon="-0.159669974818826">
        <ele>30</ele>
        <time>2022-07-13T05:06:13Z</time>
      </trkpt>
      <trkpt lat="47.121990015730262" lon="-0.159680033102632">
        <ele>30</ele>
        <time>2022-07-13T05:06:15Z</time>
      </trkpt>
      <trkpt lat="47.121939975768328" lon="-0.159680033102632">
        <ele>30</ele>
        <time>2022-07-13T05:06:17Z</time>
      </trkpt>
      <trkpt lat="47.121899994090199" lon="-0.159680033102632">
        <ele>29</ele>
        <time>2022-07-13T05:06:19Z</time>
      </trkpt>
      <trkpt lat="47.121860012412071" lon="-0.159680033102632">
        <ele>29</ele>
        <time>2022-07-13T05:06:21Z</time>
      </trkpt>
      <trkpt lat="47.121809972450137" lon="-0.159680033102632">
        <ele>29</ele>
        <time>2022-07-13T05:06:23Z</time>
      </trkpt>
      <trkpt lat="47.121769990772009" lon="-0.159650025889277">
        <ele>30</ele>
        <time>2022-07-13T05:06:25Z</time>
      </trkpt>
      <trkpt lat="47.121730009093881" lon="-0.159620018675923">
        <ele>30</ele>
        <time>2022-07-13T05:06:27Z</time>
      </trkpt>
      <trkpt lat="47.121690027415752" lon="-0.159599985927343">
        <ele>30</ele>
        <time>2022-07-13T05:06:29Z</time>
      </trkpt>
      <trkpt lat="47.121649961918592" lon="-0.159569978713989">
        <ele>30</ele>
        <time>2022-07-13T05:06:31Z</time>
      </trkpt>
      <trkpt lat="47.12160000577569" lon="-0.159550029784441">
        <ele>30</ele>
        <time>2022-07-13T05:06:33Z</time>
      </trkpt>
      <trkpt lat="47.121560024097562" lon="-0.159529997035861">
        <ele>31</ele>
        <time>2022-07-13T05:06:35Z</time>
      </trkpt>
      <trkpt lat="47.121530016884208" lon="-0.159529997035861">
        <ele>31</ele>
        <time>2022-07-13T05:06:37Z</time>
      </trkpt>
      <trkpt lat="47.121500009670854" lon="-0.159539971500635">
        <ele>31</ele>
        <time>2022-07-13T05:06:39Z</time>
      </trkpt>
      <trkpt lat="47.121460027992725" lon="-0.159550029784441">
        <ele>31</ele>
        <time>2022-07-13T05:06:41Z</time>
      </trkpt>
      <trkpt lat="47.121419962495565" lon="-0.159569978713989">
        <ele>32</ele>
        <time>2022-07-13T05:06:43Z</time>
      </trkpt>
      <trkpt lat="47.121379980817437" lon="-0.159590011462569">
        <ele>31</ele>
        <time>2022-07-13T05:06:45Z</time>
      </trkpt>
      <trkpt lat="47.121339999139309" lon="-0.159620018675923">
        <ele>31</ele>
        <time>2022-07-13T05:06:47Z</time>
      </trkpt>
      <trkpt lat="47.121309991925955" lon="-0.159650025889277">
        <ele>32</ele>
        <time>2022-07-13T05:06:49Z</time>
      </trkpt>
      <trkpt lat="47.121279984712601" lon="-0.15969998203218">
        <ele>33</ele>
        <time>2022-07-13T05:06:51Z</time>
      </trkpt>
      <trkpt lat="47.121260035783052" lon="-0.159739963710308">
        <ele>33</ele>
        <time>2022-07-13T05:06:52Z</time>
      </trkpt>
      <trkpt lat="47.121240003034472" lon="-0.159790003672242">
        <ele>33</ele>
        <time>2022-07-13T05:06:54Z</time>
      </trkpt>
      <trkpt lat="47.121209995821118" lon="-0.159839959815145">
        <ele>32</ele>
        <time>2022-07-13T05:06:56Z</time>
      </trkpt>
      <trkpt lat="47.121179988607764" lon="-0.159889999777079">
        <ele>33</ele>
        <time>2022-07-13T05:06:58Z</time>
      </trkpt>
      <trkpt lat="47.12114998139441" lon="-0.159920006990433">
        <ele>33</ele>
        <time>2022-07-13T05:07:00Z</time>
      </trkpt>
      <trkpt lat="47.121100025251508" lon="-0.159950014203787">
        <ele>33</ele>
        <time>2022-07-13T05:07:02Z</time>
      </trkpt>
      <trkpt lat="47.121059959754348" lon="-0.159989995881915">
        <ele>33</ele>
        <time>2022-07-13T05:07:04Z</time>
      </trkpt>
      <trkpt lat="47.121030036360025" lon="-0.160020003095269">
        <ele>33</ele>
        <time>2022-07-13T05:07:05Z</time>
      </trkpt>
      <trkpt lat="47.121000029146671" lon="-0.160059984773397">
        <ele>33</ele>
        <time>2022-07-13T05:07:07Z</time>
      </trkpt>
      <trkpt lat="47.120959963649511" lon="-0.160099966451526">
        <ele>32</ele>
        <time>2022-07-13T05:07:09Z</time>
      </trkpt>
      <trkpt lat="47.120930040255189" lon="-0.160140031948686">
        <ele>31</ele>
        <time>2022-07-13T05:07:11Z</time>
      </trkpt>
      <trkpt lat="47.120910007506609" lon="-0.160189988091588">
        <ele>31</ele>
        <time>2022-07-13T05:07:13Z</time>
      </trkpt>
      <trkpt lat="47.120880000293255" lon="-0.160240028053522">
        <ele>32</ele>
        <time>2022-07-13T05:07:15Z</time>
      </trkpt>
      <trkpt lat="47.120849993079901" lon="-0.160289984196424">
        <ele>33</ele>
        <time>2022-07-13T05:07:17Z</time>
      </trkpt>
      <trkpt lat="47.120819985866547" lon="-0.160329965874553">
        <ele>33</ele>
        <time>2022-07-13T05:07:19Z</time>
      </trkpt>
      <trkpt lat="47.120780004188418" lon="-0.160370031371713">
        <ele>32</ele>
        <time>2022-07-13T05:07:21Z</time>
      </trkpt>
      <trkpt lat="47.12074002251029" lon="-0.160389980301261">
        <ele>32</ele>
        <time>2022-07-13T05:07:23Z</time>
      </trkpt>
      <trkpt lat="47.120700040832162" lon="-0.160410013049841">
        <ele>32</ele>
        <time>2022-07-13T05:07:25Z</time>
      </trkpt>
      <trkpt lat="47.120659975335002" lon="-0.160429961979389">
        <ele>32</ele>
        <time>2022-07-13T05:07:27Z</time>
      </trkpt>
      <trkpt lat="47.120619993656874" lon="-0.160440020263195">
        <ele>33</ele>
        <time>2022-07-13T05:07:29Z</time>
      </trkpt>
      <trkpt lat="47.120580011978745" lon="-0.160459969192743">
        <ele>32</ele>
        <time>2022-07-13T05:07:31Z</time>
      </trkpt>
      <trkpt lat="47.120540030300617" lon="-0.160470027476549">
        <ele>32</ele>
        <time>2022-07-13T05:07:33Z</time>
      </trkpt>
      <trkpt lat="47.120510023087263" lon="-0.160470027476549">
        <ele>32</ele>
        <time>2022-07-13T05:07:35Z</time>
      </trkpt>
      <trkpt lat="47.120459983125329" lon="-0.160470027476549">
        <ele>32</ele>
        <time>2022-07-13T05:07:37Z</time>
      </trkpt>
      <trkpt lat="47.120420001447201" lon="-0.160459969192743">
        <ele>33</ele>
        <time>2022-07-13T05:07:39Z</time>
      </trkpt>
      <trkpt lat="47.120369961485267" lon="-0.160459969192743">
        <ele>33</ele>
        <time>2022-07-13T05:07:41Z</time>
      </trkpt>
      <trkpt lat="47.120329979807138" lon="-0.160470027476549">
        <ele>32</ele>
        <time>2022-07-13T05:07:42Z</time>
      </trkpt>
      <trkpt lat="47.12028999812901" lon="-0.160489976406097">
        <ele>32</ele>
        <time>2022-07-13T05:07:44Z</time>
      </trkpt>
      <trkpt lat="47.120250016450882" lon="-0.160510009154677">
        <ele>32</ele>
        <time>2022-07-13T05:07:46Z</time>
      </trkpt>
      <trkpt lat="47.120210034772754" lon="-0.160519983619452">
        <ele>31</ele>
        <time>2022-07-13T05:07:48Z</time>
      </trkpt>
      <trkpt lat="47.120169969275594" lon="-0.160540016368032">
        <ele>31</ele>
        <time>2022-07-13T05:07:50Z</time>
      </trkpt>
      <trkpt lat="47.120120013132691" lon="-0.160549990832806">
        <ele>31</ele>
        <time>2022-07-13T05:07:52Z</time>
      </trkpt>
      <trkpt lat="47.120090005919337" lon="-0.160570023581386">
        <ele>31</ele>
        <time>2022-07-13T05:07:54Z</time>
      </trkpt>
      <trkpt lat="47.120050024241209" lon="-0.160589972510934">
        <ele>31</ele>
        <time>2022-07-13T05:07:56Z</time>
      </trkpt>
      <trkpt lat="47.120009958744049" lon="-0.160610005259514">
        <ele>31</ele>
        <time>2022-07-13T05:07:58Z</time>
      </trkpt>
      <trkpt lat="47.119969977065921" lon="-0.160630038008094">
        <ele>31</ele>
        <time>2022-07-13T05:07:59Z</time>
      </trkpt>
      <trkpt lat="47.119939969852567" lon="-0.160649986937642">
        <ele>30</ele>
        <time>2022-07-13T05:08:01Z</time>
      </trkpt>
      <trkpt lat="47.119899988174438" lon="-0.160670019686222">
        <ele>30</ele>
        <time>2022-07-13T05:08:03Z</time>
      </trkpt>
      <trkpt lat="47.119850032031536" lon="-0.160679994150996">
        <ele>30</ele>
        <time>2022-07-13T05:08:05Z</time>
      </trkpt>
      <trkpt lat="47.119809966534376" lon="-0.16068996861577">
        <ele>29</ele>
        <time>2022-07-13T05:08:07Z</time>
      </trkpt>
      <trkpt lat="47.119799992069602" lon="-0.16073003411293">
        <ele>29</ele>
        <time>2022-07-13T05:08:09Z</time>
      </trkpt>
      <trkpt lat="47.119799992069602" lon="-0.160770015791059">
        <ele>28</ele>
        <time>2022-07-13T05:08:12Z</time>
      </trkpt>
      <trkpt lat="47.119799992069602" lon="-0.160819971933961">
        <ele>28</ele>
        <time>2022-07-13T05:08:15Z</time>
      </trkpt>
      <trkpt lat="47.119809966534376" lon="-0.160870011895895">
        <ele>28</ele>
        <time>2022-07-13T05:08:17Z</time>
      </trkpt>
      <trkpt lat="47.119829999282956" lon="-0.160919968038797">
        <ele>28</ele>
        <time>2022-07-13T05:08:19Z</time>
      </trkpt>
      <trkpt lat="47.11983997374773" lon="-0.160949975252151">
        <ele>28</ele>
        <time>2022-07-13T05:08:21Z</time>
      </trkpt>
      <trkpt lat="47.11986000649631" lon="-0.161000015214086">
        <ele>27</ele>
        <time>2022-07-13T05:08:24Z</time>
      </trkpt>
      <trkpt lat="47.119869980961084" lon="-0.161039996892214">
        <ele>27</ele>
        <time>2022-07-13T05:08:26Z</time>
      </trkpt>
      <trkpt lat="47.119890013709664" lon="-0.161090036854148">
        <ele>27</ele>
        <time>2022-07-13T05:08:28Z</time>
      </trkpt>
      <trkpt lat="47.119899988174438" lon="-0.161130018532276">
        <ele>27</ele>
        <time>2022-07-13T05:08:30Z</time>
      </trkpt>
      <trkpt lat="47.119909962639213" lon="-0.161170000210404">
        <ele>27</ele>
        <time>2022-07-13T05:08:32Z</time>
      </trkpt>
      <trkpt lat="47.119929995387793" lon="-0.161220040172338">
        <ele>27</ele>
        <time>2022-07-13T05:08:34Z</time>
      </trkpt>
      <trkpt lat="47.119939969852567" lon="-0.161260021850467">
        <ele>28</ele>
        <time>2022-07-13T05:08:36Z</time>
      </trkpt>
      <trkpt lat="47.119950028136373" lon="-0.161309977993369">
        <ele>28</ele>
        <time>2022-07-13T05:08:38Z</time>
      </trkpt>
      <trkpt lat="47.119969977065921" lon="-0.161349959671497">
        <ele>28</ele>
        <time>2022-07-13T05:08:40Z</time>
      </trkpt>
      <trkpt lat="47.119980035349727" lon="-0.161399999633431">
        <ele>28</ele>
        <time>2022-07-13T05:08:42Z</time>
      </trkpt>
      <trkpt lat="47.119999984279275" lon="-0.16143998131156">
        <ele>28</ele>
        <time>2022-07-13T05:08:44Z</time>
      </trkpt>
      <trkpt lat="47.120009958744049" lon="-0.161479962989688">
        <ele>28</ele>
        <time>2022-07-13T05:08:46Z</time>
      </trkpt>
      <trkpt lat="47.120029991492629" lon="-0.161530002951622">
        <ele>28</ele>
        <time>2022-07-13T05:08:49Z</time>
      </trkpt>
      <trkpt lat="47.120050024241209" lon="-0.161579959094524">
        <ele>28</ele>
        <time>2022-07-13T05:08:52Z</time>
      </trkpt>
      <trkpt lat="47.120069973170757" lon="-0.161629999056458">
        <ele>28</ele>
        <time>2022-07-13T05:08:54Z</time>
      </trkpt>
      <trkpt lat="47.120080031454563" lon="-0.161680039018393">
        <ele>29</ele>
        <time>2022-07-13T05:08:56Z</time>
      </trkpt>
      <trkpt lat="47.120099980384111" lon="-0.161720020696521">
        <ele>29</ele>
        <time>2022-07-13T05:08:58Z</time>
      </trkpt>
      <trkpt lat="47.120110038667917" lon="-0.161769976839423">
        <ele>29</ele>
        <time>2022-07-13T05:09:00Z</time>
      </trkpt>
      <trkpt lat="47.120129987597466" lon="-0.161809958517551">
        <ele>29</ele>
        <time>2022-07-13T05:09:02Z</time>
      </trkpt>
      <trkpt lat="47.12013996206224" lon="-0.161850024014711">
        <ele>29</ele>
        <time>2022-07-13T05:09:04Z</time>
      </trkpt>
      <trkpt lat="47.12015999481082" lon="-0.161880031228065">
        <ele>29</ele>
        <time>2022-07-13T05:09:06Z</time>
      </trkpt>
      <trkpt lat="47.120169969275594" lon="-0.161920012906194">
        <ele>28</ele>
        <time>2022-07-13T05:09:08Z</time>
      </trkpt>
      <trkpt lat="47.120190002024174" lon="-0.161950020119548">
        <ele>28</ele>
        <time>2022-07-13T05:09:10Z</time>
      </trkpt>
      <trkpt lat="47.120210034772754" lon="-0.161990001797676">
        <ele>27</ele>
        <time>2022-07-13T05:09:12Z</time>
      </trkpt>
      <trkpt lat="47.120220009237528" lon="-0.16204004175961">
        <ele>27</ele>
        <time>2022-07-13T05:09:14Z</time>
      </trkpt>
      <trkpt lat="47.120239958167076" lon="-0.162080023437738">
        <ele>26</ele>
        <time>2022-07-13T05:09:17Z</time>
      </trkpt>
      <trkpt lat="47.120259990915656" lon="-0.162120005115867">
        <ele>26</ele>
        <time>2022-07-13T05:09:19Z</time>
      </trkpt>
      <trkpt lat="47.12026996538043" lon="-0.162169961258769">
        <ele>26</ele>
        <time>2022-07-13T05:09:21Z</time>
      </trkpt>
      <trkpt lat="47.12028999812901" lon="-0.162220001220703">
        <ele>26</ele>
        <time>2022-07-13T05:09:23Z</time>
      </trkpt>
      <trkpt lat="47.120299972593784" lon="-0.162259982898831">
        <ele>25</ele>
        <time>2022-07-13T05:09:25Z</time>
      </trkpt>
      <trkpt lat="47.12031003087759" lon="-0.16229996457696">
        <ele>25</ele>
        <time>2022-07-13T05:09:27Z</time>
      </trkpt>
      <trkpt lat="47.120320005342364" lon="-0.162350004538894">
        <ele>25</ele>
        <time>2022-07-13T05:09:29Z</time>
      </trkpt>
      <trkpt lat="47.120340038090944" lon="-0.162380011752248">
        <ele>25</ele>
        <time>2022-07-13T05:09:31Z</time>
      </trkpt>
      <trkpt lat="47.120359987020493" lon="-0.162410018965602">
        <ele>25</ele>
        <time>2022-07-13T05:09:33Z</time>
      </trkpt>
      <trkpt lat="47.120369961485267" lon="-0.16245000064373">
        <ele>25</ele>
        <time>2022-07-13T05:09:35Z</time>
      </trkpt>
      <trkpt lat="47.120389994233847" lon="-0.162489982321858">
        <ele>25</ele>
        <time>2022-07-13T05:09:37Z</time>
      </trkpt>
      <trkpt lat="47.120399968698621" lon="-0.162529963999987">
        <ele>25</ele>
        <time>2022-07-13T05:09:39Z</time>
      </trkpt>
      <trkpt lat="47.120420001447201" lon="-0.162580003961921">
        <ele>26</ele>
        <time>2022-07-13T05:09:41Z</time>
      </trkpt>
      <trkpt lat="47.120429975911975" lon="-0.162629960104823">
        <ele>26</ele>
        <time>2022-07-13T05:09:43Z</time>
      </trkpt>
      <trkpt lat="47.120440034195781" lon="-0.162670025601983">
        <ele>26</ele>
        <time>2022-07-13T05:09:45Z</time>
      </trkpt>
      <trkpt lat="47.120459983125329" lon="-0.162719981744885">
        <ele>26</ele>
        <time>2022-07-13T05:09:47Z</time>
      </trkpt>
      <trkpt lat="47.120470041409135" lon="-0.162759963423014">
        <ele>25</ele>
        <time>2022-07-13T05:09:50Z</time>
      </trkpt>
      <trkpt lat="47.120480015873909" lon="-0.162810003384948">
        <ele>25</ele>
        <time>2022-07-13T05:09:52Z</time>
      </trkpt>
      <trkpt lat="47.120489990338683" lon="-0.162849985063076">
        <ele>25</ele>
        <time>2022-07-13T05:09:54Z</time>
      </trkpt>
      <trkpt lat="47.120489990338683" lon="-0.16290002502501">
        <ele>25</ele>
        <time>2022-07-13T05:09:56Z</time>
      </trkpt>
      <trkpt lat="47.120480015873909" lon="-0.162949981167912">
        <ele>26</ele>
        <time>2022-07-13T05:09:58Z</time>
      </trkpt>
      <trkpt lat="47.120459983125329" lon="-0.163000021129847">
        <ele>26</ele>
        <time>2022-07-13T05:10:00Z</time>
      </trkpt>
      <trkpt lat="47.120440034195781" lon="-0.163040002807975">
        <ele>26</ele>
        <time>2022-07-13T05:10:02Z</time>
      </trkpt>
      <trkpt lat="47.120420001447201" lon="-0.163070010021329">
        <ele>26</ele>
        <time>2022-07-13T05:10:04Z</time>
      </trkpt>
      <trkpt lat="47.120389994233847" lon="-0.163100017234683">
        <ele>26</ele>
        <time>2022-07-13T05:10:06Z</time>
      </trkpt>
      <trkpt lat="47.120369961485267" lon="-0.163119966164231">
        <ele>26</ele>
        <time>2022-07-13T05:10:08Z</time>
      </trkpt>
      <trkpt lat="47.120340038090944" lon="-0.163139998912811">
        <ele>26</ele>
        <time>2022-07-13T05:10:10Z</time>
      </trkpt>
      <trkpt lat="47.12031003087759" lon="-0.163149973377585">
        <ele>26</ele>
        <time>2022-07-13T05:10:12Z</time>
      </trkpt>
      <trkpt lat="47.120280023664236" lon="-0.163170006126165">
        <ele>26</ele>
        <time>2022-07-13T05:10:14Z</time>
      </trkpt>
      <trkpt lat="47.120190002024174" lon="-0.163160031661391">
        <ele>25</ele>
        <time>2022-07-13T05:10:15Z</time>
      </trkpt>
      <trkpt lat="47.120229983702302" lon="-0.163209987804294">
        <ele>30</ele>
        <time>2022-07-13T05:10:16Z</time>
      </trkpt>
      <trkpt lat="47.120210034772754" lon="-0.163219962269068">
        <ele>33</ele>
        <time>2022-07-13T05:10:18Z</time>
      </trkpt>
      <trkpt lat="47.120190002024174" lon="-0.163249969482422">
        <ele>30</ele>
        <time>2022-07-13T05:10:21Z</time>
      </trkpt>
      <trkpt lat="47.120169969275594" lon="-0.163270002231002">
        <ele>28</ele>
        <time>2022-07-13T05:10:23Z</time>
      </trkpt>
      <trkpt lat="47.12013996206224" lon="-0.163290034979582">
        <ele>26</ele>
        <time>2022-07-13T05:10:25Z</time>
      </trkpt>
      <trkpt lat="47.120110038667917" lon="-0.16330998390913">
        <ele>25</ele>
        <time>2022-07-13T05:10:28Z</time>
      </trkpt>
      <trkpt lat="47.120080031454563" lon="-0.163319958373904">
        <ele>25</ele>
        <time>2022-07-13T05:10:30Z</time>
      </trkpt>
      <trkpt lat="47.120050024241209" lon="-0.163339991122484">
        <ele>25</ele>
        <time>2022-07-13T05:10:32Z</time>
      </trkpt>
      <trkpt lat="47.120020017027855" lon="-0.163349965587258">
        <ele>26</ele>
        <time>2022-07-13T05:10:34Z</time>
      </trkpt>
      <trkpt lat="47.119990009814501" lon="-0.163369998335838">
        <ele>27</ele>
        <time>2022-07-13T05:10:36Z</time>
      </trkpt>
      <trkpt lat="47.119960002601147" lon="-0.163379972800612">
        <ele>27</ele>
        <time>2022-07-13T05:10:38Z</time>
      </trkpt>
      <trkpt lat="47.119939969852567" lon="-0.163390031084418">
        <ele>27</ele>
        <time>2022-07-13T05:10:40Z</time>
      </trkpt>
      <trkpt lat="47.119909962639213" lon="-0.163409980013967">
        <ele>27</ele>
        <time>2022-07-13T05:10:42Z</time>
      </trkpt>
      <trkpt lat="47.11988003924489" lon="-0.163420038297772">
        <ele>27</ele>
        <time>2022-07-13T05:10:44Z</time>
      </trkpt>
      <trkpt lat="47.119850032031536" lon="-0.163439987227321">
        <ele>27</ele>
        <time>2022-07-13T05:10:46Z</time>
      </trkpt>
      <trkpt lat="47.119820024818182" lon="-0.163449961692095">
        <ele>27</ele>
        <time>2022-07-13T05:10:48Z</time>
      </trkpt>
      <trkpt lat="47.119779959321022" lon="-0.163469994440675">
        <ele>28</ele>
        <time>2022-07-13T05:10:50Z</time>
      </trkpt>
      <trkpt lat="47.119739977642894" lon="-0.163490027189255">
        <ele>27</ele>
        <time>2022-07-13T05:10:52Z</time>
      </trkpt>
      <trkpt lat="47.11970997042954" lon="-0.163509976118803">
        <ele>28</ele>
        <time>2022-07-13T05:10:54Z</time>
      </trkpt>
      <trkpt lat="47.119679963216186" lon="-0.163520034402609">
        <ele>29</ele>
        <time>2022-07-13T05:10:56Z</time>
      </trkpt>
      <trkpt lat="47.119650039821863" lon="-0.163539983332157">
        <ele>29</ele>
        <time>2022-07-13T05:10:59Z</time>
      </trkpt>
      <trkpt lat="47.119620032608509" lon="-0.163550041615963">
        <ele>29</ele>
        <time>2022-07-13T05:11:01Z</time>
      </trkpt>
      <trkpt lat="47.119590025395155" lon="-0.163569990545511">
        <ele>29</ele>
        <time>2022-07-13T05:11:04Z</time>
      </trkpt>
      <trkpt lat="47.119549959897995" lon="-0.163590023294091">
        <ele>29</ele>
        <time>2022-07-13T05:11:06Z</time>
      </trkpt>
      <trkpt lat="47.119530010968447" lon="-0.163620030507445">
        <ele>29</ele>
        <time>2022-07-13T05:11:08Z</time>
      </trkpt>
      <trkpt lat="47.119490029290318" lon="-0.163630004972219">
        <ele>30</ele>
        <time>2022-07-13T05:11:11Z</time>
      </trkpt>
      <trkpt lat="47.119460022076964" lon="-0.163639979436994">
        <ele>30</ele>
        <time>2022-07-13T05:11:13Z</time>
      </trkpt>
      <trkpt lat="47.11943001486361" lon="-0.163650037720799">
        <ele>30</ele>
        <time>2022-07-13T05:11:15Z</time>
      </trkpt>
      <trkpt lat="47.119400007650256" lon="-0.163660012185574">
        <ele>30</ele>
        <time>2022-07-13T05:11:17Z</time>
      </trkpt>
      <trkpt lat="47.119360025972128" lon="-0.163679961115122">
        <ele>29</ele>
        <time>2022-07-13T05:11:19Z</time>
      </trkpt>
      <trkpt lat="47.119330018758774" lon="-0.163690019398928">
        <ele>30</ele>
        <time>2022-07-13T05:11:21Z</time>
      </trkpt>
      <trkpt lat="47.11930001154542" lon="-0.163699993863702">
        <ele>30</ele>
        <time>2022-07-13T05:11:23Z</time>
      </trkpt>
      <trkpt lat="47.119260029867291" lon="-0.163709968328476">
        <ele>30</ele>
        <time>2022-07-13T05:11:25Z</time>
      </trkpt>
      <trkpt lat="47.119230022653937" lon="-0.163709968328476">
        <ele>30</ele>
        <time>2022-07-13T05:11:27Z</time>
      </trkpt>
      <trkpt lat="47.119200015440583" lon="-0.163709968328476">
        <ele>31</ele>
        <time>2022-07-13T05:11:30Z</time>
      </trkpt>
      <trkpt lat="47.119160033762455" lon="-0.163709968328476">
        <ele>30</ele>
        <time>2022-07-13T05:11:32Z</time>
      </trkpt>
      <trkpt lat="47.119130026549101" lon="-0.163690019398928">
        <ele>30</ele>
        <time>2022-07-13T05:11:34Z</time>
      </trkpt>
      <trkpt lat="47.119100019335747" lon="-0.163679961115122">
        <ele>29</ele>
        <time>2022-07-13T05:11:36Z</time>
      </trkpt>
      <trkpt lat="47.119060037657619" lon="-0.163679961115122">
        <ele>29</ele>
        <time>2022-07-13T05:11:38Z</time>
      </trkpt>
      <trkpt lat="47.119019972160459" lon="-0.163679961115122">
        <ele>29</ele>
        <time>2022-07-13T05:11:40Z</time>
      </trkpt>
      <trkpt lat="47.11897999048233" lon="-0.163679961115122">
        <ele>30</ele>
        <time>2022-07-13T05:11:42Z</time>
      </trkpt>
      <trkpt lat="47.118949983268976" lon="-0.163669986650348">
        <ele>30</ele>
        <time>2022-07-13T05:11:44Z</time>
      </trkpt>
      <trkpt lat="47.118910001590848" lon="-0.163669986650348">
        <ele>30</ele>
        <time>2022-07-13T05:11:47Z</time>
      </trkpt>
      <trkpt lat="47.11887001991272" lon="-0.163660012185574">
        <ele>29</ele>
        <time>2022-07-13T05:11:50Z</time>
      </trkpt>
      <trkpt lat="47.118830038234591" lon="-0.163650037720799">
        <ele>28</ele>
        <time>2022-07-13T05:11:53Z</time>
      </trkpt>
      <trkpt lat="47.118789972737432" lon="-0.163650037720799">
        <ele>28</ele>
        <time>2022-07-13T05:11:55Z</time>
      </trkpt>
      <trkpt lat="47.118749991059303" lon="-0.163639979436994">
        <ele>27</ele>
        <time>2022-07-13T05:11:57Z</time>
      </trkpt>
      <trkpt lat="47.118719983845949" lon="-0.163639979436994">
        <ele>27</ele>
        <time>2022-07-13T05:11:59Z</time>
      </trkpt>
      <trkpt lat="47.118680002167821" lon="-0.163639979436994">
        <ele>26</ele>
        <time>2022-07-13T05:12:01Z</time>
      </trkpt>
      <trkpt lat="47.118640020489693" lon="-0.163639979436994">
        <ele>27</ele>
        <time>2022-07-13T05:12:04Z</time>
      </trkpt>
      <trkpt lat="47.118610013276339" lon="-0.163639979436994">
        <ele>27</ele>
        <time>2022-07-13T05:12:06Z</time>
      </trkpt>
      <trkpt lat="47.11857003159821" lon="-0.163650037720799">
        <ele>27</ele>
        <time>2022-07-13T05:12:09Z</time>
      </trkpt>
      <trkpt lat="47.11852996610105" lon="-0.163650037720799">
        <ele>27</ele>
        <time>2022-07-13T05:12:11Z</time>
      </trkpt>
      <trkpt lat="47.118499958887696" lon="-0.163650037720799">
        <ele>27</ele>
        <time>2022-07-13T05:12:13Z</time>
      </trkpt>
      <trkpt lat="47.118470035493374" lon="-0.163650037720799">
        <ele>28</ele>
        <time>2022-07-13T05:12:15Z</time>
      </trkpt>
      <trkpt lat="47.11844002828002" lon="-0.163660012185574">
        <ele>28</ele>
        <time>2022-07-13T05:12:17Z</time>
      </trkpt>
      <trkpt lat="47.118410021066666" lon="-0.163669986650348">
        <ele>30</ele>
        <time>2022-07-13T05:12:19Z</time>
      </trkpt>
      <trkpt lat="47.118370039388537" lon="-0.163669986650348">
        <ele>30</ele>
        <time>2022-07-13T05:12:21Z</time>
      </trkpt>
      <trkpt lat="47.118340032175183" lon="-0.163669986650348">
        <ele>30</ele>
        <time>2022-07-13T05:12:23Z</time>
      </trkpt>
      <trkpt lat="47.118310024961829" lon="-0.163669986650348">
        <ele>31</ele>
        <time>2022-07-13T05:12:25Z</time>
      </trkpt>
      <trkpt lat="47.118280017748475" lon="-0.163669986650348">
        <ele>30</ele>
        <time>2022-07-13T05:12:27Z</time>
      </trkpt>
      <trkpt lat="47.118250010535121" lon="-0.163660012185574">
        <ele>29</ele>
        <time>2022-07-13T05:12:29Z</time>
      </trkpt>
      <trkpt lat="47.118220003321767" lon="-0.163660012185574">
        <ele>29</ele>
        <time>2022-07-13T05:12:31Z</time>
      </trkpt>
      <trkpt lat="47.118189996108413" lon="-0.163660012185574">
        <ele>29</ele>
        <time>2022-07-13T05:12:33Z</time>
      </trkpt>
      <trkpt lat="47.118159988895059" lon="-0.163660012185574">
        <ele>28</ele>
        <time>2022-07-13T05:12:35Z</time>
      </trkpt>
      <trkpt lat="47.118129981681705" lon="-0.163650037720799">
        <ele>28</ele>
        <time>2022-07-13T05:12:37Z</time>
      </trkpt>
      <trkpt lat="47.11809997446835" lon="-0.163650037720799">
        <ele>28</ele>
        <time>2022-07-13T05:12:39Z</time>
      </trkpt>
      <trkpt lat="47.118069967254996" lon="-0.163660012185574">
        <ele>28</ele>
        <time>2022-07-13T05:12:41Z</time>
      </trkpt>
      <trkpt lat="47.118039960041642" lon="-0.163650037720799">
        <ele>28</ele>
        <time>2022-07-13T05:12:43Z</time>
      </trkpt>
      <trkpt lat="47.11801003664732" lon="-0.163650037720799">
        <ele>28</ele>
        <time>2022-07-13T05:12:45Z</time>
      </trkpt>
      <trkpt lat="47.117980029433966" lon="-0.163650037720799">
        <ele>28</ele>
        <time>2022-07-13T05:12:47Z</time>
      </trkpt>
      <trkpt lat="47.117950022220612" lon="-0.163639979436994">
        <ele>28</ele>
        <time>2022-07-13T05:12:49Z</time>
      </trkpt>
      <trkpt lat="47.117910040542483" lon="-0.163630004972219">
        <ele>28</ele>
        <time>2022-07-13T05:12:51Z</time>
      </trkpt>
      <trkpt lat="47.117880033329129" lon="-0.163630004972219">
        <ele>28</ele>
        <time>2022-07-13T05:12:53Z</time>
      </trkpt>
      <trkpt lat="47.117850026115775" lon="-0.163620030507445">
        <ele>29</ele>
        <time>2022-07-13T05:12:56Z</time>
      </trkpt>
      <trkpt lat="47.117809960618615" lon="-0.163620030507445">
        <ele>29</ele>
        <time>2022-07-13T05:12:59Z</time>
      </trkpt>
      <trkpt lat="47.117780037224293" lon="-0.163620030507445">
        <ele>29</ele>
        <time>2022-07-13T05:13:01Z</time>
      </trkpt>
      <trkpt lat="47.117750030010939" lon="-0.163630004972219">
        <ele>29</ele>
        <time>2022-07-13T05:13:03Z</time>
      </trkpt>
      <trkpt lat="47.117720022797585" lon="-0.163630004972219">
        <ele>29</ele>
        <time>2022-07-13T05:13:05Z</time>
      </trkpt>
      <trkpt lat="47.11769001558423" lon="-0.163650037720799">
        <ele>29</ele>
        <time>2022-07-13T05:13:07Z</time>
      </trkpt>
      <trkpt lat="47.11766998283565" lon="-0.163690019398928">
        <ele>29</ele>
        <time>2022-07-13T05:13:09Z</time>
      </trkpt>
      <trkpt lat="47.11766998283565" lon="-0.163730001077056">
        <ele>30</ele>
        <time>2022-07-13T05:13:11Z</time>
      </trkpt>
      <trkpt lat="47.11766998283565" lon="-0.163769982755184">
        <ele>29</ele>
        <time>2022-07-13T05:13:13Z</time>
      </trkpt>
      <trkpt lat="47.11766998283565" lon="-0.163820022717118">
        <ele>29</ele>
        <time>2022-07-13T05:13:15Z</time>
      </trkpt>
      <trkpt lat="47.117680041119456" lon="-0.163860004395247">
        <ele>29</ele>
        <time>2022-07-13T05:13:17Z</time>
      </trkpt>
      <trkpt lat="47.117680041119456" lon="-0.163909960538149">
        <ele>30</ele>
        <time>2022-07-13T05:13:19Z</time>
      </trkpt>
      <trkpt lat="47.11769001558423" lon="-0.163950026035309">
        <ele>29</ele>
        <time>2022-07-13T05:13:21Z</time>
      </trkpt>
      <trkpt lat="47.117699990049005" lon="-0.164010040462017">
        <ele>29</ele>
        <time>2022-07-13T05:13:24Z</time>
      </trkpt>
      <trkpt lat="47.117699990049005" lon="-0.164059996604919">
        <ele>29</ele>
        <time>2022-07-13T05:13:26Z</time>
      </trkpt>
      <trkpt lat="47.117709964513779" lon="-0.164110036566854">
        <ele>29</ele>
        <time>2022-07-13T05:13:28Z</time>
      </trkpt>
      <trkpt lat="47.117720022797585" lon="-0.16416996717453">
        <ele>30</ele>
        <time>2022-07-13T05:13:30Z</time>
      </trkpt>
      <trkpt lat="47.117729997262359" lon="-0.164220007136464">
        <ele>29</ele>
        <time>2022-07-13T05:13:32Z</time>
      </trkpt>
      <trkpt lat="47.117729997262359" lon="-0.164259988814592">
        <ele>28</ele>
        <time>2022-07-13T05:13:34Z</time>
      </trkpt>
      <trkpt lat="47.117750030010939" lon="-0.164310028776526">
        <ele>28</ele>
        <time>2022-07-13T05:13:36Z</time>
      </trkpt>
      <trkpt lat="47.117769978940487" lon="-0.164340035989881">
        <ele>28</ele>
        <time>2022-07-13T05:13:38Z</time>
      </trkpt>
      <trkpt lat="47.117780037224293" lon="-0.164380017668009">
        <ele>29</ele>
        <time>2022-07-13T05:13:40Z</time>
      </trkpt>
      <trkpt lat="47.117790011689067" lon="-0.164429973810911">
        <ele>29</ele>
        <time>2022-07-13T05:14:14Z</time>
      </trkpt>
      <trkpt lat="47.117809960618615" lon="-0.164480013772845">
        <ele>29</ele>
        <time>2022-07-13T05:14:16Z</time>
      </trkpt>
      <trkpt lat="47.117820018902421" lon="-0.164519995450974">
        <ele>29</ele>
        <time>2022-07-13T05:14:18Z</time>
      </trkpt>
      <trkpt lat="47.117839967831969" lon="-0.164559977129102">
        <ele>29</ele>
        <time>2022-07-13T05:14:20Z</time>
      </trkpt>
      <trkpt lat="47.117860000580549" lon="-0.16459995880723">
        <ele>28</ele>
        <time>2022-07-13T05:14:22Z</time>
      </trkpt>
      <trkpt lat="47.117869975045323" lon="-0.164629966020584">
        <ele>28</ele>
        <time>2022-07-13T05:14:24Z</time>
      </trkpt>
      <trkpt lat="47.117899982258677" lon="-0.164670031517744">
        <ele>27</ele>
        <time>2022-07-13T05:14:27Z</time>
      </trkpt>
      <trkpt lat="47.117920015007257" lon="-0.164710013195872">
        <ele>27</ele>
        <time>2022-07-13T05:14:30Z</time>
      </trkpt>
      <trkpt lat="47.117939963936806" lon="-0.164759969338775">
        <ele>27</ele>
        <time>2022-07-13T05:14:32Z</time>
      </trkpt>
      <trkpt lat="47.117950022220612" lon="-0.164810009300709">
        <ele>26</ele>
        <time>2022-07-13T05:14:34Z</time>
      </trkpt>
      <trkpt lat="47.11796997115016" lon="-0.164840016514063">
        <ele>26</ele>
        <time>2022-07-13T05:14:36Z</time>
      </trkpt>
      <trkpt lat="47.117980029433966" lon="-0.164889972656965">
        <ele>26</ele>
        <time>2022-07-13T05:14:38Z</time>
      </trkpt>
      <trkpt lat="47.11799000389874" lon="-0.164930038154125">
        <ele>26</ele>
        <time>2022-07-13T05:14:40Z</time>
      </trkpt>
      <trkpt lat="47.11801003664732" lon="-0.164970019832253">
        <ele>26</ele>
        <time>2022-07-13T05:14:43Z</time>
      </trkpt>
      <trkpt lat="47.118029985576868" lon="-0.165000027045608">
        <ele>25</ele>
        <time>2022-07-13T05:14:45Z</time>
      </trkpt>
      <trkpt lat="47.118050018325448" lon="-0.165030034258962">
        <ele>26</ele>
        <time>2022-07-13T05:14:47Z</time>
      </trkpt>
      <trkpt lat="47.118069967254996" lon="-0.16507001593709">
        <ele>26</ele>
        <time>2022-07-13T05:14:49Z</time>
      </trkpt>
      <trkpt lat="47.118090000003576" lon="-0.165109997615218">
        <ele>26</ele>
        <time>2022-07-13T05:14:52Z</time>
      </trkpt>
      <trkpt lat="47.118110032752156" lon="-0.165149979293346">
        <ele>26</ele>
        <time>2022-07-13T05:14:55Z</time>
      </trkpt>
      <trkpt lat="47.118129981681705" lon="-0.165189960971475">
        <ele>25</ele>
        <time>2022-07-13T05:14:57Z</time>
      </trkpt>
      <trkpt lat="47.118150014430285" lon="-0.165219968184829">
        <ele>25</ele>
        <time>2022-07-13T05:14:59Z</time>
      </trkpt>
      <trkpt lat="47.118180021643639" lon="-0.165249975398183">
        <ele>26</ele>
        <time>2022-07-13T05:15:01Z</time>
      </trkpt>
      <trkpt lat="47.118199970573187" lon="-0.165290040895343">
        <ele>26</ele>
        <time>2022-07-13T05:15:03Z</time>
      </trkpt>
      <trkpt lat="47.118220003321767" lon="-0.165330022573471">
        <ele>26</ele>
        <time>2022-07-13T05:15:06Z</time>
      </trkpt>
      <trkpt lat="47.118240036070347" lon="-0.165370004251599">
        <ele>27</ele>
        <time>2022-07-13T05:15:09Z</time>
      </trkpt>
      <trkpt lat="47.118269959464669" lon="-0.165409985929728">
        <ele>27</ele>
        <time>2022-07-13T05:15:11Z</time>
      </trkpt>
      <trkpt lat="47.118289992213249" lon="-0.165439993143082">
        <ele>27</ele>
        <time>2022-07-13T05:15:13Z</time>
      </trkpt>
      <trkpt lat="47.118319999426603" lon="-0.16547997482121">
        <ele>28</ele>
        <time>2022-07-13T05:15:16Z</time>
      </trkpt>
      <trkpt lat="47.118340032175183" lon="-0.16552004031837">
        <ele>28</ele>
        <time>2022-07-13T05:15:18Z</time>
      </trkpt>
      <trkpt lat="47.118359981104732" lon="-0.165560021996498">
        <ele>28</ele>
        <time>2022-07-13T05:15:20Z</time>
      </trkpt>
      <trkpt lat="47.118380013853312" lon="-0.165590029209852">
        <ele>28</ele>
        <time>2022-07-13T05:15:22Z</time>
      </trkpt>
      <trkpt lat="47.118410021066666" lon="-0.165620036423206">
        <ele>28</ele>
        <time>2022-07-13T05:15:24Z</time>
      </trkpt>
      <trkpt lat="47.118429969996214" lon="-0.165669992566109">
        <ele>28</ele>
        <time>2022-07-13T05:15:27Z</time>
      </trkpt>
      <trkpt lat="47.11844002828002" lon="-0.165709974244237">
        <ele>28</ele>
        <time>2022-07-13T05:15:29Z</time>
      </trkpt>
      <trkpt lat="47.118459977209568" lon="-0.165750039741397">
        <ele>29</ele>
        <time>2022-07-13T05:15:31Z</time>
      </trkpt>
      <trkpt lat="47.118480009958148" lon="-0.165790021419525">
        <ele>29</ele>
        <time>2022-07-13T05:15:33Z</time>
      </trkpt>
      <trkpt lat="47.118499958887696" lon="-0.165830003097653">
        <ele>28</ele>
        <time>2022-07-13T05:15:35Z</time>
      </trkpt>
      <trkpt lat="47.118519991636276" lon="-0.165869984775782">
        <ele>28</ele>
        <time>2022-07-13T05:15:37Z</time>
      </trkpt>
      <trkpt lat="47.118540024384856" lon="-0.16590996645391">
        <ele>29</ele>
        <time>2022-07-13T05:15:39Z</time>
      </trkpt>
      <trkpt lat="47.118559973314404" lon="-0.165939973667264">
        <ele>29</ele>
        <time>2022-07-13T05:15:41Z</time>
      </trkpt>
      <trkpt lat="47.118589980527759" lon="-0.165980039164424">
        <ele>30</ele>
        <time>2022-07-13T05:15:44Z</time>
      </trkpt>
      <trkpt lat="47.118610013276339" lon="-0.166029995307326">
        <ele>29</ele>
        <time>2022-07-13T05:15:47Z</time>
      </trkpt>
      <trkpt lat="47.118629962205887" lon="-0.166069976985455">
        <ele>29</ele>
        <time>2022-07-13T05:15:49Z</time>
      </trkpt>
      <trkpt lat="47.118659969419241" lon="-0.166120016947389">
        <ele>29</ele>
        <time>2022-07-13T05:15:52Z</time>
      </trkpt>
      <trkpt lat="47.118680002167821" lon="-0.166159998625517">
        <ele>28</ele>
        <time>2022-07-13T05:15:54Z</time>
      </trkpt>
      <trkpt lat="47.118700034916401" lon="-0.166190005838871">
        <ele>28</ele>
        <time>2022-07-13T05:15:56Z</time>
      </trkpt>
      <trkpt lat="47.118719983845949" lon="-0.166220013052225">
        <ele>27</ele>
        <time>2022-07-13T05:15:58Z</time>
      </trkpt>
      <trkpt lat="47.118740016594529" lon="-0.166259994730353">
        <ele>26</ele>
        <time>2022-07-13T05:16:01Z</time>
      </trkpt>
      <trkpt lat="47.118759965524077" lon="-0.166299976408482">
        <ele>26</ele>
        <time>2022-07-13T05:16:03Z</time>
      </trkpt>
      <trkpt lat="47.118779998272657" lon="-0.166340041905642">
        <ele>26</ele>
        <time>2022-07-13T05:16:06Z</time>
      </trkpt>
      <trkpt lat="47.118800031021237" lon="-0.16638002358377">
        <ele>26</ele>
        <time>2022-07-13T05:16:09Z</time>
      </trkpt>
      <trkpt lat="47.118819979950786" lon="-0.166420005261898">
        <ele>27</ele>
        <time>2022-07-13T05:16:11Z</time>
      </trkpt>
      <trkpt lat="47.118840012699366" lon="-0.166459986940026">
        <ele>27</ele>
        <time>2022-07-13T05:16:13Z</time>
      </trkpt>
      <trkpt lat="47.118859961628914" lon="-0.166499968618155">
        <ele>27</ele>
        <time>2022-07-13T05:16:16Z</time>
      </trkpt>
      <trkpt lat="47.118879994377494" lon="-0.166550008580089">
        <ele>27</ele>
        <time>2022-07-13T05:16:19Z</time>
      </trkpt>
      <trkpt lat="47.118910001590848" lon="-0.166589990258217">
        <ele>27</ele>
        <time>2022-07-13T05:16:22Z</time>
      </trkpt>
      <trkpt lat="47.118930034339428" lon="-0.166640030220151">
        <ele>28</ele>
        <time>2022-07-13T05:16:25Z</time>
      </trkpt>
      <trkpt lat="47.118949983268976" lon="-0.166670037433505">
        <ele>28</ele>
        <time>2022-07-13T05:16:27Z</time>
      </trkpt>
      <trkpt lat="47.11897999048233" lon="-0.166710019111633">
        <ele>28</ele>
        <time>2022-07-13T05:16:30Z</time>
      </trkpt>
      <trkpt lat="47.11900002323091" lon="-0.166740026324987">
        <ele>28</ele>
        <time>2022-07-13T05:16:32Z</time>
      </trkpt>
      <trkpt lat="47.119019972160459" lon="-0.166770033538342">
        <ele>29</ele>
        <time>2022-07-13T05:16:34Z</time>
      </trkpt>
      <trkpt lat="47.119040004909039" lon="-0.166800040751696">
        <ele>29</ele>
        <time>2022-07-13T05:16:36Z</time>
      </trkpt>
      <trkpt lat="47.119060037657619" lon="-0.166829964146018">
        <ele>29</ele>
        <time>2022-07-13T05:16:38Z</time>
      </trkpt>
      <trkpt lat="47.119089961051941" lon="-0.166849996894598">
        <ele>29</ele>
        <time>2022-07-13T05:16:40Z</time>
      </trkpt>
      <trkpt lat="47.119130026549101" lon="-0.166849996894598">
        <ele>29</ele>
        <time>2022-07-13T05:16:43Z</time>
      </trkpt>
      <trkpt lat="47.119160033762455" lon="-0.166840022429824">
        <ele>29</ele>
        <time>2022-07-13T05:16:45Z</time>
      </trkpt>
      <trkpt lat="47.119179982692003" lon="-0.166819989681244">
        <ele>29</ele>
        <time>2022-07-13T05:16:47Z</time>
      </trkpt>
      <trkpt lat="47.119209989905357" lon="-0.16678998246789">
        <ele>29</ele>
        <time>2022-07-13T05:16:49Z</time>
      </trkpt>
      <trkpt lat="47.119239997118711" lon="-0.166759975254536">
        <ele>29</ele>
        <time>2022-07-13T05:16:51Z</time>
      </trkpt>
      <trkpt lat="47.119270004332066" lon="-0.166740026324987">
        <ele>29</ele>
        <time>2022-07-13T05:16:53Z</time>
      </trkpt>
      <trkpt lat="47.119290037080646" lon="-0.166699960827827">
        <ele>27</ele>
        <time>2022-07-13T05:16:56Z</time>
      </trkpt>
      <trkpt lat="47.119319960474968" lon="-0.166659979149699">
        <ele>27</ele>
        <time>2022-07-13T05:16:59Z</time>
      </trkpt>
      <trkpt lat="47.119339993223548" lon="-0.166629971936345">
        <ele>28</ele>
        <time>2022-07-13T05:17:01Z</time>
      </trkpt>
      <trkpt lat="47.119360025972128" lon="-0.166599964722991">
        <ele>28</ele>
        <time>2022-07-13T05:17:03Z</time>
      </trkpt>
      <trkpt lat="47.119390033185482" lon="-0.166570041328669">
        <ele>29</ele>
        <time>2022-07-13T05:17:06Z</time>
      </trkpt>
      <trkpt lat="47.119420040398836" lon="-0.166540034115314">
        <ele>29</ele>
        <time>2022-07-13T05:17:08Z</time>
      </trkpt>
      <trkpt lat="47.119439989328384" lon="-0.16651002690196">
        <ele>29</ele>
        <time>2022-07-13T05:17:10Z</time>
      </trkpt>
      <trkpt lat="47.119460022076964" lon="-0.166480019688606">
        <ele>30</ele>
        <time>2022-07-13T05:17:12Z</time>
      </trkpt>
      <trkpt lat="47.119479971006513" lon="-0.166450012475252">
        <ele>30</ele>
        <time>2022-07-13T05:17:14Z</time>
      </trkpt>
      <trkpt lat="47.119509978219867" lon="-0.166429979726672">
        <ele>29</ele>
        <time>2022-07-13T05:17:16Z</time>
      </trkpt>
      <trkpt lat="47.119530010968447" lon="-0.166399972513318">
        <ele>29</ele>
        <time>2022-07-13T05:17:18Z</time>
      </trkpt>
      <trkpt lat="47.119560018181801" lon="-0.16638002358377">
        <ele>29</ele>
        <time>2022-07-13T05:17:20Z</time>
      </trkpt>
      <trkpt lat="47.119590025395155" lon="-0.16635999083519">
        <ele>29</ele>
        <time>2022-07-13T05:17:22Z</time>
      </trkpt>
      <trkpt lat="47.119609974324703" lon="-0.166340041905642">
        <ele>29</ele>
        <time>2022-07-13T05:17:24Z</time>
      </trkpt>
      <trkpt lat="47.119639981538057" lon="-0.166320009157062">
        <ele>28</ele>
        <time>2022-07-13T05:17:26Z</time>
      </trkpt>
      <trkpt lat="47.119660014286637" lon="-0.166290001943707">
        <ele>27</ele>
        <time>2022-07-13T05:17:28Z</time>
      </trkpt>
      <trkpt lat="47.119679963216186" lon="-0.166259994730353">
        <ele>26</ele>
        <time>2022-07-13T05:17:30Z</time>
      </trkpt>
      <trkpt lat="47.119699995964766" lon="-0.166229987516999">
        <ele>26</ele>
        <time>2022-07-13T05:17:32Z</time>
      </trkpt>
      <trkpt lat="47.119720028713346" lon="-0.166199980303645">
        <ele>26</ele>
        <time>2022-07-13T05:17:34Z</time>
      </trkpt>
      <trkpt lat="47.1197500359267" lon="-0.166169973090291">
        <ele>26</ele>
        <time>2022-07-13T05:17:36Z</time>
      </trkpt>
      <trkpt lat="47.119769984856248" lon="-0.166139965876937">
        <ele>26</ele>
        <time>2022-07-13T05:17:38Z</time>
      </trkpt>
      <trkpt lat="47.119790017604828" lon="-0.166109958663583">
        <ele>26</ele>
        <time>2022-07-13T05:17:40Z</time>
      </trkpt>
      <trkpt lat="47.119820024818182" lon="-0.166090009734035">
        <ele>26</ele>
        <time>2022-07-13T05:17:42Z</time>
      </trkpt>
      <trkpt lat="47.119850032031536" lon="-0.166050028055906">
        <ele>26</ele>
        <time>2022-07-13T05:17:45Z</time>
      </trkpt>
      <trkpt lat="47.119869980961084" lon="-0.166020020842552">
        <ele>26</ele>
        <time>2022-07-13T05:17:47Z</time>
      </trkpt>
      <trkpt lat="47.119899988174438" lon="-0.165990013629198">
        <ele>26</ele>
        <time>2022-07-13T05:17:49Z</time>
      </trkpt>
      <trkpt lat="47.119920020923018" lon="-0.165960006415844">
        <ele>27</ele>
        <time>2022-07-13T05:17:51Z</time>
      </trkpt>
      <trkpt lat="47.119950028136373" lon="-0.165920024737716">
        <ele>26</ele>
        <time>2022-07-13T05:17:54Z</time>
      </trkpt>
      <trkpt lat="47.119980035349727" lon="-0.165879959240556">
        <ele>25</ele>
        <time>2022-07-13T05:17:56Z</time>
      </trkpt>
      <trkpt lat="47.120009958744049" lon="-0.165850035846233">
        <ele>24</ele>
        <time>2022-07-13T05:17:58Z</time>
      </trkpt>
      <trkpt lat="47.120029991492629" lon="-0.165820028632879">
        <ele>24</ele>
        <time>2022-07-13T05:18:00Z</time>
      </trkpt>
      <trkpt lat="47.120059998705983" lon="-0.165790021419525">
        <ele>23</ele>
        <time>2022-07-13T05:18:02Z</time>
      </trkpt>
      <trkpt lat="47.120080031454563" lon="-0.165760014206171">
        <ele>23</ele>
        <time>2022-07-13T05:18:04Z</time>
      </trkpt>
      <trkpt lat="47.120099980384111" lon="-0.165730006992817">
        <ele>23</ele>
        <time>2022-07-13T05:18:06Z</time>
      </trkpt>
      <trkpt lat="47.120120013132691" lon="-0.165709974244237">
        <ele>23</ele>
        <time>2022-07-13T05:18:08Z</time>
      </trkpt>
      <trkpt lat="47.120150020346045" lon="-0.165679967030883">
        <ele>23</ele>
        <time>2022-07-13T05:18:11Z</time>
      </trkpt>
      <trkpt lat="47.1201800275594" lon="-0.165649959817529">
        <ele>23</ele>
        <time>2022-07-13T05:18:13Z</time>
      </trkpt>
      <trkpt lat="47.120199976488948" lon="-0.165620036423206">
        <ele>24</ele>
        <time>2022-07-13T05:18:15Z</time>
      </trkpt>
      <trkpt lat="47.120220009237528" lon="-0.165600003674626">
        <ele>24</ele>
        <time>2022-07-13T05:18:17Z</time>
      </trkpt>
      <trkpt lat="47.120250016450882" lon="-0.165569996461272">
        <ele>24</ele>
        <time>2022-07-13T05:18:20Z</time>
      </trkpt>
      <trkpt lat="47.120280023664236" lon="-0.165530014783144">
        <ele>25</ele>
        <time>2022-07-13T05:18:22Z</time>
      </trkpt>
      <trkpt lat="47.120299972593784" lon="-0.165509982034564">
        <ele>25</ele>
        <time>2022-07-13T05:18:24Z</time>
      </trkpt>
      <trkpt lat="47.120329979807138" lon="-0.16547997482121">
        <ele>25</ele>
        <time>2022-07-13T05:18:26Z</time>
      </trkpt>
      <trkpt lat="47.120359987020493" lon="-0.165449967607856">
        <ele>25</ele>
        <time>2022-07-13T05:18:29Z</time>
      </trkpt>
      <trkpt lat="47.120389994233847" lon="-0.165419960394502">
        <ele>25</ele>
        <time>2022-07-13T05:18:31Z</time>
      </trkpt>
      <trkpt lat="47.120410026982427" lon="-0.165390037000179">
        <ele>26</ele>
        <time>2022-07-13T05:18:33Z</time>
      </trkpt>
      <trkpt lat="47.120440034195781" lon="-0.165360029786825">
        <ele>26</ele>
        <time>2022-07-13T05:18:35Z</time>
      </trkpt>
      <trkpt lat="47.120470041409135" lon="-0.165319964289665">
        <ele>26</ele>
        <time>2022-07-13T05:18:37Z</time>
      </trkpt>
      <trkpt lat="47.120499964803457" lon="-0.165290040895343">
        <ele>25</ele>
        <time>2022-07-13T05:18:39Z</time>
      </trkpt>
      <trkpt lat="47.120519997552037" lon="-0.165260033681989">
        <ele>25</ele>
        <time>2022-07-13T05:18:41Z</time>
      </trkpt>
      <trkpt lat="47.120550004765391" lon="-0.165230026468635">
        <ele>25</ele>
        <time>2022-07-13T05:18:44Z</time>
      </trkpt>
      <trkpt lat="47.120570037513971" lon="-0.16520001925528">
        <ele>25</ele>
        <time>2022-07-13T05:18:46Z</time>
      </trkpt>
      <trkpt lat="47.12058998644352" lon="-0.165179986506701">
        <ele>25</ele>
        <time>2022-07-13T05:18:48Z</time>
      </trkpt>
      <trkpt lat="47.120619993656874" lon="-0.165149979293346">
        <ele>25</ele>
        <time>2022-07-13T05:18:50Z</time>
      </trkpt>
      <trkpt lat="47.120640026405454" lon="-0.165130030363798">
        <ele>25</ele>
        <time>2022-07-13T05:18:52Z</time>
      </trkpt>
      <trkpt lat="47.120670033618808" lon="-0.165100023150444">
        <ele>26</ele>
        <time>2022-07-13T05:18:54Z</time>
      </trkpt>
      <trkpt lat="47.120689982548356" lon="-0.16507001593709">
        <ele>26</ele>
        <time>2022-07-13T05:18:56Z</time>
      </trkpt>
      <trkpt lat="47.12071998976171" lon="-0.16504998318851">
        <ele>26</ele>
        <time>2022-07-13T05:18:58Z</time>
      </trkpt>
      <trkpt lat="47.120749996975064" lon="-0.165019975975156">
        <ele>26</ele>
        <time>2022-07-13T05:19:00Z</time>
      </trkpt>
      <trkpt lat="47.120780004188418" lon="-0.164989968761802">
        <ele>26</ele>
        <time>2022-07-13T05:19:03Z</time>
      </trkpt>
      <trkpt lat="47.120810011401772" lon="-0.164959961548448">
        <ele>26</ele>
        <time>2022-07-13T05:19:05Z</time>
      </trkpt>
      <trkpt lat="47.120840018615127" lon="-0.164940012618899">
        <ele>26</ele>
        <time>2022-07-13T05:19:07Z</time>
      </trkpt>
      <trkpt lat="47.120870025828481" lon="-0.164910005405545">
        <ele>26</ele>
        <time>2022-07-13T05:19:09Z</time>
      </trkpt>
      <trkpt lat="47.120889974758029" lon="-0.164889972656965">
        <ele>26</ele>
        <time>2022-07-13T05:19:11Z</time>
      </trkpt>
      <trkpt lat="47.120919981971383" lon="-0.164859965443611">
        <ele>26</ele>
        <time>2022-07-13T05:19:13Z</time>
      </trkpt>
      <trkpt lat="47.120949989184737" lon="-0.164829958230257">
        <ele>27</ele>
        <time>2022-07-13T05:19:16Z</time>
      </trkpt>
      <trkpt lat="47.120979996398091" lon="-0.164800034835935">
        <ele>27</ele>
        <time>2022-07-13T05:19:19Z</time>
      </trkpt>
      <trkpt lat="47.121000029146671" lon="-0.164770027622581">
        <ele>28</ele>
        <time>2022-07-13T05:19:21Z</time>
      </trkpt>
      <trkpt lat="47.121030036360025" lon="-0.164740020409226">
        <ele>28</ele>
        <time>2022-07-13T05:19:24Z</time>
      </trkpt>
      <trkpt lat="47.121059959754348" lon="-0.164740020409226">
        <ele>28</ele>
        <time>2022-07-13T05:19:27Z</time>
      </trkpt>
      <trkpt lat="47.121089966967702" lon="-0.164719987660646">
        <ele>28</ele>
        <time>2022-07-13T05:19:31Z</time>
      </trkpt>
      <trkpt lat="47.121109999716282" lon="-0.164700038731098">
        <ele>27</ele>
        <time>2022-07-13T05:19:33Z</time>
      </trkpt>
      <trkpt lat="47.121140006929636" lon="-0.164670031517744">
        <ele>26</ele>
        <time>2022-07-13T05:19:35Z</time>
      </trkpt>
      <trkpt lat="47.121160039678216" lon="-0.164649998769164">
        <ele>26</ele>
        <time>2022-07-13T05:19:37Z</time>
      </trkpt>
      <trkpt lat="47.121189963072538" lon="-0.16461999155581">
        <ele>26</ele>
        <time>2022-07-13T05:19:39Z</time>
      </trkpt>
      <trkpt lat="47.121209995821118" lon="-0.16459995880723">
        <ele>26</ele>
        <time>2022-07-13T05:19:41Z</time>
      </trkpt>
      <trkpt lat="47.121240003034472" lon="-0.164570035412908">
        <ele>26</ele>
        <time>2022-07-13T05:19:44Z</time>
      </trkpt>
      <trkpt lat="47.121270010247827" lon="-0.164559977129102">
        <ele>26</ele>
        <time>2022-07-13T05:19:46Z</time>
      </trkpt>
      <trkpt lat="47.121300017461181" lon="-0.164540028199553">
        <ele>25</ele>
        <time>2022-07-13T05:19:48Z</time>
      </trkpt>
      <trkpt lat="47.121330024674535" lon="-0.164519995450974">
        <ele>25</ele>
        <time>2022-07-13T05:19:51Z</time>
      </trkpt>
      <trkpt lat="47.121370006352663" lon="-0.164489988237619">
        <ele>25</ele>
        <time>2022-07-13T05:19:54Z</time>
      </trkpt>
      <trkpt lat="47.121400013566017" lon="-0.164470039308071">
        <ele>25</ele>
        <time>2022-07-13T05:19:56Z</time>
      </trkpt>
      <trkpt lat="47.121419962495565" lon="-0.164440032094717">
        <ele>24</ele>
        <time>2022-07-13T05:19:58Z</time>
      </trkpt>
      <trkpt lat="47.12144996970892" lon="-0.164419999346137">
        <ele>24</ele>
        <time>2022-07-13T05:20:00Z</time>
      </trkpt>
      <trkpt lat="47.121479976922274" lon="-0.164410024881363">
        <ele>24</ele>
        <time>2022-07-13T05:20:02Z</time>
      </trkpt>
      <trkpt lat="47.121500009670854" lon="-0.164380017668009">
        <ele>24</ele>
        <time>2022-07-13T05:20:04Z</time>
      </trkpt>
      <trkpt lat="47.121530016884208" lon="-0.164350010454655">
        <ele>25</ele>
        <time>2022-07-13T05:20:06Z</time>
      </trkpt>
      <trkpt lat="47.121560024097562" lon="-0.164329977706075">
        <ele>25</ele>
        <time>2022-07-13T05:20:08Z</time>
      </trkpt>
      <trkpt lat="47.12157997302711" lon="-0.164310028776526">
        <ele>25</ele>
        <time>2022-07-13T05:20:10Z</time>
      </trkpt>
      <trkpt lat="47.121609980240464" lon="-0.164289996027946">
        <ele>26</ele>
        <time>2022-07-13T05:20:12Z</time>
      </trkpt>
      <trkpt lat="47.121639987453818" lon="-0.164259988814592">
        <ele>26</ele>
        <time>2022-07-13T05:20:14Z</time>
      </trkpt>
      <trkpt lat="47.121669994667172" lon="-0.164240039885044">
        <ele>27</ele>
        <time>2022-07-13T05:20:16Z</time>
      </trkpt>
      <trkpt lat="47.121700001880527" lon="-0.164220007136464">
        <ele>27</ele>
        <time>2022-07-13T05:20:18Z</time>
      </trkpt>
      <trkpt lat="47.121730009093881" lon="-0.16421003267169">
        <ele>27</ele>
        <time>2022-07-13T05:20:21Z</time>
      </trkpt>
      <trkpt lat="47.121769990772009" lon="-0.16418999992311">
        <ele>27</ele>
        <time>2022-07-13T05:20:23Z</time>
      </trkpt>
      <trkpt lat="47.121799997985363" lon="-0.164180025458336">
        <ele>27</ele>
        <time>2022-07-13T05:20:25Z</time>
      </trkpt>
      <trkpt lat="47.121839979663491" lon="-0.164180025458336">
        <ele>27</ele>
        <time>2022-07-13T05:20:28Z</time>
      </trkpt>
      <trkpt lat="47.121869986876845" lon="-0.164180025458336">
        <ele>28</ele>
        <time>2022-07-13T05:20:30Z</time>
      </trkpt>
      <trkpt lat="47.121909968554974" lon="-0.16418999992311">
        <ele>28</ele>
        <time>2022-07-13T05:20:33Z</time>
      </trkpt>
      <trkpt lat="47.121939975768328" lon="-0.164199974387884">
        <ele>28</ele>
        <time>2022-07-13T05:20:35Z</time>
      </trkpt>
      <trkpt lat="47.121969982981682" lon="-0.16421003267169">
        <ele>28</ele>
        <time>2022-07-13T05:20:37Z</time>
      </trkpt>
      <trkpt lat="47.12200996465981" lon="-0.164220007136464">
        <ele>28</ele>
        <time>2022-07-13T05:20:39Z</time>
      </trkpt>
      <trkpt lat="47.122039971873164" lon="-0.164229981601238">
        <ele>28</ele>
        <time>2022-07-13T05:20:41Z</time>
      </trkpt>
      <trkpt lat="47.122069979086518" lon="-0.164240039885044">
        <ele>27</ele>
        <time>2022-07-13T05:20:43Z</time>
      </trkpt>
      <trkpt lat="47.122109960764647" lon="-0.164240039885044">
        <ele>27</ele>
        <time>2022-07-13T05:20:46Z</time>
      </trkpt>
      <trkpt lat="47.122139967978001" lon="-0.164259988814592">
        <ele>26</ele>
        <time>2022-07-13T05:20:49Z</time>
      </trkpt>
      <trkpt lat="47.122139967978001" lon="-0.164250014349818">
        <ele>24</ele>
        <time>2022-07-13T05:21:05Z</time>
      </trkpt>
      <trkpt lat="47.122109960764647" lon="-0.164229981601238">
        <ele>24</ele>
        <time>2022-07-13T05:21:08Z</time>
      </trkpt>
      <trkpt lat="47.122080037370324" lon="-0.164220007136464">
        <ele>24</ele>
        <time>2022-07-13T05:21:11Z</time>
      </trkpt>
      <trkpt lat="47.12205003015697" lon="-0.16421003267169">
        <ele>24</ele>
        <time>2022-07-13T05:21:13Z</time>
      </trkpt>
      <trkpt lat="47.122020022943616" lon="-0.16421003267169">
        <ele>24</ele>
        <time>2022-07-13T05:21:16Z</time>
      </trkpt>
      <trkpt lat="47.121990015730262" lon="-0.16421003267169">
        <ele>24</ele>
        <time>2022-07-13T05:21:18Z</time>
      </trkpt>
      <trkpt lat="47.121960008516908" lon="-0.164199974387884">
        <ele>24</ele>
        <time>2022-07-13T05:21:20Z</time>
      </trkpt>
      <trkpt lat="47.121930001303554" lon="-0.164199974387884">
        <ele>24</ele>
        <time>2022-07-13T05:21:22Z</time>
      </trkpt>
      <trkpt lat="47.121899994090199" lon="-0.16418999992311">
        <ele>24</ele>
        <time>2022-07-13T05:21:25Z</time>
      </trkpt>
      <trkpt lat="47.121860012412071" lon="-0.16418999992311">
        <ele>25</ele>
        <time>2022-07-13T05:21:27Z</time>
      </trkpt>
      <trkpt lat="47.121839979663491" lon="-0.164180025458336">
        <ele>25</ele>
        <time>2022-07-13T05:21:29Z</time>
      </trkpt>
      <trkpt lat="47.121809972450137" lon="-0.164180025458336">
        <ele>25</ele>
        <time>2022-07-13T05:21:31Z</time>
      </trkpt>
      <trkpt lat="47.121779965236783" lon="-0.16418999992311">
        <ele>25</ele>
        <time>2022-07-13T05:21:33Z</time>
      </trkpt>
      <trkpt lat="47.121739983558655" lon="-0.16418999992311">
        <ele>26</ele>
        <time>2022-07-13T05:21:36Z</time>
      </trkpt>
      <trkpt lat="47.121709976345301" lon="-0.164199974387884">
        <ele>26</ele>
        <time>2022-07-13T05:21:38Z</time>
      </trkpt>
      <trkpt lat="47.121679969131947" lon="-0.164220007136464">
        <ele>26</ele>
        <time>2022-07-13T05:21:41Z</time>
      </trkpt>
      <trkpt lat="47.121649961918592" lon="-0.164229981601238">
        <ele>26</ele>
        <time>2022-07-13T05:21:43Z</time>
      </trkpt>
      <trkpt lat="47.12162003852427" lon="-0.164259988814592">
        <ele>25</ele>
        <time>2022-07-13T05:21:46Z</time>
      </trkpt>
      <trkpt lat="47.121590031310916" lon="-0.164280021563172">
        <ele>25</ele>
        <time>2022-07-13T05:21:48Z</time>
      </trkpt>
      <trkpt lat="47.121560024097562" lon="-0.164310028776526">
        <ele>24</ele>
        <time>2022-07-13T05:21:51Z</time>
      </trkpt>
      <trkpt lat="47.121549965813756" lon="-0.164350010454655">
        <ele>23</ele>
        <time>2022-07-13T05:21:55Z</time>
      </trkpt>
      <trkpt lat="47.121519958600402" lon="-0.164369959384203">
        <ele>22</ele>
        <time>2022-07-13T05:22:02Z</time>
      </trkpt>
      <trkpt lat="47.121500009670854" lon="-0.164380017668009">
        <ele>21</ele>
        <time>2022-07-13T05:22:04Z</time>
      </trkpt>
      <trkpt lat="47.1214700024575" lon="-0.164399966597557">
        <ele>21</ele>
        <time>2022-07-13T05:22:06Z</time>
      </trkpt>
      <trkpt lat="47.121439995244145" lon="-0.164419999346137">
        <ele>21</ele>
        <time>2022-07-13T05:22:08Z</time>
      </trkpt>
      <trkpt lat="47.121419962495565" lon="-0.164440032094717">
        <ele>22</ele>
        <time>2022-07-13T05:22:10Z</time>
      </trkpt>
      <trkpt lat="47.121390039101243" lon="-0.164470039308071">
        <ele>22</ele>
        <time>2022-07-13T05:22:13Z</time>
      </trkpt>
      <trkpt lat="47.121360031887889" lon="-0.164480013772845">
        <ele>22</ele>
        <time>2022-07-13T05:22:16Z</time>
      </trkpt>
      <trkpt lat="47.121330024674535" lon="-0.164499962702394">
        <ele>21</ele>
        <time>2022-07-13T05:22:23Z</time>
      </trkpt>
      <trkpt lat="47.121300017461181" lon="-0.164519995450974">
        <ele>22</ele>
        <time>2022-07-13T05:22:27Z</time>
      </trkpt>
      <trkpt lat="47.121309991925955" lon="-0.164519995450974">
        <ele>21</ele>
        <time>2022-07-13T05:22:35Z</time>
      </trkpt>
      <trkpt lat="47.121330024674535" lon="-0.164519995450974">
        <ele>20</ele>
        <time>2022-07-13T05:22:38Z</time>
      </trkpt>
      <trkpt lat="47.121360031887889" lon="-0.164510020986199">
        <ele>20</ele>
        <time>2022-07-13T05:22:41Z</time>
      </trkpt>
      <trkpt lat="47.121390039101243" lon="-0.164489988237619">
        <ele>20</ele>
        <time>2022-07-13T05:22:44Z</time>
      </trkpt>
      <trkpt lat="47.121419962495565" lon="-0.164470039308071">
        <ele>20</ele>
        <time>2022-07-13T05:22:46Z</time>
      </trkpt>
      <trkpt lat="47.121439995244145" lon="-0.164450006559491">
        <ele>20</ele>
        <time>2022-07-13T05:22:48Z</time>
      </trkpt>
      <trkpt lat="47.1214700024575" lon="-0.164429973810911">
        <ele>20</ele>
        <time>2022-07-13T05:22:50Z</time>
      </trkpt>
      <trkpt lat="47.121500009670854" lon="-0.164399966597557">
        <ele>20</ele>
        <time>2022-07-13T05:22:52Z</time>
      </trkpt>
      <trkpt lat="47.121530016884208" lon="-0.164369959384203">
        <ele>19</ele>
        <time>2022-07-13T05:22:55Z</time>
      </trkpt>
      <trkpt lat="47.121560024097562" lon="-0.164329977706075">
        <ele>18</ele>
        <time>2022-07-13T05:22:57Z</time>
      </trkpt>
      <trkpt lat="47.121590031310916" lon="-0.164310028776526">
        <ele>18</ele>
        <time>2022-07-13T05:22:59Z</time>
      </trkpt>
      <trkpt lat="47.12162003852427" lon="-0.164280021563172">
        <ele>19</ele>
        <time>2022-07-13T05:23:01Z</time>
      </trkpt>
      <trkpt lat="47.121639987453818" lon="-0.164259988814592">
        <ele>19</ele>
        <time>2022-07-13T05:23:03Z</time>
      </trkpt>
      <trkpt lat="47.121669994667172" lon="-0.164240039885044">
        <ele>20</ele>
        <time>2022-07-13T05:23:05Z</time>
      </trkpt>
      <trkpt lat="47.121700001880527" lon="-0.164220007136464">
        <ele>21</ele>
        <time>2022-07-13T05:23:07Z</time>
      </trkpt>
      <trkpt lat="47.121730009093881" lon="-0.16418999992311">
        <ele>22</ele>
        <time>2022-07-13T05:23:09Z</time>
      </trkpt>
      <trkpt lat="47.121760016307235" lon="-0.164180025458336">
        <ele>20</ele>
        <time>2022-07-13T05:23:11Z</time>
      </trkpt>
      <trkpt lat="47.121799997985363" lon="-0.164159992709756">
        <ele>21</ele>
        <time>2022-07-13T05:23:14Z</time>
      </trkpt>
      <trkpt lat="47.121830005198717" lon="-0.164159992709756">
        <ele>21</ele>
        <time>2022-07-13T05:23:16Z</time>
      </trkpt>
      <trkpt lat="47.121860012412071" lon="-0.164159992709756">
        <ele>21</ele>
        <time>2022-07-13T05:23:18Z</time>
      </trkpt>
      <trkpt lat="47.121890019625425" lon="-0.164159992709756">
        <ele>21</ele>
        <time>2022-07-13T05:23:20Z</time>
      </trkpt>
      <trkpt lat="47.121920026838779" lon="-0.16416996717453">
        <ele>21</ele>
        <time>2022-07-13T05:23:22Z</time>
      </trkpt>
      <trkpt lat="47.121960008516908" lon="-0.164180025458336">
        <ele>22</ele>
        <time>2022-07-13T05:23:25Z</time>
      </trkpt>
      <trkpt lat="47.121990015730262" lon="-0.16418999992311">
        <ele>23</ele>
        <time>2022-07-13T05:23:27Z</time>
      </trkpt>
      <trkpt lat="47.122020022943616" lon="-0.164199974387884">
        <ele>23</ele>
        <time>2022-07-13T05:23:30Z</time>
      </trkpt>
      <trkpt lat="47.122060004621744" lon="-0.16421003267169">
        <ele>24</ele>
        <time>2022-07-13T05:23:33Z</time>
      </trkpt>
      <trkpt lat="47.122090011835098" lon="-0.16421003267169">
        <ele>25</ele>
        <time>2022-07-13T05:23:35Z</time>
      </trkpt>
      <trkpt lat="47.122120019048452" lon="-0.164220007136464">
        <ele>25</ele>
        <time>2022-07-13T05:23:37Z</time>
      </trkpt>
      <trkpt lat="47.122139967978001" lon="-0.164240039885044">
        <ele>25</ele>
        <time>2022-07-13T05:23:39Z</time>
      </trkpt>
      <trkpt lat="47.122169975191355" lon="-0.164250014349818">
        <ele>24</ele>
        <time>2022-07-13T05:23:42Z</time>
      </trkpt>
      <trkpt lat="47.122210040688515" lon="-0.164259988814592">
        <ele>24</ele>
        <time>2022-07-13T05:23:45Z</time>
      </trkpt>
      <trkpt lat="47.122250022366643" lon="-0.164280021563172">
        <ele>25</ele>
        <time>2022-07-13T05:23:47Z</time>
      </trkpt>
      <trkpt lat="47.122259996831417" lon="-0.164310028776526">
        <ele>25</ele>
        <time>2022-07-13T05:23:50Z</time>
      </trkpt>
      <trkpt lat="47.122269971296191" lon="-0.164350010454655">
        <ele>25</ele>
        <time>2022-07-13T05:23:52Z</time>
      </trkpt>
      <trkpt lat="47.122280029579997" lon="-0.164399966597557">
        <ele>26</ele>
        <time>2022-07-13T05:23:55Z</time>
      </trkpt>
      <trkpt lat="47.122280029579997" lon="-0.164450006559491">
        <ele>27</ele>
        <time>2022-07-13T05:23:58Z</time>
      </trkpt>
      <trkpt lat="47.122280029579997" lon="-0.164499962702394">
        <ele>27</ele>
        <time>2022-07-13T05:24:00Z</time>
      </trkpt>
      <trkpt lat="47.122290004044771" lon="-0.164550002664328">
        <ele>26</ele>
        <time>2022-07-13T05:24:03Z</time>
      </trkpt>
      <trkpt lat="47.122299978509545" lon="-0.164589984342456">
        <ele>25</ele>
        <time>2022-07-13T05:24:06Z</time>
      </trkpt>
      <trkpt lat="47.122310036793351" lon="-0.16464002430439">
        <ele>24</ele>
        <time>2022-07-13T05:24:08Z</time>
      </trkpt>
      <trkpt lat="47.122320011258125" lon="-0.164670031517744">
        <ele>24</ele>
        <time>2022-07-13T05:24:10Z</time>
      </trkpt>
      <trkpt lat="47.122329985722899" lon="-0.164719987660646">
        <ele>24</ele>
        <time>2022-07-13T05:24:13Z</time>
      </trkpt>
      <trkpt lat="47.122339960187674" lon="-0.164780002087355">
        <ele>23</ele>
        <time>2022-07-13T05:24:16Z</time>
      </trkpt>
      <trkpt lat="47.122339960187674" lon="-0.164829958230257">
        <ele>23</ele>
        <time>2022-07-13T05:24:18Z</time>
      </trkpt>
      <trkpt lat="47.122350018471479" lon="-0.164870023727417">
        <ele>22</ele>
        <time>2022-07-13T05:24:20Z</time>
      </trkpt>
      <trkpt lat="47.122369967401028" lon="-0.164910005405545">
        <ele>22</ele>
        <time>2022-07-13T05:24:23Z</time>
      </trkpt>
      <trkpt lat="47.122380025684834" lon="-0.164949987083673">
        <ele>22</ele>
        <time>2022-07-13T05:24:26Z</time>
      </trkpt>
      <trkpt lat="47.122399974614382" lon="-0.164989968761802">
        <ele>22</ele>
        <time>2022-07-13T05:24:28Z</time>
      </trkpt>
      <trkpt lat="47.122410032898188" lon="-0.165030034258962">
        <ele>22</ele>
        <time>2022-07-13T05:24:30Z</time>
      </trkpt>
      <trkpt lat="47.122420007362962" lon="-0.16507001593709">
        <ele>22</ele>
        <time>2022-07-13T05:24:32Z</time>
      </trkpt>
      <trkpt lat="47.122429981827736" lon="-0.165119972079992">
        <ele>22</ele>
        <time>2022-07-13T05:24:34Z</time>
      </trkpt>
      <trkpt lat="47.122450014576316" lon="-0.165170012041926">
        <ele>23</ele>
        <time>2022-07-13T05:24:37Z</time>
      </trkpt>
      <trkpt lat="47.12245998904109" lon="-0.165219968184829">
        <ele>24</ele>
        <time>2022-07-13T05:24:40Z</time>
      </trkpt>
      <trkpt lat="47.122469963505864" lon="-0.165270008146763">
        <ele>24</ele>
        <time>2022-07-13T05:24:42Z</time>
      </trkpt>
      <trkpt lat="47.122489996254444" lon="-0.165300015360117">
        <ele>23</ele>
        <time>2022-07-13T05:24:44Z</time>
      </trkpt>
      <trkpt lat="47.122499970719218" lon="-0.165349971503019">
        <ele>22</ele>
        <time>2022-07-13T05:24:46Z</time>
      </trkpt>
      <trkpt lat="47.122499970719218" lon="-0.165390037000179">
        <ele>21</ele>
        <time>2022-07-13T05:24:48Z</time>
      </trkpt>
      <trkpt lat="47.122499970719218" lon="-0.165439993143082">
        <ele>20</ele>
        <time>2022-07-13T05:24:50Z</time>
      </trkpt>
      <trkpt lat="47.122499970719218" lon="-0.165490033105016">
        <ele>20</ele>
        <time>2022-07-13T05:24:53Z</time>
      </trkpt>
      <trkpt lat="47.122499970719218" lon="-0.165539989247918">
        <ele>21</ele>
        <time>2022-07-13T05:24:56Z</time>
      </trkpt>
      <trkpt lat="47.122489996254444" lon="-0.165579970926046">
        <ele>21</ele>
        <time>2022-07-13T05:24:58Z</time>
      </trkpt>
      <trkpt lat="47.122489996254444" lon="-0.165620036423206">
        <ele>21</ele>
        <time>2022-07-13T05:25:01Z</time>
      </trkpt>
      <trkpt lat="47.122499970719218" lon="-0.165660018101335">
        <ele>24</ele>
        <time>2022-07-13T05:25:12Z</time>
      </trkpt>
      <trkpt lat="47.122510029003024" lon="-0.165639985352755">
        <ele>25</ele>
        <time>2022-07-13T05:25:20Z</time>
      </trkpt>
      <trkpt lat="47.122520003467798" lon="-0.1656099781394">
        <ele>26</ele>
        <time>2022-07-13T05:25:25Z</time>
      </trkpt>
      <trkpt lat="47.122520003467798" lon="-0.165560021996498">
        <ele>26</ele>
        <time>2022-07-13T05:25:28Z</time>
      </trkpt>
      <trkpt lat="47.122520003467798" lon="-0.16552004031837">
        <ele>26</ele>
        <time>2022-07-13T05:25:30Z</time>
      </trkpt>
      <trkpt lat="47.122510029003024" lon="-0.165470000356436">
        <ele>26</ele>
        <time>2022-07-13T05:25:33Z</time>
      </trkpt>
      <trkpt lat="47.122510029003024" lon="-0.165430018678308">
        <ele>26</ele>
        <time>2022-07-13T05:25:35Z</time>
      </trkpt>
      <trkpt lat="47.122499970719218" lon="-0.165390037000179">
        <ele>26</ele>
        <time>2022-07-13T05:25:38Z</time>
      </trkpt>
      <trkpt lat="47.122489996254444" lon="-0.165339997038245">
        <ele>25</ele>
        <time>2022-07-13T05:25:41Z</time>
      </trkpt>
      <trkpt lat="47.12248002178967" lon="-0.165300015360117">
        <ele>25</ele>
        <time>2022-07-13T05:25:43Z</time>
      </trkpt>
      <trkpt lat="47.12245998904109" lon="-0.165249975398183">
        <ele>25</ele>
        <time>2022-07-13T05:25:46Z</time>
      </trkpt>
      <trkpt lat="47.122440040111542" lon="-0.16520001925528">
        <ele>25</ele>
        <time>2022-07-13T05:25:49Z</time>
      </trkpt>
      <trkpt lat="47.122429981827736" lon="-0.165160037577152">
        <ele>25</ele>
        <time>2022-07-13T05:25:52Z</time>
      </trkpt>
      <trkpt lat="47.122420007362962" lon="-0.165109997615218">
        <ele>26</ele>
        <time>2022-07-13T05:25:54Z</time>
      </trkpt>
      <trkpt lat="47.122410032898188" lon="-0.16507001593709">
        <ele>26</ele>
        <time>2022-07-13T05:25:56Z</time>
      </trkpt>
      <trkpt lat="47.122399974614382" lon="-0.165019975975156">
        <ele>27</ele>
        <time>2022-07-13T05:25:59Z</time>
      </trkpt>
      <trkpt lat="47.122399974614382" lon="-0.164979994297028">
        <ele>27</ele>
        <time>2022-07-13T05:26:01Z</time>
      </trkpt>
      <trkpt lat="47.122399974614382" lon="-0.164930038154125">
        <ele>27</ele>
        <time>2022-07-13T05:26:03Z</time>
      </trkpt>
      <trkpt lat="47.122399974614382" lon="-0.164889972656965">
        <ele>27</ele>
        <time>2022-07-13T05:26:05Z</time>
      </trkpt>
      <trkpt lat="47.122399974614382" lon="-0.164840016514063">
        <ele>27</ele>
        <time>2022-07-13T05:26:07Z</time>
      </trkpt>
      <trkpt lat="47.122399974614382" lon="-0.164800034835935">
        <ele>26</ele>
        <time>2022-07-13T05:26:09Z</time>
      </trkpt>
      <trkpt lat="47.122399974614382" lon="-0.164759969338775">
        <ele>26</ele>
        <time>2022-07-13T05:26:11Z</time>
      </trkpt>
      <trkpt lat="47.122410032898188" lon="-0.164719987660646">
        <ele>26</ele>
        <time>2022-07-13T05:26:13Z</time>
      </trkpt>
      <trkpt lat="47.122420007362962" lon="-0.164670031517744">
        <ele>26</ele>
        <time>2022-07-13T05:26:15Z</time>
      </trkpt>
      <trkpt lat="47.122420007362962" lon="-0.16461999155581">
        <ele>27</ele>
        <time>2022-07-13T05:26:18Z</time>
      </trkpt>
      <trkpt lat="47.122429981827736" lon="-0.164570035412908">
        <ele>27</ele>
        <time>2022-07-13T05:26:21Z</time>
      </trkpt>
      <trkpt lat="47.122429981827736" lon="-0.164510020986199">
        <ele>26</ele>
        <time>2022-07-13T05:26:24Z</time>
      </trkpt>
      <trkpt lat="47.122440040111542" lon="-0.164459981024265">
        <ele>26</ele>
        <time>2022-07-13T05:26:26Z</time>
      </trkpt>
      <trkpt lat="47.122440040111542" lon="-0.164419999346137">
        <ele>26</ele>
        <time>2022-07-13T05:26:28Z</time>
      </trkpt>
      <trkpt lat="47.122440040111542" lon="-0.164359984919429">
        <ele>27</ele>
        <time>2022-07-13T05:26:31Z</time>
      </trkpt>
      <trkpt lat="47.12245998904109" lon="-0.164329977706075">
        <ele>27</ele>
        <time>2022-07-13T05:26:33Z</time>
      </trkpt>
      <trkpt lat="47.12248002178967" lon="-0.164289996027946">
        <ele>27</ele>
        <time>2022-07-13T05:26:36Z</time>
      </trkpt>
      <trkpt lat="47.122510029003024" lon="-0.164269963279366">
        <ele>27</ele>
        <time>2022-07-13T05:26:39Z</time>
      </trkpt>
      <trkpt lat="47.122520003467798" lon="-0.164229981601238">
        <ele>27</ele>
        <time>2022-07-13T05:26:42Z</time>
      </trkpt>
      <trkpt lat="47.122550010681152" lon="-0.16421003267169">
        <ele>28</ele>
        <time>2022-07-13T05:26:45Z</time>
      </trkpt>
      <trkpt lat="47.122569959610701" lon="-0.16421003267169">
        <ele>28</ele>
        <time>2022-07-13T05:26:48Z</time>
      </trkpt>
      <trkpt lat="47.122599966824055" lon="-0.164199974387884">
        <ele>28</ele>
        <time>2022-07-13T05:26:54Z</time>
      </trkpt>
      <trkpt lat="47.122629974037409" lon="-0.16418999992311">
        <ele>28</ele>
        <time>2022-07-13T05:26:56Z</time>
      </trkpt>
      <trkpt lat="47.122659981250763" lon="-0.164180025458336">
        <ele>27</ele>
        <time>2022-07-13T05:26:59Z</time>
      </trkpt>
      <trkpt lat="47.122689988464117" lon="-0.16416996717453">
        <ele>26</ele>
        <time>2022-07-13T05:27:01Z</time>
      </trkpt>
      <trkpt lat="47.122719995677471" lon="-0.164159992709756">
        <ele>25</ele>
        <time>2022-07-13T05:27:03Z</time>
      </trkpt>
      <trkpt lat="47.122750002890825" lon="-0.164150018244982">
        <ele>24</ele>
        <time>2022-07-13T05:27:05Z</time>
      </trkpt>
      <trkpt lat="47.122780010104179" lon="-0.164150018244982">
        <ele>24</ele>
        <time>2022-07-13T05:27:08Z</time>
      </trkpt>
      <trkpt lat="47.122810017317533" lon="-0.164159992709756">
        <ele>23</ele>
        <time>2022-07-13T05:27:10Z</time>
      </trkpt>
      <trkpt lat="47.122840024530888" lon="-0.164159992709756">
        <ele>22</ele>
        <time>2022-07-13T05:27:12Z</time>
      </trkpt>
      <trkpt lat="47.122870031744242" lon="-0.164150018244982">
        <ele>23</ele>
        <time>2022-07-13T05:27:15Z</time>
      </trkpt>
      <trkpt lat="47.122900038957596" lon="-0.164150018244982">
        <ele>22</ele>
        <time>2022-07-13T05:27:17Z</time>
      </trkpt>
      <trkpt lat="47.122940020635724" lon="-0.164139959961176">
        <ele>23</ele>
        <time>2022-07-13T05:27:20Z</time>
      </trkpt>
      <trkpt lat="47.122980002313852" lon="-0.164129985496402">
        <ele>23</ele>
        <time>2022-07-13T05:27:22Z</time>
      </trkpt>
      <trkpt lat="47.123010009527206" lon="-0.164110036566854">
        <ele>23</ele>
        <time>2022-07-13T05:27:24Z</time>
      </trkpt>
      <trkpt lat="47.123040016740561" lon="-0.164099978283048">
        <ele>24</ele>
        <time>2022-07-13T05:27:26Z</time>
      </trkpt>
      <trkpt lat="47.123070023953915" lon="-0.164090003818274">
        <ele>24</ele>
        <time>2022-07-13T05:27:30Z</time>
      </trkpt>
      <trkpt lat="47.123110005632043" lon="-0.164080029353499">
        <ele>24</ele>
        <time>2022-07-13T05:27:32Z</time>
      </trkpt>
      <trkpt lat="47.123140012845397" lon="-0.164080029353499">
        <ele>25</ele>
        <time>2022-07-13T05:27:35Z</time>
      </trkpt>
      <trkpt lat="47.123170020058751" lon="-0.164069971069694">
        <ele>25</ele>
        <time>2022-07-13T05:27:37Z</time>
      </trkpt>
      <trkpt lat="47.123210001736879" lon="-0.164059996604919">
        <ele>25</ele>
        <time>2022-07-13T05:27:40Z</time>
      </trkpt>
      <trkpt lat="47.123240008950233" lon="-0.164059996604919">
        <ele>24</ele>
        <time>2022-07-13T05:27:42Z</time>
      </trkpt>
      <trkpt lat="47.123270016163588" lon="-0.164050022140145">
        <ele>23</ele>
        <time>2022-07-13T05:27:44Z</time>
      </trkpt>
      <trkpt lat="47.123309997841716" lon="-0.164050022140145">
        <ele>23</ele>
        <time>2022-07-13T05:27:46Z</time>
      </trkpt>
      <trkpt lat="47.12334000505507" lon="-0.164039963856339">
        <ele>23</ele>
        <time>2022-07-13T05:27:48Z</time>
      </trkpt>
      <trkpt lat="47.123370012268424" lon="-0.164029989391565">
        <ele>23</ele>
        <time>2022-07-13T05:27:51Z</time>
      </trkpt>
      <trkpt lat="47.123400019481778" lon="-0.164010040462017">
        <ele>23</ele>
        <time>2022-07-13T05:27:54Z</time>
      </trkpt>
      <trkpt lat="47.123430026695132" lon="-0.163999982178211">
        <ele>23</ele>
        <time>2022-07-13T05:27:56Z</time>
      </trkpt>
      <trkpt lat="47.12347000837326" lon="-0.163999982178211">
        <ele>22</ele>
        <time>2022-07-13T05:27:59Z</time>
      </trkpt>
      <trkpt lat="47.123509990051389" lon="-0.163999982178211">
        <ele>22</ele>
        <time>2022-07-13T05:28:02Z</time>
      </trkpt>
      <trkpt lat="47.123549971729517" lon="-0.163999982178211">
        <ele>22</ele>
        <time>2022-07-13T05:28:05Z</time>
      </trkpt>
      <trkpt lat="47.123579978942871" lon="-0.163990007713437">
        <ele>22</ele>
        <time>2022-07-13T05:28:07Z</time>
      </trkpt>
      <trkpt lat="47.123609986156225" lon="-0.163969974964857">
        <ele>23</ele>
        <time>2022-07-13T05:28:10Z</time>
      </trkpt>
      <trkpt lat="47.123639993369579" lon="-0.163960000500083">
        <ele>23</ele>
        <time>2022-07-13T05:28:12Z</time>
      </trkpt>
      <trkpt lat="47.123679975047708" lon="-0.163950026035309">
        <ele>24</ele>
        <time>2022-07-13T05:28:15Z</time>
      </trkpt>
      <trkpt lat="47.123709982261062" lon="-0.163950026035309">
        <ele>24</ele>
        <time>2022-07-13T05:28:18Z</time>
      </trkpt>
      <trkpt lat="47.123739989474416" lon="-0.163939967751503">
        <ele>24</ele>
        <time>2022-07-13T05:28:21Z</time>
      </trkpt>
      <trkpt lat="47.12376999668777" lon="-0.163929993286729">
        <ele>25</ele>
        <time>2022-07-13T05:28:23Z</time>
      </trkpt>
      <trkpt lat="47.123809978365898" lon="-0.163929993286729">
        <ele>25</ele>
        <time>2022-07-13T05:28:26Z</time>
      </trkpt>
      <trkpt lat="47.123849960044026" lon="-0.163929993286729">
        <ele>26</ele>
        <time>2022-07-13T05:28:29Z</time>
      </trkpt>
      <trkpt lat="47.12387996725738" lon="-0.163929993286729">
        <ele>26</ele>
        <time>2022-07-13T05:28:34Z</time>
      </trkpt>
      <trkpt lat="47.123909974470735" lon="-0.163939967751503">
        <ele>25</ele>
        <time>2022-07-13T05:28:40Z</time>
      </trkpt>
      <trkpt lat="47.123939981684089" lon="-0.163929993286729">
        <ele>25</ele>
        <time>2022-07-13T05:28:42Z</time>
      </trkpt>
      <trkpt lat="47.123969988897443" lon="-0.163920018821955">
        <ele>25</ele>
        <time>2022-07-13T05:28:44Z</time>
      </trkpt>
      <trkpt lat="47.123999996110797" lon="-0.163899986073375">
        <ele>24</ele>
        <time>2022-07-13T05:28:46Z</time>
      </trkpt>
      <trkpt lat="47.124039977788925" lon="-0.163890011608601">
        <ele>24</ele>
        <time>2022-07-13T05:28:48Z</time>
      </trkpt>
      <trkpt lat="47.124079959467053" lon="-0.163890011608601">
        <ele>23</ele>
        <time>2022-07-13T05:28:51Z</time>
      </trkpt>
      <trkpt lat="47.124120024964213" lon="-0.163880037143826">
        <ele>22</ele>
        <time>2022-07-13T05:28:55Z</time>
      </trkpt>
      <trkpt lat="47.124160006642342" lon="-0.163869978860021">
        <ele>22</ele>
        <time>2022-07-13T05:28:57Z</time>
      </trkpt>
      <trkpt lat="47.124190013855696" lon="-0.163860004395247">
        <ele>23</ele>
        <time>2022-07-13T05:29:00Z</time>
      </trkpt>
      <trkpt lat="47.124239969998598" lon="-0.163839971646667">
        <ele>23</ele>
        <time>2022-07-13T05:29:04Z</time>
      </trkpt>
      <trkpt lat="47.124280035495758" lon="-0.163829997181892">
        <ele>24</ele>
        <time>2022-07-13T05:29:06Z</time>
      </trkpt>
      <trkpt lat="47.12430995889008" lon="-0.163820022717118">
        <ele>25</ele>
        <time>2022-07-13T05:29:08Z</time>
      </trkpt>
      <trkpt lat="47.124339966103435" lon="-0.163809964433312">
        <ele>25</ele>
        <time>2022-07-13T05:29:10Z</time>
      </trkpt>
      <trkpt lat="47.124380031600595" lon="-0.163799989968538">
        <ele>26</ele>
        <time>2022-07-13T05:29:12Z</time>
      </trkpt>
      <trkpt lat="47.124410038813949" lon="-0.163790015503764">
        <ele>26</ele>
        <time>2022-07-13T05:29:14Z</time>
      </trkpt>
      <trkpt lat="47.124439962208271" lon="-0.16378004103899">
        <ele>27</ele>
        <time>2022-07-13T05:29:16Z</time>
      </trkpt>
      <trkpt lat="47.124480027705431" lon="-0.163769982755184">
        <ele>27</ele>
        <time>2022-07-13T05:29:19Z</time>
      </trkpt>
      <trkpt lat="47.124520009383559" lon="-0.16376000829041">
        <ele>27</ele>
        <time>2022-07-13T05:29:22Z</time>
      </trkpt>
      <trkpt lat="47.124550016596913" lon="-0.16376000829041">
        <ele>26</ele>
        <time>2022-07-13T05:29:24Z</time>
      </trkpt>
      <trkpt lat="47.124589998275042" lon="-0.16376000829041">
        <ele>25</ele>
        <time>2022-07-13T05:29:26Z</time>
      </trkpt>
      <trkpt lat="47.124620005488396" lon="-0.163750033825636">
        <ele>24</ele>
        <time>2022-07-13T05:29:28Z</time>
      </trkpt>
      <trkpt lat="47.124659987166524" lon="-0.163750033825636">
        <ele>24</ele>
        <time>2022-07-13T05:29:30Z</time>
      </trkpt>
      <trkpt lat="47.124689994379878" lon="-0.16373997554183">
        <ele>25</ele>
        <time>2022-07-13T05:29:32Z</time>
      </trkpt>
      <trkpt lat="47.124720001593232" lon="-0.16373997554183">
        <ele>25</ele>
        <time>2022-07-13T05:29:35Z</time>
      </trkpt>
      <trkpt lat="47.124750008806586" lon="-0.163730001077056">
        <ele>25</ele>
        <time>2022-07-13T05:29:37Z</time>
      </trkpt>
      <trkpt lat="47.124789990484715" lon="-0.163730001077056">
        <ele>25</ele>
        <time>2022-07-13T05:29:40Z</time>
      </trkpt>
      <trkpt lat="47.124819997698069" lon="-0.163730001077056">
        <ele>25</ele>
        <time>2022-07-13T05:29:42Z</time>
      </trkpt>
      <trkpt lat="47.124850004911423" lon="-0.163720026612282">
        <ele>25</ele>
        <time>2022-07-13T05:29:44Z</time>
      </trkpt>
      <trkpt lat="47.124880012124777" lon="-0.163709968328476">
        <ele>25</ele>
        <time>2022-07-13T05:29:47Z</time>
      </trkpt>
      <trkpt lat="47.124910019338131" lon="-0.163709968328476">
        <ele>25</ele>
        <time>2022-07-13T05:29:49Z</time>
      </trkpt>
      <trkpt lat="47.124950001016259" lon="-0.163709968328476">
        <ele>25</ele>
        <time>2022-07-13T05:29:52Z</time>
      </trkpt>
      <trkpt lat="47.124989982694387" lon="-0.163709968328476">
        <ele>26</ele>
        <time>2022-07-13T05:29:55Z</time>
      </trkpt>
      <trkpt lat="47.125019989907742" lon="-0.163699993863702">
        <ele>26</ele>
        <time>2022-07-13T05:29:57Z</time>
      </trkpt>
      <trkpt lat="47.125049997121096" lon="-0.163690019398928">
        <ele>26</ele>
        <time>2022-07-13T05:29:59Z</time>
      </trkpt>
      <trkpt lat="47.12508000433445" lon="-0.163690019398928">
        <ele>26</ele>
        <time>2022-07-13T05:30:02Z</time>
      </trkpt>
      <trkpt lat="47.125110011547804" lon="-0.163690019398928">
        <ele>26</ele>
        <time>2022-07-13T05:30:04Z</time>
      </trkpt>
      <trkpt lat="47.125140018761158" lon="-0.163679961115122">
        <ele>27</ele>
        <time>2022-07-13T05:30:06Z</time>
      </trkpt>
      <trkpt lat="47.125170025974512" lon="-0.163669986650348">
        <ele>26</ele>
        <time>2022-07-13T05:30:09Z</time>
      </trkpt>
      <trkpt lat="47.125200033187866" lon="-0.163650037720799">
        <ele>26</ele>
        <time>2022-07-13T05:30:12Z</time>
      </trkpt>
      <trkpt lat="47.125240014865994" lon="-0.163639979436994">
        <ele>26</ele>
        <time>2022-07-13T05:30:15Z</time>
      </trkpt>
      <trkpt lat="47.125270022079349" lon="-0.163630004972219">
        <ele>26</ele>
        <time>2022-07-13T05:30:17Z</time>
      </trkpt>
      <trkpt lat="47.125300029292703" lon="-0.163620030507445">
        <ele>26</ele>
        <time>2022-07-13T05:30:19Z</time>
      </trkpt>
      <trkpt lat="47.125340010970831" lon="-0.163620030507445">
        <ele>25</ele>
        <time>2022-07-13T05:30:22Z</time>
      </trkpt>
      <trkpt lat="47.125379992648959" lon="-0.163620030507445">
        <ele>25</ele>
        <time>2022-07-13T05:30:24Z</time>
      </trkpt>
      <trkpt lat="47.125409999862313" lon="-0.163620030507445">
        <ele>26</ele>
        <time>2022-07-13T05:30:26Z</time>
      </trkpt>
      <trkpt lat="47.125449981540442" lon="-0.163620030507445">
        <ele>26</ele>
        <time>2022-07-13T05:30:28Z</time>
      </trkpt>
      <trkpt lat="47.125479988753796" lon="-0.163620030507445">
        <ele>26</ele>
        <time>2022-07-13T05:30:30Z</time>
      </trkpt>
      <trkpt lat="47.12550999596715" lon="-0.163620030507445">
        <ele>26</ele>
        <time>2022-07-13T05:30:33Z</time>
      </trkpt>
      <trkpt lat="47.125549977645278" lon="-0.163620030507445">
        <ele>26</ele>
        <time>2022-07-13T05:30:35Z</time>
      </trkpt>
      <trkpt lat="47.125579984858632" lon="-0.163609972223639">
        <ele>26</ele>
        <time>2022-07-13T05:30:38Z</time>
      </trkpt>
      <trkpt lat="47.125609992071986" lon="-0.163609972223639">
        <ele>26</ele>
        <time>2022-07-13T05:30:40Z</time>
      </trkpt>
      <trkpt lat="47.12563999928534" lon="-0.163599997758865">
        <ele>26</ele>
        <time>2022-07-13T05:30:42Z</time>
      </trkpt>
      <trkpt lat="47.125679980963469" lon="-0.163590023294091">
        <ele>27</ele>
        <time>2022-07-13T05:30:45Z</time>
      </trkpt>
      <trkpt lat="47.125719962641597" lon="-0.163579965010285">
        <ele>26</ele>
        <time>2022-07-13T05:30:48Z</time>
      </trkpt>
      <trkpt lat="47.125749969854951" lon="-0.163569990545511">
        <ele>25</ele>
        <time>2022-07-13T05:30:50Z</time>
      </trkpt>
      <trkpt lat="47.125779977068305" lon="-0.163569990545511">
        <ele>25</ele>
        <time>2022-07-13T05:30:52Z</time>
      </trkpt>
      <trkpt lat="47.125809984281659" lon="-0.163560016080737">
        <ele>24</ele>
        <time>2022-07-13T05:30:54Z</time>
      </trkpt>
      <trkpt lat="47.125849965959787" lon="-0.163550041615963">
        <ele>24</ele>
        <time>2022-07-13T05:30:57Z</time>
      </trkpt>
      <trkpt lat="47.125879973173141" lon="-0.163539983332157">
        <ele>24</ele>
        <time>2022-07-13T05:30:59Z</time>
      </trkpt>
      <trkpt lat="47.125909980386496" lon="-0.163530008867383">
        <ele>25</ele>
        <time>2022-07-13T05:31:02Z</time>
      </trkpt>
      <trkpt lat="47.125949962064624" lon="-0.163520034402609">
        <ele>25</ele>
        <time>2022-07-13T05:31:04Z</time>
      </trkpt>
      <trkpt lat="47.125979969277978" lon="-0.163500001654029">
        <ele>25</ele>
        <time>2022-07-13T05:31:07Z</time>
      </trkpt>
      <trkpt lat="47.126009976491332" lon="-0.163490027189255">
        <ele>26</ele>
        <time>2022-07-13T05:31:09Z</time>
      </trkpt>
      <trkpt lat="47.126039983704686" lon="-0.163490027189255">
        <ele>27</ele>
        <time>2022-07-13T05:31:11Z</time>
      </trkpt>
      <trkpt lat="47.12606999091804" lon="-0.163490027189255">
        <ele>27</ele>
        <time>2022-07-13T05:31:13Z</time>
      </trkpt>
      <trkpt lat="47.126099998131394" lon="-0.163490027189255">
        <ele>27</ele>
        <time>2022-07-13T05:31:15Z</time>
      </trkpt>
      <trkpt lat="47.126130005344748" lon="-0.163490027189255">
        <ele>27</ele>
        <time>2022-07-13T05:31:18Z</time>
      </trkpt>
      <trkpt lat="47.126169987022877" lon="-0.163479968905449">
        <ele>26</ele>
        <time>2022-07-13T05:31:21Z</time>
      </trkpt>
      <trkpt lat="47.126199994236231" lon="-0.163469994440675">
        <ele>26</ele>
        <time>2022-07-13T05:31:23Z</time>
      </trkpt>
      <trkpt lat="47.126230001449585" lon="-0.163469994440675">
        <ele>26</ele>
        <time>2022-07-13T05:31:26Z</time>
      </trkpt>
      <trkpt lat="47.126269983127713" lon="-0.163469994440675">
        <ele>26</ele>
        <time>2022-07-13T05:31:28Z</time>
      </trkpt>
      <trkpt lat="47.126299990341067" lon="-0.163469994440675">
        <ele>25</ele>
        <time>2022-07-13T05:31:30Z</time>
      </trkpt>
      <trkpt lat="47.126320023089647" lon="-0.163469994440675">
        <ele>25</ele>
        <time>2022-07-13T05:31:32Z</time>
      </trkpt>
      <trkpt lat="47.126360004767776" lon="-0.163460019975901">
        <ele>26</ele>
        <time>2022-07-13T05:31:35Z</time>
      </trkpt>
      <trkpt lat="47.12639001198113" lon="-0.163449961692095">
        <ele>26</ele>
        <time>2022-07-13T05:31:37Z</time>
      </trkpt>
      <trkpt lat="47.126429993659258" lon="-0.163439987227321">
        <ele>26</ele>
        <time>2022-07-13T05:31:39Z</time>
      </trkpt>
      <trkpt lat="47.126460000872612" lon="-0.163430012762547">
        <ele>25</ele>
        <time>2022-07-13T05:31:41Z</time>
      </trkpt>
      <trkpt lat="47.126490008085966" lon="-0.163430012762547">
        <ele>25</ele>
        <time>2022-07-13T05:31:43Z</time>
      </trkpt>
      <trkpt lat="47.126529989764094" lon="-0.163430012762547">
        <ele>25</ele>
        <time>2022-07-13T05:31:45Z</time>
      </trkpt>
      <trkpt lat="47.126559996977448" lon="-0.163420038297772">
        <ele>24</ele>
        <time>2022-07-13T05:31:47Z</time>
      </trkpt>
      <trkpt lat="47.126590004190803" lon="-0.163409980013967">
        <ele>24</ele>
        <time>2022-07-13T05:31:49Z</time>
      </trkpt>
      <trkpt lat="47.126620011404157" lon="-0.163409980013967">
        <ele>24</ele>
        <time>2022-07-13T05:31:51Z</time>
      </trkpt>
      <trkpt lat="47.126650018617511" lon="-0.163409980013967">
        <ele>25</ele>
        <time>2022-07-13T05:31:53Z</time>
      </trkpt>
      <trkpt lat="47.126680025830865" lon="-0.163409980013967">
        <ele>25</ele>
        <time>2022-07-13T05:31:55Z</time>
      </trkpt>
      <trkpt lat="47.126710033044219" lon="-0.163400005549192">
        <ele>25</ele>
        <time>2022-07-13T05:31:57Z</time>
      </trkpt>
      <trkpt lat="47.126740040257573" lon="-0.163390031084418">
        <ele>25</ele>
        <time>2022-07-13T05:31:59Z</time>
      </trkpt>
      <trkpt lat="47.126769963651896" lon="-0.163379972800612">
        <ele>24</ele>
        <time>2022-07-13T05:32:02Z</time>
      </trkpt>
      <trkpt lat="47.12679997086525" lon="-0.163369998335838">
        <ele>24</ele>
        <time>2022-07-13T05:32:04Z</time>
      </trkpt>
      <trkpt lat="47.126829978078604" lon="-0.163360023871064">
        <ele>23</ele>
        <time>2022-07-13T05:32:07Z</time>
      </trkpt>
      <trkpt lat="47.126869959756732" lon="-0.163349965587258">
        <ele>24</ele>
        <time>2022-07-13T05:32:09Z</time>
      </trkpt>
      <trkpt lat="47.126899966970086" lon="-0.163339991122484">
        <ele>24</ele>
        <time>2022-07-13T05:32:12Z</time>
      </trkpt>
      <trkpt lat="47.126940032467246" lon="-0.163339991122484">
        <ele>24</ele>
        <time>2022-07-13T05:32:15Z</time>
      </trkpt>
      <trkpt lat="47.1269700396806" lon="-0.16333001665771">
        <ele>24</ele>
        <time>2022-07-13T05:32:17Z</time>
      </trkpt>
      <trkpt lat="47.126999963074923" lon="-0.163319958373904">
        <ele>24</ele>
        <time>2022-07-13T05:32:19Z</time>
      </trkpt>
      <trkpt lat="47.127029970288277" lon="-0.16330998390913">
        <ele>24</ele>
        <time>2022-07-13T05:32:21Z</time>
      </trkpt>
      <trkpt lat="47.127059977501631" lon="-0.163300009444356">
        <ele>24</ele>
        <time>2022-07-13T05:32:24Z</time>
      </trkpt>
      <trkpt lat="47.127099959179759" lon="-0.163300009444356">
        <ele>24</ele>
        <time>2022-07-13T05:32:26Z</time>
      </trkpt>
      <trkpt lat="47.127129966393113" lon="-0.163290034979582">
        <ele>24</ele>
        <time>2022-07-13T05:32:29Z</time>
      </trkpt>
      <trkpt lat="47.127170031890273" lon="-0.163290034979582">
        <ele>24</ele>
        <time>2022-07-13T05:32:32Z</time>
      </trkpt>
      <trkpt lat="47.127210013568401" lon="-0.163279976695776">
        <ele>24</ele>
        <time>2022-07-13T05:32:35Z</time>
      </trkpt>
      <trkpt lat="47.127240020781755" lon="-0.163270002231002">
        <ele>24</ele>
        <time>2022-07-13T05:32:37Z</time>
      </trkpt>
      <trkpt lat="47.12727002799511" lon="-0.163270002231002">
        <ele>24</ele>
        <time>2022-07-13T05:32:39Z</time>
      </trkpt>
      <trkpt lat="47.127300035208464" lon="-0.163270002231002">
        <ele>24</ele>
        <time>2022-07-13T05:32:41Z</time>
      </trkpt>
      <trkpt lat="47.127329958602786" lon="-0.163270002231002">
        <ele>24</ele>
        <time>2022-07-13T05:32:43Z</time>
      </trkpt>
      <trkpt lat="47.12735996581614" lon="-0.163270002231002">
        <ele>23</ele>
        <time>2022-07-13T05:32:46Z</time>
      </trkpt>
      <trkpt lat="47.1274000313133" lon="-0.163260027766228">
        <ele>24</ele>
        <time>2022-07-13T05:32:48Z</time>
      </trkpt>
      <trkpt lat="47.127430038526654" lon="-0.163249969482422">
        <ele>24</ele>
        <time>2022-07-13T05:32:51Z</time>
      </trkpt>
      <trkpt lat="47.127470020204782" lon="-0.163239995017648">
        <ele>25</ele>
        <time>2022-07-13T05:32:54Z</time>
      </trkpt>
      <trkpt lat="47.127500027418137" lon="-0.163219962269068">
        <ele>26</ele>
        <time>2022-07-13T05:32:57Z</time>
      </trkpt>
      <trkpt lat="47.127540009096265" lon="-0.163209987804294">
        <ele>26</ele>
        <time>2022-07-13T05:33:00Z</time>
      </trkpt>
      <trkpt lat="47.127570016309619" lon="-0.163190038874745">
        <ele>26</ele>
        <time>2022-07-13T05:33:03Z</time>
      </trkpt>
      <trkpt lat="47.127600023522973" lon="-0.163170006126165">
        <ele>25</ele>
        <time>2022-07-13T05:33:06Z</time>
      </trkpt>
      <trkpt lat="47.127630030736327" lon="-0.163139998912811">
        <ele>27</ele>
        <time>2022-07-13T05:33:12Z</time>
      </trkpt>
      <trkpt lat="47.127660037949681" lon="-0.163119966164231">
        <ele>27</ele>
        <time>2022-07-13T05:33:15Z</time>
      </trkpt>
      <trkpt lat="47.12770001962781" lon="-0.163109991699457">
        <ele>28</ele>
        <time>2022-07-13T05:33:18Z</time>
      </trkpt>
      <trkpt lat="47.127740001305938" lon="-0.163100017234683">
        <ele>29</ele>
        <time>2022-07-13T05:33:21Z</time>
      </trkpt>
      <trkpt lat="47.127770008519292" lon="-0.163100017234683">
        <ele>29</ele>
        <time>2022-07-13T05:33:24Z</time>
      </trkpt>
      <trkpt lat="47.12780999019742" lon="-0.163100017234683">
        <ele>30</ele>
        <time>2022-07-13T05:33:27Z</time>
      </trkpt>
      <trkpt lat="47.127839997410774" lon="-0.163109991699457">
        <ele>30</ele>
        <time>2022-07-13T05:33:30Z</time>
      </trkpt>
      <trkpt lat="47.127879979088902" lon="-0.163109991699457">
        <ele>30</ele>
        <time>2022-07-13T05:33:33Z</time>
      </trkpt>
      <trkpt lat="47.127919960767031" lon="-0.163100017234683">
        <ele>30</ele>
        <time>2022-07-13T05:33:36Z</time>
      </trkpt>
      <trkpt lat="47.127949967980385" lon="-0.163109991699457">
        <ele>30</ele>
        <time>2022-07-13T05:33:39Z</time>
      </trkpt>
      <trkpt lat="47.127979975193739" lon="-0.163100017234683">
        <ele>30</ele>
        <time>2022-07-13T05:33:42Z</time>
      </trkpt>
      <trkpt lat="47.128009982407093" lon="-0.163100017234683">
        <ele>31</ele>
        <time>2022-07-13T05:33:45Z</time>
      </trkpt>
      <trkpt lat="47.128049964085221" lon="-0.163089958950877">
        <ele>31</ele>
        <time>2022-07-13T05:33:47Z</time>
      </trkpt>
      <trkpt lat="47.128079971298575" lon="-0.163089958950877">
        <ele>31</ele>
        <time>2022-07-13T05:33:49Z</time>
      </trkpt>
      <trkpt lat="47.12810997851193" lon="-0.163089958950877">
        <ele>32</ele>
        <time>2022-07-13T05:33:51Z</time>
      </trkpt>
      <trkpt lat="47.128149960190058" lon="-0.163079984486103">
        <ele>32</ele>
        <time>2022-07-13T05:33:53Z</time>
      </trkpt>
      <trkpt lat="47.128179967403412" lon="-0.163079984486103">
        <ele>33</ele>
        <time>2022-07-13T05:33:55Z</time>
      </trkpt>
      <trkpt lat="47.128209974616766" lon="-0.163079984486103">
        <ele>34</ele>
        <time>2022-07-13T05:33:57Z</time>
      </trkpt>
      <trkpt lat="47.12823998183012" lon="-0.163070010021329">
        <ele>34</ele>
        <time>2022-07-13T05:33:59Z</time>
      </trkpt>
      <trkpt lat="47.128269989043474" lon="-0.163070010021329">
        <ele>35</ele>
        <time>2022-07-13T05:34:01Z</time>
      </trkpt>
      <trkpt lat="47.128299996256828" lon="-0.163049977272749">
        <ele>35</ele>
        <time>2022-07-13T05:34:03Z</time>
      </trkpt>
      <trkpt lat="47.128330003470182" lon="-0.163040002807975">
        <ele>36</ele>
        <time>2022-07-13T05:34:05Z</time>
      </trkpt>
      <trkpt lat="47.128360010683537" lon="-0.163030028343201">
        <ele>36</ele>
        <time>2022-07-13T05:34:07Z</time>
      </trkpt>
      <trkpt lat="47.128399992361665" lon="-0.163009995594621">
        <ele>37</ele>
        <time>2022-07-13T05:34:10Z</time>
      </trkpt>
      <trkpt lat="47.128429999575019" lon="-0.162989962846041">
        <ele>38</ele>
        <time>2022-07-13T05:34:13Z</time>
      </trkpt>
      <trkpt lat="47.128460006788373" lon="-0.162979988381267">
        <ele>37</ele>
        <time>2022-07-13T05:34:15Z</time>
      </trkpt>
      <trkpt lat="47.128490014001727" lon="-0.162960039451718">
        <ele>37</ele>
        <time>2022-07-13T05:34:17Z</time>
      </trkpt>
      <trkpt lat="47.128520021215081" lon="-0.162940006703138">
        <ele>38</ele>
        <time>2022-07-13T05:34:20Z</time>
      </trkpt>
      <trkpt lat="47.128550028428435" lon="-0.16290002502501">
        <ele>38</ele>
        <time>2022-07-13T05:34:23Z</time>
      </trkpt>
      <trkpt lat="47.128560002893209" lon="-0.16285995952785">
        <ele>37</ele>
        <time>2022-07-13T05:34:26Z</time>
      </trkpt>
      <trkpt lat="47.128569977357984" lon="-0.162800028920174">
        <ele>37</ele>
        <time>2022-07-13T05:34:29Z</time>
      </trkpt>
      <trkpt lat="47.128580035641789" lon="-0.16274998895824">
        <ele>37</ele>
        <time>2022-07-13T05:34:32Z</time>
      </trkpt>
      <trkpt lat="47.128580035641789" lon="-0.162700032815337">
        <ele>37</ele>
        <time>2022-07-13T05:34:35Z</time>
      </trkpt>
      <trkpt lat="47.128590010106564" lon="-0.162659967318177">
        <ele>37</ele>
        <time>2022-07-13T05:34:37Z</time>
      </trkpt>
      <trkpt lat="47.128599984571338" lon="-0.162619985640049">
        <ele>37</ele>
        <time>2022-07-13T05:34:39Z</time>
      </trkpt>
      <trkpt lat="47.128609959036112" lon="-0.162580003961921">
        <ele>37</ele>
        <time>2022-07-13T05:34:41Z</time>
      </trkpt>
      <trkpt lat="47.128629991784692" lon="-0.162540022283793">
        <ele>38</ele>
        <time>2022-07-13T05:34:44Z</time>
      </trkpt>
      <trkpt lat="47.128639966249466" lon="-0.162489982321858">
        <ele>38</ele>
        <time>2022-07-13T05:34:46Z</time>
      </trkpt>
      <trkpt lat="47.128659998998046" lon="-0.16245000064373">
        <ele>37</ele>
        <time>2022-07-13T05:34:48Z</time>
      </trkpt>
      <trkpt lat="47.128680031746626" lon="-0.162410018965602">
        <ele>37</ele>
        <time>2022-07-13T05:34:50Z</time>
      </trkpt>
      <trkpt lat="47.128699980676174" lon="-0.162380011752248">
        <ele>36</ele>
        <time>2022-07-13T05:34:52Z</time>
      </trkpt>
      <trkpt lat="47.12871003895998" lon="-0.16234003007412">
        <ele>35</ele>
        <time>2022-07-13T05:34:54Z</time>
      </trkpt>
      <trkpt lat="47.128729987889528" lon="-0.16229996457696">
        <ele>35</ele>
        <time>2022-07-13T05:34:57Z</time>
      </trkpt>
      <trkpt lat="47.128739962354302" lon="-0.162250008434057">
        <ele>34</ele>
        <time>2022-07-13T05:35:00Z</time>
      </trkpt>
      <trkpt lat="47.128759995102882" lon="-0.162189994007349">
        <ele>33</ele>
        <time>2022-07-13T05:35:03Z</time>
      </trkpt>
      <trkpt lat="47.128780027851462" lon="-0.162150012329221">
        <ele>33</ele>
        <time>2022-07-13T05:35:05Z</time>
      </trkpt>
      <trkpt lat="47.128799976781011" lon="-0.162120005115867">
        <ele>32</ele>
        <time>2022-07-13T05:35:07Z</time>
      </trkpt>
      <trkpt lat="47.128820009529591" lon="-0.162089997902513">
        <ele>32</ele>
        <time>2022-07-13T05:35:09Z</time>
      </trkpt>
      <trkpt lat="47.128839958459139" lon="-0.162059990689158">
        <ele>32</ele>
        <time>2022-07-13T05:35:11Z</time>
      </trkpt>
      <trkpt lat="47.128869965672493" lon="-0.162029983475804">
        <ele>33</ele>
        <time>2022-07-13T05:35:13Z</time>
      </trkpt>
      <trkpt lat="47.128889998421073" lon="-0.162010034546256">
        <ele>32</ele>
        <time>2022-07-13T05:35:15Z</time>
      </trkpt>
      <trkpt lat="47.128910031169653" lon="-0.161969969049096">
        <ele>33</ele>
        <time>2022-07-13T05:35:18Z</time>
      </trkpt>
      <trkpt lat="47.128940038383007" lon="-0.161939961835742">
        <ele>34</ele>
        <time>2022-07-13T05:35:21Z</time>
      </trkpt>
      <trkpt lat="47.128959987312555" lon="-0.161920012906194">
        <ele>34</ele>
        <time>2022-07-13T05:35:23Z</time>
      </trkpt>
      <trkpt lat="47.128989994525909" lon="-0.161899980157614">
        <ele>34</ele>
        <time>2022-07-13T05:35:26Z</time>
      </trkpt>
      <trkpt lat="47.129029976204038" lon="-0.16186997294426">
        <ele>33</ele>
        <time>2022-07-13T05:35:28Z</time>
      </trkpt>
      <trkpt lat="47.129059983417392" lon="-0.161839965730906">
        <ele>34</ele>
        <time>2022-07-13T05:35:31Z</time>
      </trkpt>
      <trkpt lat="47.129089990630746" lon="-0.161809958517551">
        <ele>33</ele>
        <time>2022-07-13T05:35:34Z</time>
      </trkpt>
      <trkpt lat="47.129110023379326" lon="-0.161769976839423">
        <ele>33</ele>
        <time>2022-07-13T05:35:36Z</time>
      </trkpt>
      <trkpt lat="47.129129972308874" lon="-0.161729995161295">
        <ele>32</ele>
        <time>2022-07-13T05:35:38Z</time>
      </trkpt>
      <trkpt lat="47.12914003059268" lon="-0.161699987947941">
        <ele>32</ele>
        <time>2022-07-13T05:35:40Z</time>
      </trkpt>
      <trkpt lat="47.129170037806034" lon="-0.161669980734587">
        <ele>31</ele>
        <time>2022-07-13T05:35:42Z</time>
      </trkpt>
      <trkpt lat="47.129189986735582" lon="-0.161639973521233">
        <ele>30</ele>
        <time>2022-07-13T05:35:45Z</time>
      </trkpt>
      <trkpt lat="47.129210019484162" lon="-0.161599991843104">
        <ele>30</ele>
        <time>2022-07-13T05:35:47Z</time>
      </trkpt>
      <trkpt lat="47.129240026697516" lon="-0.161560010164976">
        <ele>30</ele>
        <time>2022-07-13T05:35:49Z</time>
      </trkpt>
      <trkpt lat="47.129270033910871" lon="-0.161520028486848">
        <ele>31</ele>
        <time>2022-07-13T05:35:51Z</time>
      </trkpt>
      <trkpt lat="47.129289982840419" lon="-0.161479962989688">
        <ele>31</ele>
        <time>2022-07-13T05:35:53Z</time>
      </trkpt>
      <trkpt lat="47.129319990053773" lon="-0.16143998131156">
        <ele>30</ele>
        <time>2022-07-13T05:35:56Z</time>
      </trkpt>
      <trkpt lat="47.129340022802353" lon="-0.161399999633431">
        <ele>29</ele>
        <time>2022-07-13T05:35:59Z</time>
      </trkpt>
      <trkpt lat="47.129370030015707" lon="-0.161360017955303">
        <ele>29</ele>
        <time>2022-07-13T05:36:01Z</time>
      </trkpt>
      <trkpt lat="47.129389978945255" lon="-0.161330010741949">
        <ele>29</ele>
        <time>2022-07-13T05:36:03Z</time>
      </trkpt>
      <trkpt lat="47.129410011693835" lon="-0.161300003528595">
        <ele>28</ele>
        <time>2022-07-13T05:36:05Z</time>
      </trkpt>
      <trkpt lat="47.129429960623384" lon="-0.161260021850467">
        <ele>29</ele>
        <time>2022-07-13T05:36:08Z</time>
      </trkpt>
      <trkpt lat="47.129459967836738" lon="-0.161230014637113">
        <ele>28</ele>
        <time>2022-07-13T05:36:10Z</time>
      </trkpt>
      <trkpt lat="47.129489975050092" lon="-0.161209981888533">
        <ele>28</ele>
        <time>2022-07-13T05:36:12Z</time>
      </trkpt>
      <trkpt lat="47.129510007798672" lon="-0.161190032958984">
        <ele>28</ele>
        <time>2022-07-13T05:36:14Z</time>
      </trkpt>
      <trkpt lat="47.129540015012026" lon="-0.161170000210404">
        <ele>29</ele>
        <time>2022-07-13T05:36:16Z</time>
      </trkpt>
      <trkpt lat="47.12957002222538" lon="-0.161170000210404">
        <ele>29</ele>
        <time>2022-07-13T05:36:19Z</time>
      </trkpt>
      <trkpt lat="47.129589971154928" lon="-0.161190032958984">
        <ele>29</ele>
        <time>2022-07-13T05:36:30Z</time>
      </trkpt>
      <trkpt lat="47.129600029438734" lon="-0.161230014637113">
        <ele>29</ele>
        <time>2022-07-13T05:36:33Z</time>
      </trkpt>
      <trkpt lat="47.129619978368282" lon="-0.161269996315241">
        <ele>30</ele>
        <time>2022-07-13T05:36:37Z</time>
      </trkpt>
      <trkpt lat="47.129640011116862" lon="-0.161309977993369">
        <ele>30</ele>
        <time>2022-07-13T05:36:40Z</time>
      </trkpt>
      <trkpt lat="47.129649985581636" lon="-0.161349959671497">
        <ele>31</ele>
        <time>2022-07-13T05:36:43Z</time>
      </trkpt>
      <trkpt lat="47.129670018330216" lon="-0.161390025168657">
        <ele>31</ele>
        <time>2022-07-13T05:36:45Z</time>
      </trkpt>
      <trkpt lat="47.129689967259765" lon="-0.161420032382011">
        <ele>32</ele>
        <time>2022-07-13T05:36:48Z</time>
      </trkpt>
      <trkpt lat="47.129710000008345" lon="-0.16146001406014">
        <ele>32</ele>
        <time>2022-07-13T05:36:52Z</time>
      </trkpt>
      <trkpt lat="47.129740007221699" lon="-0.161490021273494">
        <ele>32</ele>
        <time>2022-07-13T05:36:55Z</time>
      </trkpt>
      <trkpt lat="47.129760039970279" lon="-0.161530002951622">
        <ele>32</ele>
        <time>2022-07-13T05:36:58Z</time>
      </trkpt>
      <trkpt lat="47.129779988899827" lon="-0.161560010164976">
        <ele>32</ele>
        <time>2022-07-13T05:37:01Z</time>
      </trkpt>
      <trkpt lat="47.129789963364601" lon="-0.161599991843104">
        <ele>32</ele>
        <time>2022-07-13T05:37:04Z</time>
      </trkpt>
      <trkpt lat="47.129809996113181" lon="-0.161639973521233">
        <ele>32</ele>
        <time>2022-07-13T05:37:06Z</time>
      </trkpt>
      <trkpt lat="47.129830028861761" lon="-0.161669980734587">
        <ele>32</ele>
        <time>2022-07-13T05:37:08Z</time>
      </trkpt>
      <trkpt lat="47.129849977791309" lon="-0.161709962412715">
        <ele>32</ele>
        <time>2022-07-13T05:37:10Z</time>
      </trkpt>
      <trkpt lat="47.129860036075115" lon="-0.161750027909875">
        <ele>32</ele>
        <time>2022-07-13T05:37:12Z</time>
      </trkpt>
      <trkpt lat="47.129889959469438" lon="-0.161790009588003">
        <ele>33</ele>
        <time>2022-07-13T05:37:14Z</time>
      </trkpt>
      <trkpt lat="47.129909992218018" lon="-0.161829991266131">
        <ele>33</ele>
        <time>2022-07-13T05:37:16Z</time>
      </trkpt>
      <trkpt lat="47.129919966682792" lon="-0.16186997294426">
        <ele>33</ele>
        <time>2022-07-13T05:37:20Z</time>
      </trkpt>
      <trkpt lat="47.129949973896146" lon="-0.161899980157614">
        <ele>32</ele>
        <time>2022-07-13T05:37:23Z</time>
      </trkpt>
      <trkpt lat="47.129970006644726" lon="-0.161939961835742">
        <ele>32</ele>
        <time>2022-07-13T05:37:26Z</time>
      </trkpt>
      <trkpt lat="47.129990039393306" lon="-0.161980027332902">
        <ele>32</ele>
        <time>2022-07-13T05:37:28Z</time>
      </trkpt>
      <trkpt lat="47.130009988322854" lon="-0.16202000901103">
        <ele>31</ele>
        <time>2022-07-13T05:37:31Z</time>
      </trkpt>
      <trkpt lat="47.130030021071434" lon="-0.162050016224384">
        <ele>31</ele>
        <time>2022-07-13T05:37:33Z</time>
      </trkpt>
      <trkpt lat="47.130049970000982" lon="-0.162080023437738">
        <ele>31</ele>
        <time>2022-07-13T05:37:36Z</time>
      </trkpt>
      <trkpt lat="47.130070002749562" lon="-0.162120005115867">
        <ele>32</ele>
        <time>2022-07-13T05:37:39Z</time>
      </trkpt>
      <trkpt lat="47.130079977214336" lon="-0.162159986793995">
        <ele>32</ele>
        <time>2022-07-13T05:37:41Z</time>
      </trkpt>
      <trkpt lat="47.130100009962916" lon="-0.162189994007349">
        <ele>33</ele>
        <time>2022-07-13T05:37:44Z</time>
      </trkpt>
      <trkpt lat="47.130119958892465" lon="-0.162229975685477">
        <ele>33</ele>
        <time>2022-07-13T05:37:47Z</time>
      </trkpt>
      <trkpt lat="47.130139991641045" lon="-0.162259982898831">
        <ele>33</ele>
        <time>2022-07-13T05:37:49Z</time>
      </trkpt>
      <trkpt lat="47.130160024389625" lon="-0.16229996457696">
        <ele>33</ele>
        <time>2022-07-13T05:37:51Z</time>
      </trkpt>
      <trkpt lat="47.130190031602979" lon="-0.16234003007412">
        <ele>34</ele>
        <time>2022-07-13T05:37:54Z</time>
      </trkpt>
      <trkpt lat="47.130209980532527" lon="-0.162380011752248">
        <ele>35</ele>
        <time>2022-07-13T05:37:56Z</time>
      </trkpt>
      <trkpt lat="47.130230013281107" lon="-0.162419993430376">
        <ele>35</ele>
        <time>2022-07-13T05:37:58Z</time>
      </trkpt>
      <trkpt lat="47.130260020494461" lon="-0.162459975108504">
        <ele>34</ele>
        <time>2022-07-13T05:38:01Z</time>
      </trkpt>
      <trkpt lat="47.130279969424009" lon="-0.162510015070438">
        <ele>35</ele>
        <time>2022-07-13T05:38:04Z</time>
      </trkpt>
      <trkpt lat="47.130300002172589" lon="-0.162549996748567">
        <ele>35</ele>
        <time>2022-07-13T05:38:06Z</time>
      </trkpt>
      <trkpt lat="47.130320034921169" lon="-0.162580003961921">
        <ele>35</ele>
        <time>2022-07-13T05:38:08Z</time>
      </trkpt>
      <trkpt lat="47.130339983850718" lon="-0.162619985640049">
        <ele>34</ele>
        <time>2022-07-13T05:38:10Z</time>
      </trkpt>
      <trkpt lat="47.130349958315492" lon="-0.162659967318177">
        <ele>33</ele>
        <time>2022-07-13T05:38:12Z</time>
      </trkpt>
      <trkpt lat="47.130369991064072" lon="-0.162700032815337">
        <ele>33</ele>
        <time>2022-07-13T05:38:14Z</time>
      </trkpt>
      <trkpt lat="47.130399998277426" lon="-0.162730040028691">
        <ele>33</ele>
        <time>2022-07-13T05:38:16Z</time>
      </trkpt>
      <trkpt lat="47.130420031026006" lon="-0.162759963423014">
        <ele>33</ele>
        <time>2022-07-13T05:38:18Z</time>
      </trkpt>
      <trkpt lat="47.130439979955554" lon="-0.162789970636368">
        <ele>33</ele>
        <time>2022-07-13T05:38:20Z</time>
      </trkpt>
      <trkpt lat="47.130460012704134" lon="-0.162830036133528">
        <ele>33</ele>
        <time>2022-07-13T05:38:22Z</time>
      </trkpt>
      <trkpt lat="47.130479961633682" lon="-0.16285995952785">
        <ele>33</ele>
        <time>2022-07-13T05:38:24Z</time>
      </trkpt>
      <trkpt lat="47.130499994382262" lon="-0.16290002502501">
        <ele>32</ele>
        <time>2022-07-13T05:38:27Z</time>
      </trkpt>
      <trkpt lat="47.130520027130842" lon="-0.162940006703138">
        <ele>32</ele>
        <time>2022-07-13T05:38:30Z</time>
      </trkpt>
      <trkpt lat="47.13053997606039" lon="-0.162979988381267">
        <ele>32</ele>
        <time>2022-07-13T05:38:33Z</time>
      </trkpt>
      <trkpt lat="47.13056000880897" lon="-0.163019970059395">
        <ele>32</ele>
        <time>2022-07-13T05:38:36Z</time>
      </trkpt>
      <trkpt lat="47.13058004155755" lon="-0.163049977272749">
        <ele>34</ele>
        <time>2022-07-13T05:38:39Z</time>
      </trkpt>
      <trkpt lat="47.130599990487099" lon="-0.163079984486103">
        <ele>34</ele>
        <time>2022-07-13T05:38:41Z</time>
      </trkpt>
      <trkpt lat="47.130620023235679" lon="-0.163100017234683">
        <ele>34</ele>
        <time>2022-07-13T05:38:43Z</time>
      </trkpt>
      <trkpt lat="47.130639972165227" lon="-0.163149973377585">
        <ele>35</ele>
        <time>2022-07-13T05:38:46Z</time>
      </trkpt>
      <trkpt lat="47.130660004913807" lon="-0.16317998059094">
        <ele>34</ele>
        <time>2022-07-13T05:38:49Z</time>
      </trkpt>
      <trkpt lat="47.130680037662387" lon="-0.163230020552874">
        <ele>33</ele>
        <time>2022-07-13T05:38:52Z</time>
      </trkpt>
      <trkpt lat="47.130690012127161" lon="-0.163270002231002">
        <ele>31</ele>
        <time>2022-07-13T05:38:54Z</time>
      </trkpt>
      <trkpt lat="47.130709961056709" lon="-0.163300009444356">
        <ele>31</ele>
        <time>2022-07-13T05:38:56Z</time>
      </trkpt>
      <trkpt lat="47.130720019340515" lon="-0.163339991122484">
        <ele>31</ele>
        <time>2022-07-13T05:38:58Z</time>
      </trkpt>
      <trkpt lat="47.130739968270063" lon="-0.163379972800612">
        <ele>31</ele>
        <time>2022-07-13T05:39:00Z</time>
      </trkpt>
      <trkpt lat="47.130769975483418" lon="-0.163409980013967">
        <ele>31</ele>
        <time>2022-07-13T05:39:02Z</time>
      </trkpt>
      <trkpt lat="47.130780033767223" lon="-0.163449961692095">
        <ele>30</ele>
        <time>2022-07-13T05:39:05Z</time>
      </trkpt>
      <trkpt lat="47.130799982696772" lon="-0.163500001654029">
        <ele>29</ele>
        <time>2022-07-13T05:39:08Z</time>
      </trkpt>
      <trkpt lat="47.130820015445352" lon="-0.163530008867383">
        <ele>29</ele>
        <time>2022-07-13T05:39:11Z</time>
      </trkpt>
      <trkpt lat="47.1308399643749" lon="-0.163569990545511">
        <ele>28</ele>
        <time>2022-07-13T05:39:14Z</time>
      </trkpt>
      <trkpt lat="47.13085999712348" lon="-0.163609972223639">
        <ele>28</ele>
        <time>2022-07-13T05:39:16Z</time>
      </trkpt>
      <trkpt lat="47.13088002987206" lon="-0.163639979436994">
        <ele>28</ele>
        <time>2022-07-13T05:39:19Z</time>
      </trkpt>
      <trkpt lat="47.130910037085414" lon="-0.163679961115122">
        <ele>28</ele>
        <time>2022-07-13T05:39:22Z</time>
      </trkpt>
      <trkpt lat="47.130929986014962" lon="-0.163720026612282">
        <ele>27</ele>
        <time>2022-07-13T05:39:24Z</time>
      </trkpt>
      <trkpt lat="47.130950018763542" lon="-0.16376000829041">
        <ele>26</ele>
        <time>2022-07-13T05:39:27Z</time>
      </trkpt>
      <trkpt lat="47.13096996769309" lon="-0.163799989968538">
        <ele>27</ele>
        <time>2022-07-13T05:39:30Z</time>
      </trkpt>
      <trkpt lat="47.130999974906445" lon="-0.163820022717118">
        <ele>27</ele>
        <time>2022-07-13T05:39:33Z</time>
      </trkpt>
      <trkpt lat="47.131029982119799" lon="-0.163820022717118">
        <ele>27</ele>
        <time>2022-07-13T05:39:36Z</time>
      </trkpt>
      <trkpt lat="47.131059989333153" lon="-0.163809964433312">
        <ele>26</ele>
        <time>2022-07-13T05:39:43Z</time>
      </trkpt>
      <trkpt lat="47.131089996546507" lon="-0.163790015503764">
        <ele>27</ele>
        <time>2022-07-13T05:39:48Z</time>
      </trkpt>
      <trkpt lat="47.131099971011281" lon="-0.163809964433312">
        <ele>27</ele>
        <time>2022-07-13T05:40:00Z</time>
      </trkpt>
      <trkpt lat="47.131110029295087" lon="-0.163790015503764">
        <ele>30</ele>
        <time>2022-07-13T05:40:06Z</time>
      </trkpt>
      <trkpt lat="47.131129978224635" lon="-0.16376000829041">
        <ele>29</ele>
        <time>2022-07-13T05:40:08Z</time>
      </trkpt>
      <trkpt lat="47.131140036508441" lon="-0.163730001077056">
        <ele>30</ele>
        <time>2022-07-13T05:40:10Z</time>
      </trkpt>
      <trkpt lat="47.131159985437989" lon="-0.163690019398928">
        <ele>30</ele>
        <time>2022-07-13T05:40:12Z</time>
      </trkpt>
      <trkpt lat="47.131189992651343" lon="-0.163660012185574">
        <ele>31</ele>
        <time>2022-07-13T05:40:15Z</time>
      </trkpt>
      <trkpt lat="47.131210025399923" lon="-0.163630004972219">
        <ele>31</ele>
        <time>2022-07-13T05:40:18Z</time>
      </trkpt>
      <trkpt lat="47.131219999864697" lon="-0.163579965010285">
        <ele>30</ele>
        <time>2022-07-13T05:40:21Z</time>
      </trkpt>
      <trkpt lat="47.131229974329472" lon="-0.163539983332157">
        <ele>30</ele>
        <time>2022-07-13T05:40:23Z</time>
      </trkpt>
      <trkpt lat="47.131250007078052" lon="-0.163500001654029">
        <ele>30</ele>
        <time>2022-07-13T05:40:26Z</time>
      </trkpt>
      <trkpt lat="47.131270039826632" lon="-0.163469994440675">
        <ele>29</ele>
        <time>2022-07-13T05:40:28Z</time>
      </trkpt>
      <trkpt lat="47.131299963220954" lon="-0.163439987227321">
        <ele>29</ele>
        <time>2022-07-13T05:40:31Z</time>
      </trkpt>
      <trkpt lat="47.131329970434308" lon="-0.163420038297772">
        <ele>30</ele>
        <time>2022-07-13T05:40:34Z</time>
      </trkpt>
      <trkpt lat="47.131350003182888" lon="-0.163390031084418">
        <ele>30</ele>
        <time>2022-07-13T05:40:36Z</time>
      </trkpt>
      <trkpt lat="47.131359977647662" lon="-0.163349965587258">
        <ele>30</ele>
        <time>2022-07-13T05:40:40Z</time>
      </trkpt>
      <trkpt lat="47.131380010396242" lon="-0.163300009444356">
        <ele>31</ele>
        <time>2022-07-13T05:40:43Z</time>
      </trkpt>
      <trkpt lat="47.131389984861016" lon="-0.163260027766228">
        <ele>31</ele>
        <time>2022-07-13T05:40:45Z</time>
      </trkpt>
      <trkpt lat="47.131410017609596" lon="-0.163209987804294">
        <ele>31</ele>
        <time>2022-07-13T05:40:47Z</time>
      </trkpt>
      <trkpt lat="47.131410017609596" lon="-0.163170006126165">
        <ele>31</ele>
        <time>2022-07-13T05:40:49Z</time>
      </trkpt>
      <trkpt lat="47.131429966539145" lon="-0.163130024448037">
        <ele>31</ele>
        <time>2022-07-13T05:40:52Z</time>
      </trkpt>
      <trkpt lat="47.131449999287724" lon="-0.163089958950877">
        <ele>32</ele>
        <time>2022-07-13T05:40:54Z</time>
      </trkpt>
      <trkpt lat="47.131470032036304" lon="-0.163060035556555">
        <ele>32</ele>
        <time>2022-07-13T05:40:56Z</time>
      </trkpt>
      <trkpt lat="47.131500039249659" lon="-0.163030028343201">
        <ele>31</ele>
        <time>2022-07-13T05:40:58Z</time>
      </trkpt>
      <trkpt lat="47.131519988179207" lon="-0.162989962846041">
        <ele>31</ele>
        <time>2022-07-13T05:41:00Z</time>
      </trkpt>
      <trkpt lat="47.131540020927787" lon="-0.162949981167912">
        <ele>30</ele>
        <time>2022-07-13T05:41:03Z</time>
      </trkpt>
      <trkpt lat="47.131559969857335" lon="-0.162909999489784">
        <ele>30</ele>
        <time>2022-07-13T05:41:05Z</time>
      </trkpt>
      <trkpt lat="47.131580002605915" lon="-0.162870017811656">
        <ele>29</ele>
        <time>2022-07-13T05:41:07Z</time>
      </trkpt>
      <trkpt lat="47.131600035354495" lon="-0.162830036133528">
        <ele>29</ele>
        <time>2022-07-13T05:41:10Z</time>
      </trkpt>
      <trkpt lat="47.131619984284043" lon="-0.162779996171594">
        <ele>29</ele>
        <time>2022-07-13T05:41:13Z</time>
      </trkpt>
      <trkpt lat="47.131640017032623" lon="-0.162740014493465">
        <ele>29</ele>
        <time>2022-07-13T05:41:16Z</time>
      </trkpt>
      <trkpt lat="47.131659965962172" lon="-0.162689974531531">
        <ele>30</ele>
        <time>2022-07-13T05:41:19Z</time>
      </trkpt>
      <trkpt lat="47.131679998710752" lon="-0.162649992853403">
        <ele>30</ele>
        <time>2022-07-13T05:41:22Z</time>
      </trkpt>
      <trkpt lat="47.131689973175526" lon="-0.162600036710501">
        <ele>30</ele>
        <time>2022-07-13T05:41:24Z</time>
      </trkpt>
      <trkpt lat="47.131710005924106" lon="-0.162559971213341">
        <ele>29</ele>
        <time>2022-07-13T05:41:26Z</time>
      </trkpt>
      <trkpt lat="47.13174001313746" lon="-0.162529963999987">
        <ele>28</ele>
        <time>2022-07-13T05:41:28Z</time>
      </trkpt>
      <trkpt lat="47.131759962067008" lon="-0.162500040605664">
        <ele>29</ele>
        <time>2022-07-13T05:41:30Z</time>
      </trkpt>
      <trkpt lat="47.131779994815588" lon="-0.16247003339231">
        <ele>28</ele>
        <time>2022-07-13T05:41:33Z</time>
      </trkpt>
      <trkpt lat="47.131800027564168" lon="-0.162440026178956">
        <ele>28</ele>
        <time>2022-07-13T05:41:35Z</time>
      </trkpt>
      <trkpt lat="47.131819976493716" lon="-0.162410018965602">
        <ele>28</ele>
        <time>2022-07-13T05:41:37Z</time>
      </trkpt>
      <trkpt lat="47.13184998370707" lon="-0.162380011752248">
        <ele>27</ele>
        <time>2022-07-13T05:41:39Z</time>
      </trkpt>
      <trkpt lat="47.13187001645565" lon="-0.16234003007412">
        <ele>27</ele>
        <time>2022-07-13T05:41:41Z</time>
      </trkpt>
      <trkpt lat="47.131889965385199" lon="-0.16229996457696">
        <ele>28</ele>
        <time>2022-07-13T05:41:44Z</time>
      </trkpt>
      <trkpt lat="47.131909998133779" lon="-0.162270041182637">
        <ele>28</ele>
        <time>2022-07-13T05:41:46Z</time>
      </trkpt>
      <trkpt lat="47.131930030882359" lon="-0.162240033969283">
        <ele>28</ele>
        <time>2022-07-13T05:41:50Z</time>
      </trkpt>
      <trkpt lat="47.131949979811907" lon="-0.162199968472123">
        <ele>28</ele>
        <time>2022-07-13T05:41:52Z</time>
      </trkpt>
      <trkpt lat="47.131970012560487" lon="-0.162159986793995">
        <ele>28</ele>
        <time>2022-07-13T05:41:54Z</time>
      </trkpt>
      <trkpt lat="47.132000019773841" lon="-0.162129979580641">
        <ele>27</ele>
        <time>2022-07-13T05:41:56Z</time>
      </trkpt>
      <trkpt lat="47.132019968703389" lon="-0.162110030651093">
        <ele>27</ele>
        <time>2022-07-13T05:41:58Z</time>
      </trkpt>
      <trkpt lat="47.132049975916743" lon="-0.162080023437738">
        <ele>28</ele>
        <time>2022-07-13T05:42:01Z</time>
      </trkpt>
      <trkpt lat="47.132079983130097" lon="-0.162059990689158">
        <ele>28</ele>
        <time>2022-07-13T05:42:03Z</time>
      </trkpt>
      <trkpt lat="47.132109990343451" lon="-0.162029983475804">
        <ele>27</ele>
        <time>2022-07-13T05:42:05Z</time>
      </trkpt>
      <trkpt lat="47.132130023092031" lon="-0.161990001797676">
        <ele>27</ele>
        <time>2022-07-13T05:42:07Z</time>
      </trkpt>
      <trkpt lat="47.13214997202158" lon="-0.161950020119548">
        <ele>27</ele>
        <time>2022-07-13T05:42:10Z</time>
      </trkpt>
      <trkpt lat="47.13217000477016" lon="-0.161899980157614">
        <ele>27</ele>
        <time>2022-07-13T05:42:13Z</time>
      </trkpt>
      <trkpt lat="47.132179979234934" lon="-0.161859998479486">
        <ele>27</ele>
        <time>2022-07-13T05:42:15Z</time>
      </trkpt>
      <trkpt lat="47.13219003751874" lon="-0.161820016801357">
        <ele>26</ele>
        <time>2022-07-13T05:42:18Z</time>
      </trkpt>
      <trkpt lat="47.132209986448288" lon="-0.161780035123229">
        <ele>27</ele>
        <time>2022-07-13T05:42:21Z</time>
      </trkpt>
      <trkpt lat="47.132230019196868" lon="-0.161739969626069">
        <ele>26</ele>
        <time>2022-07-13T05:42:23Z</time>
      </trkpt>
      <trkpt lat="47.132249968126416" lon="-0.161699987947941">
        <ele>25</ele>
        <time>2022-07-13T05:42:25Z</time>
      </trkpt>
      <trkpt lat="47.132270000874996" lon="-0.161669980734587">
        <ele>25</ele>
        <time>2022-07-13T05:42:27Z</time>
      </trkpt>
      <trkpt lat="47.132290033623576" lon="-0.161639973521233">
        <ele>25</ele>
        <time>2022-07-13T05:42:29Z</time>
      </trkpt>
      <trkpt lat="47.132309982553124" lon="-0.161609966307878">
        <ele>25</ele>
        <time>2022-07-13T05:42:31Z</time>
      </trkpt>
      <trkpt lat="47.132339989766479" lon="-0.161579959094524">
        <ele>25</ele>
        <time>2022-07-13T05:42:33Z</time>
      </trkpt>
      <trkpt lat="47.132360022515059" lon="-0.161560010164976">
        <ele>25</ele>
        <time>2022-07-13T05:42:35Z</time>
      </trkpt>
      <trkpt lat="47.132379971444607" lon="-0.161530002951622">
        <ele>26</ele>
        <time>2022-07-13T05:42:37Z</time>
      </trkpt>
      <trkpt lat="47.132400004193187" lon="-0.161499995738268">
        <ele>26</ele>
        <time>2022-07-13T05:42:39Z</time>
      </trkpt>
      <trkpt lat="47.132420036941767" lon="-0.16146001406014">
        <ele>25</ele>
        <time>2022-07-13T05:42:41Z</time>
      </trkpt>
      <trkpt lat="47.132439985871315" lon="-0.161420032382011">
        <ele>26</ele>
        <time>2022-07-13T05:42:43Z</time>
      </trkpt>
      <trkpt lat="47.132460018619895" lon="-0.161369992420077">
        <ele>26</ele>
        <time>2022-07-13T05:42:45Z</time>
      </trkpt>
      <trkpt lat="47.132469993084669" lon="-0.161309977993369">
        <ele>26</ele>
        <time>2022-07-13T05:42:47Z</time>
      </trkpt>
      <trkpt lat="47.132479967549443" lon="-0.161260021850467">
        <ele>26</ele>
        <time>2022-07-13T05:42:49Z</time>
      </trkpt>
      <trkpt lat="47.132500000298023" lon="-0.161230014637113">
        <ele>26</ele>
        <time>2022-07-13T05:42:52Z</time>
      </trkpt>
      <trkpt lat="47.132509974762797" lon="-0.161200007423759">
        <ele>26</ele>
        <time>2022-07-13T05:42:54Z</time>
      </trkpt>
      <trkpt lat="47.132530007511377" lon="-0.16116002574563">
        <ele>24</ele>
        <time>2022-07-13T05:42:57Z</time>
      </trkpt>
      <trkpt lat="47.132539981976151" lon="-0.16111996024847">
        <ele>23</ele>
        <time>2022-07-13T05:43:01Z</time>
      </trkpt>
      <trkpt lat="47.132569989189506" lon="-0.161079978570342">
        <ele>22</ele>
        <time>2022-07-13T05:43:05Z</time>
      </trkpt>
      <trkpt lat="47.132590021938086" lon="-0.161039996892214">
        <ele>22</ele>
        <time>2022-07-13T05:43:07Z</time>
      </trkpt>
      <trkpt lat="47.13259999640286" lon="-0.161000015214086">
        <ele>23</ele>
        <time>2022-07-13T05:43:09Z</time>
      </trkpt>
      <trkpt lat="47.132630003616214" lon="-0.160949975252151">
        <ele>23</ele>
        <time>2022-07-13T05:43:11Z</time>
      </trkpt>
      <trkpt lat="47.132639978080988" lon="-0.160900019109249">
        <ele>23</ele>
        <time>2022-07-13T05:43:13Z</time>
      </trkpt>
      <trkpt lat="47.132660010829568" lon="-0.160840004682541">
        <ele>22</ele>
        <time>2022-07-13T05:43:15Z</time>
      </trkpt>
      <trkpt lat="47.132679959759116" lon="-0.160800023004413">
        <ele>23</ele>
        <time>2022-07-13T05:43:18Z</time>
      </trkpt>
      <trkpt lat="47.132699992507696" lon="-0.160760041326284">
        <ele>22</ele>
        <time>2022-07-13T05:43:21Z</time>
      </trkpt>
      <trkpt lat="47.13272999972105" lon="-0.160719975829124">
        <ele>21</ele>
        <time>2022-07-13T05:43:24Z</time>
      </trkpt>
      <trkpt lat="47.13275003246963" lon="-0.160670019686222">
        <ele>21</ele>
        <time>2022-07-13T05:43:26Z</time>
      </trkpt>
      <trkpt lat="47.13275003246963" lon="-0.160630038008094">
        <ele>22</ele>
        <time>2022-07-13T05:43:29Z</time>
      </trkpt>
      <trkpt lat="47.132710553705692" lon="-0.160199711099267">
        <ele>32</ele>
      </trkpt>
      <trkpt lat="47.132654311135411" lon="-0.160090159624815">
        <ele>32.01953125</ele>
      </trkpt>
      <trkpt lat="47.132642576470971" lon="-0.159880947321653">
        <ele>32.10546875</ele>
      </trkpt>
      <trkpt lat="47.13261810131371" lon="-0.159698892384768">
        <ele>32.19140625</ele>
      </trkpt>
      <trkpt lat="47.132631679996848" lon="-0.159435281530023">
        <ele>32.82421875</ele>
      </trkpt>
      <trkpt lat="47.132652215659618" lon="-0.15898073092103">
        <ele>34.41015625</ele>
      </trkpt>
      <trkpt lat="47.132678786292672" lon="-0.15861720778048">
        <ele>34.97265625</ele>
      </trkpt>
      <trkpt lat="47.132698567584157" lon="-0.158371869474649">
        <ele>35.87890625</ele>
      </trkpt>
      <trkpt lat="47.132767802104354" lon="-0.158354183658957">
        <ele>35.60546875</ele>
      </trkpt>
      <trkpt lat="47.132843406870961" lon="-0.15830934047699">
        <ele>35.3984375</ele>
      </trkpt>
      <trkpt lat="47.132900655269623" lon="-0.158137008547783">
        <ele>35.76953125</ele>
      </trkpt>
      <trkpt lat="47.132856901735067" lon="-0.158063918352127">
        <ele>36.4921875</ele>
      </trkpt>
      <trkpt lat="47.132882634177804" lon="-0.15792771242559">
        <ele>36.859375</ele>
      </trkpt>
      <trkpt lat="47.132776184007525" lon="-0.157799553126097">
        <ele>38.80078125</ele>
      </trkpt>
      <trkpt lat="47.133056307211518" lon="-0.156883327290416">
        <ele>40.203125</ele>
      </trkpt>
      <trkpt lat="47.133101318031549" lon="-0.156619967892766">
        <ele>41.82421875</ele>
      </trkpt>
      <trkpt lat="47.133221849799156" lon="-0.156339006498456">
        <ele>41.7578125</ele>
      </trkpt>
      <trkpt lat="47.133330143988132" lon="-0.155985206365585">
        <ele>43.09375</ele>
      </trkpt>
      <trkpt lat="47.13343114592135" lon="-0.155885964632034">
        <ele>41.984375</ele>
      </trkpt>
      <trkpt lat="47.133587887510657" lon="-0.15600549057126">
        <ele>37.8828125</ele>
      </trkpt>
      <trkpt lat="47.133594593033195" lon="-0.155887305736542">
        <ele>41.6640625</ele>
      </trkpt>
    </trkseg>
  </trk>

</gpx>